[[{"header":{"parameterUnit":"m.s-1","parameterCategory":1,"la1":30.6,"la2":28.766,"lo1":-90.7593,"lo2":-88.6598,"dy":0.0162,"dx":0.0183,"nx":116,"ny":114,"refTime":"2023-05-24T12:00:00:Z","depth":0,"parameterNumber":2,"parameterNumberName":"U-component_of_WINDS"},"data":[0.0,0.0,0.0,0.0,0.0,0.0,0.0,0.0,0.0,0.0,0.0,0.0,0.0,0.0,0.0,0.0,0.0,0.0,0.0,0.0,0.0,0.0,0.0,0.0,0.0,0.0,0.0,0.0,0.0,0.0,0.0,0.0,0.0,0.0,0.0,0.0,0.0,0.0,0.0,0.0,0.0,0.0,0.0,0.0,0.0,0.0,0.0,0.0,0.0,0.0,0.0,0.0,0.0,0.0,0.0,0.0,0.0,0.0,0.0,0.0,0.0,0.0,0.0,0.0,0.0,0.0,0.0,0.0,0.0,0.0,0.0,0.0,0.0,0.0,0.0,0.0,0.0,0.0,0.0,0.0,0.0,0.0,0.0,0.0,0.0,0.0,0.0,0.0,0.0,0.0,0.0,0.0,0.0,0.0,0.0,0.0,0.0,0.0,0.0,0.0,0.0,0.0,0.0,0.0,0.0,0.0,0.0,0.0,0.0,0.0,0.0,0.0,0.0,0.0,0.0,0.0,0.0,0.0,0.0,0.0,0.0,0.0,0.0,0.0,0.0,0.0,0.0,0.0,0.0,0.0,0.0,0.0,0.0,0.0,0.0,0.0,0.0,0.0,0.0,0.0,0.0,0.0,0.0,0.0,0.0,0.0,0.0,0.0,0.0,0.0,0.0,0.0,0.0,0.0,0.0,0.0,0.0,0.0,0.0,0.0,0.0,0.0,0.0,0.0,0.0,0.0,0.0,0.0,0.0,0.0,0.0,0.0,0.0,0.0,0.0,0.0,0.0,0.0,0.0,0.0,0.0,0.0,0.0,0.0,0.0,0.0,0.0,0.0,0.0,0.0,0.0,0.0,0.0,0.0,0.0,0.0,0.0,0.0,0.0,0.0,0.0,0.0,0.0,0.0,0.0,0.0,0.0,0.0,0.0,0.0,0.0,0.0,0.0,0.0,0.0,0.0,0.0,0.0,0.0,0.0,0.0,0.0,0.0,0.0,0.0,0.0,0.0,0.0,0.0,0.0,0.0,0.0,0.0,0.0,0.0,0.0,0.0,0.0,0.0,0.0,0.0,0.0,0.0,0.0,0.0,0.0,0.0,0.0,0.0,0.0,0.0,0.0,0.0,0.0,0.0,0.0,0.0,0.0,0.0,0.0,0.0,0.0,0.0,0.0,0.0,0.0,0.0,0.0,0.0,0.0,0.0,0.0,0.0,0.0,0.0,0.0,0.0,0.0,0.0,0.0,0.0,0.0,0.0,0.0,0.0,0.0,0.0,0.0,0.0,0.0,0.0,0.0,0.0,0.0,0.0,0.0,0.0,0.0,0.0,0.0,0.0,0.0,0.0,0.0,0.0,0.0,0.0,0.0,0.0,0.0,0.0,0.0,0.0,0.0,0.0,0.0,0.0,0.0,0.0,0.0,0.0,0.0,0.0,0.0,0.0,0.0,0.0,0.0,0.0,0.0,0.0,0.0,0.0,0.0,0.0,0.0,0.0,0.0,0.0,0.0,0.0,0.0,0.0,0.0,0.0,0.0,0.0,0.0,0.0,0.0,0.0,0.0,0.0,0.0,0.0,0.0,0.0,0.0,0.0,0.0,0.0,0.0,0.0,0.0,0.0,0.0,0.0,0.0,0.0,0.0,0.0,0.0,0.0,0.0,0.0,0.0,0.0,0.0,0.0,0.0,0.0,0.0,0.0,0.0,0.0,0.0,0.0,0.0,0.0,0.0,0.0,0.0,0.0,0.0,0.0,0.0,0.0,0.0,0.0,0.0,0.0,0.0,0.0,0.0,0.0,0.0,0.0,0.0,0.0,0.0,0.0,0.0,0.0,0.0,0.0,0.0,0.0,0.0,0.0,0.0,0.0,0.0,0.0,0.0,0.0,0.0,0.0,0.0,0.0,0.0,0.0,0.0,0.0,0.0,0.0,0.0,0.0,0.0,0.0,0.0,0.0,0.0,0.0,0.0,0.0,0.0,0.0,0.0,0.0,0.0,0.0,0.0,0.0,0.0,0.0,0.0,0.0,0.0,0.0,0.0,0.0,0.0,0.0,0.0,0.0,0.0,0.0,0.0,0.0,0.0,0.0,0.0,0.0,0.0,0.0,0.0,0.0,0.0,0.0,0.0,0.0,0.0,0.0,0.0,0.0,0.0,0.0,0.0,0.0,0.0,0.0,0.0,0.0,0.0,0.0,0.0,0.0,0.0,0.0,0.0,0.0,0.0,0.0,0.0,0.0,0.0,0.0,0.0,0.0,0.0,0.0,0.0,0.0,0.0,0.0,0.0,0.0,0.0,0.0,0.0,0.0,0.0,0.0,0.0,0.0,0.0,0.0,0.0,0.0,0.0,0.0,0.0,0.0,0.0,0.0,0.0,0.0,0.0,0.0,0.0,0.0,0.0,0.0,0.0,0.0,0.0,0.0,0.0,0.0,0.0,0.0,0.0,0.0,0.0,0.0,0.0,0.0,0.0,0.0,0.0,0.0,0.0,0.0,0.0,0.0,0.0,0.0,0.0,0.0,0.0,0.0,0.0,0.0,0.0,0.0,0.0,0.0,0.0,0.0,0.0,0.0,0.0,0.0,0.0,0.0,0.0,0.0,0.0,0.0,0.0,0.0,0.0,0.0,0.0,0.0,0.0,0.0,0.0,0.0,0.0,0.0,0.0,0.0,0.0,0.0,0.0,0.0,0.0,0.0,0.0,0.0,0.0,0.0,0.0,0.0,0.0,0.0,0.0,0.0,0.0,0.0,0.0,0.0,0.0,0.0,0.0,0.0,0.0,0.0,0.0,0.0,0.0,0.0,0.0,0.0,0.0,0.0,0.0,0.0,0.0,0.0,0.0,0.0,0.0,0.0,0.0,0.0,0.0,0.0,0.0,0.0,0.0,0.0,0.0,0.0,0.0,0.0,0.0,0.0,0.0,0.0,0.0,0.0,0.0,0.0,0.0,0.0,0.0,0.0,0.0,0.0,0.0,0.0,0.0,0.0,0.0,0.0,0.0,0.0,0.0,0.0,0.0,0.0,0.0,0.0,0.0,0.0,0.0,0.0,0.0,0.0,0.0,0.0,0.0,0.0,0.0,0.0,0.0,0.0,0.0,0.0,0.0,0.0,0.0,0.0,0.0,0.0,0.0,0.0,0.0,0.0,0.0,0.0,0.0,0.0,0.0,0.0,0.0,0.0,0.0,0.0,0.0,0.0,0.0,0.0,0.0,0.0,0.0,0.0,0.0,0.0,0.0,0.0,0.0,0.0,0.0,0.0,0.0,0.0,0.0,0.0,0.0,0.0,0.0,0.0,0.0,0.0,0.0,0.0,0.0,0.0,0.0,0.0,0.0,0.0,0.0,0.0,0.0,0.0,0.0,0.0,0.0,0.0,0.0,0.0,0.0,0.0,0.0,0.0,0.0,0.0,0.0,0.0,0.0,0.0,0.0,0.0,0.0,0.0,0.0,0.0,0.0,0.0,0.0,0.0,0.0,0.0,0.0,0.0,0.0,0.0,0.0,0.0,0.0,0.0,0.0,0.0,0.0,0.0,0.0,0.0,0.0,0.0,0.0,0.0,0.0,0.0,0.0,0.0,0.0,0.0,0.0,0.0,0.0,0.0,0.0,0.0,0.0,0.0,0.0,0.0,0.0,0.0,0.0,0.0,0.0,0.0,0.0,0.0,0.0,0.0,0.0,0.0,0.0,0.0,0.0,0.0,0.0,0.0,0.0,0.0,0.0,0.0,0.0,0.0,0.0,0.0,0.0,0.0,0.0,0.0,0.0,0.0,0.0,0.0,0.0,0.0,0.0,0.0,0.0,0.0,0.0,0.0,0.0,0.0,0.0,0.0,0.0,0.0,0.0,0.0,0.0,0.0,0.0,0.0,0.0,0.0,0.0,0.0,0.0,0.0,0.0,0.0,0.0,0.0,0.0,0.0,0.0,0.0,0.0,0.0,0.0,0.0,0.0,0.0,0.0,0.0,0.0,0.0,0.0,0.0,0.0,0.0,0.0,0.0,0.0,0.0,0.0,0.0,0.0,0.0,0.0,0.0,0.0,0.0,0.0,0.0,0.0,0.0,0.0,0.0,0.0,0.0,0.0,0.0,0.0,0.0,0.0,0.0,0.0,0.0,0.0,0.0,0.0,0.0,0.0,0.0,0.0,0.0,0.0,0.0,0.0,0.0,0.0,0.0,0.0,0.0,0.0,0.0,0.0,0.0,0.0,0.0,0.0,0.0,0.0,0.0,0.0,0.0,0.0,0.0,0.0,0.0,0.0,0.0,0.0,0.0,0.0,0.0,0.0,0.0,0.0,0.0,0.0,0.0,0.0,0.0,0.0,0.0,0.0,0.0,0.0,0.0,0.0,0.0,0.0,0.0,0.0,0.0,0.0,0.0,0.0,0.0,0.0,0.0,0.0,0.0,0.0,0.0,0.0,0.0,0.0,0.0,0.0,0.0,0.0,0.0,0.0,0.0,0.0,0.0,0.0,0.0,0.0,0.0,0.0,0.0,0.0,0.0,0.0,0.0,0.0,0.0,0.0,0.0,0.0,0.0,0.0,0.0,0.0,0.0,0.0,0.0,0.0,0.0,0.0,0.0,0.0,0.0,0.0,0.0,0.0,0.0,0.0,0.0,0.0,0.0,0.0,0.0,0.0,0.0,0.0,0.0,0.0,0.0,0.0,0.0,0.0,0.0,0.0,0.0,0.0,0.0,0.0,0.0,0.0,0.0,0.0,0.0,0.0,0.0,0.0,0.0,0.0,0.0,0.0,0.0,0.0,0.0,0.0,0.0,0.0,0.0,0.0,0.0,0.0,0.0,0.0,0.0,0.0,0.0,0.0,0.0,0.0,0.0,0.0,0.0,0.0,0.0,0.0,0.0,0.0,0.0,0.0,0.0,0.0,0.0,0.0,0.0,0.0,0.0,0.0,0.0,0.0,0.0,0.0,0.0,0.0,0.0,0.0,0.0,0.0,0.0,0.0,0.0,0.0,0.0,0.0,0.0,0.0,0.0,0.0,0.0,0.0,0.0,0.0,0.0,0.0,0.0,0.0,0.0,0.0,0.0,0.0,0.0,0.0,0.0,0.0,0.0,0.0,0.0,0.0,0.0,0.0,0.0,0.0,0.0,0.0,0.0,0.0,0.0,0.0,0.0,0.0,0.0,0.0,0.0,0.0,0.0,0.0,0.0,0.0,0.0,0.0,0.0,0.0,0.0,0.0,0.0,0.0,0.0,0.0,0.0,0.0,0.0,0.0,0.0,0.0,0.0,0.0,0.0,0.0,0.0,0.0,0.0,0.0,0.0,0.0,0.0,0.0,0.0,0.0,0.0,0.0,0.0,0.0,0.0,0.0,0.0,0.0,0.0,0.0,0.0,0.0,0.0,0.0,0.0,0.0,0.0,0.0,0.0,0.0,0.0,0.0,0.0,0.0,0.0,0.0,0.0,0.0,0.0,0.0,0.0,0.0,0.0,0.0,0.0,0.0,0.0,0.0,0.0,0.0,0.0,0.0,0.0,0.0,0.0,0.0,0.0,0.0,0.0,0.0,0.0,0.0,0.0,0.0,0.0,0.0,0.0,0.0,0.0,0.0,0.0,0.0,0.0,0.0,0.0,0.0,0.0,0.0,0.0,0.0,0.0,0.0,0.0,0.0,0.0,0.0,0.0,0.0,0.0,0.0,0.0,0.0,0.0,0.0,0.0,0.0,0.0,0.0,0.0,0.0,0.0,0.0,0.0,0.0,0.0,0.0,0.0,0.0,0.0,0.0,0.0,0.0,0.0,0.0,0.0,0.0,0.0,0.0,0.0,0.0,0.0,0.0,0.0,0.0,0.0,0.0,0.0,0.0,0.0,0.0,0.0,0.0,0.0,0.0,0.0,0.0,0.0,0.0,0.0,0.0,0.0,0.0,0.0,0.0,0.0,0.0,0.0,0.0,0.0,0.0,0.0,0.0,0.0,0.0,0.0,0.0,0.0,0.0,0.0,0.0,0.0,0.0,0.0,0.0,0.0,0.0,0.0,0.0,0.0,0.0,0.0,0.0,0.0,0.0,0.0,0.0,0.0,0.0,0.0,0.0,0.0,0.0,0.0,0.0,0.0,0.0,0.0,0.0,3.1361,3.1461,0.0,0.0,0.0,0.0,0.0,0.0,0.0,0.0,0.0,0.0,0.0,0.0,0.0,0.0,0.0,0.0,0.0,0.0,0.0,0.0,0.0,0.0,0.0,0.0,0.0,0.0,0.0,0.0,0.0,0.0,0.0,0.0,0.0,0.0,0.0,0.0,0.0,0.0,2.8211,2.847,2.8969,2.845,2.8771,2.9804,0.0,0.0,0.0,0.0,0.0,0.0,0.0,0.0,0.0,0.0,0.0,0.0,0.0,0.0,0.0,0.0,0.0,0.0,0.0,0.0,0.0,0.0,0.0,0.0,0.0,0.0,0.0,0.0,0.0,0.0,0.0,0.0,0.0,0.0,0.0,0.0,0.0,0.0,0.0,0.0,0.0,0.0,0.0,0.0,0.0,0.0,0.0,0.0,0.0,0.0,0.0,0.0,0.0,0.0,0.0,0.0,0.0,0.0,0.0,0.0,0.0,0.0,0.0,0.0,0.0,0.0,0.0,0.0,0.0,0.0,3.2541,3.2365,0.0,0.0,0.0,0.0,0.0,0.0,0.0,0.0,0.0,0.0,0.0,0.0,0.0,0.0,0.0,0.0,0.0,0.0,0.0,0.0,0.0,0.0,0.0,0.0,2.9804,2.9804,2.9804,2.9804,0.0,0.0,0.0,0.0,0.0,0.0,0.0,2.7824,2.738,2.6504,2.6504,2.6933,2.7804,2.7096,2.7747,2.9482,2.9482,0.0,0.0,0.0,0.0,0.0,0.0,0.0,0.0,0.0,0.0,0.0,0.0,0.0,0.0,0.0,0.0,0.0,0.0,0.0,0.0,0.0,0.0,0.0,0.0,0.0,0.0,0.0,0.0,0.0,0.0,0.0,0.0,0.0,0.0,0.0,0.0,0.0,0.0,0.0,0.0,0.0,0.0,0.0,0.0,0.0,0.0,0.0,0.0,0.0,0.0,0.0,0.0,0.0,0.0,0.0,0.0,0.0,0.0,0.0,0.0,0.0,0.0,0.0,3.4474,3.4751,3.5004,3.5556,3.5556,3.5102,3.422,3.3643,3.337,3.3445,0.0,0.0,0.0,0.0,0.0,0.0,0.0,0.0,0.0,0.0,0.0,0.0,0.0,0.0,0.0,0.0,0.0,0.0,0.0,0.0,0.0,2.9453,2.9804,2.9804,2.9804,2.9804,2.9804,0.0,0.0,0.0,0.0,0.0,2.6728,2.673,2.6648,2.6504,2.6504,2.6565,2.673,2.7522,2.8024,2.8327,2.8327,2.9134,3.0462,0.0,0.0,0.0,0.0,0.0,0.0,0.0,0.0,0.0,0.0,0.0,0.0,0.0,0.0,0.0,0.0,0.0,0.0,0.0,0.0,0.0,0.0,0.0,0.0,0.0,0.0,0.0,0.0,0.0,0.0,0.0,0.0,0.0,0.0,0.0,0.0,0.0,0.0,0.0,0.0,0.0,3.3068,3.3621,0.0,0.0,0.0,0.0,0.0,0.0,0.0,0.0,0.0,0.0,0.0,0.0,0.0,3.2807,3.4377,3.5426,3.573,3.5307,3.6761,3.701,3.618,3.6733,3.6935,3.686,3.6733,0.0,3.4327,3.2491,0.0,0.0,0.0,0.0,0.0,0.0,0.0,0.0,0.0,0.0,0.0,0.0,0.0,0.0,0.0,0.0,0.0,0.0,0.0,0.0,0.0,2.8509,2.9106,2.974,3.008,2.985,2.891,2.9138,0.0,0.0,0.0,2.6687,2.5567,2.5307,2.4888,2.4242,2.447,2.4914,2.5546,2.5378,2.6294,2.8064,2.7461,2.829,3.0131,2.9905,0.0,0.0,0.0,0.0,0.0,0.0,0.0,0.0,0.0,0.0,0.0,0.0,0.0,0.0,0.0,0.0,0.0,0.0,0.0,0.0,0.0,0.0,0.0,0.0,0.0,0.0,0.0,0.0,0.0,0.0,0.0,0.0,0.0,0.0,0.0,0.0,0.0,0.0,0.0,3.3144,3.3972,3.3897,3.347,3.2566,0.0,0.0,0.0,0.0,0.0,0.0,0.0,0.0,0.0,3.1398,3.2884,3.4174,3.5308,3.727,3.8115,3.7865,3.8617,3.8542,3.7813,3.8366,3.8441,3.8116,3.7267,3.6501,3.5624,3.3825,3.3142,3.3051,0.0,0.0,0.0,0.0,2.9738,2.9486,0.0,0.0,0.0,0.0,0.0,0.0,0.0,0.0,0.0,0.0,0.0,0.0,2.7325,2.7771,2.8321,2.9282,2.9737,2.9305,2.7787,2.8055,2.7463,2.5671,2.5608,2.4935,2.3483,2.3461,2.3192,2.2654,2.2945,2.3519,2.436,2.38,2.502,2.7663,2.7136,2.8062,3.0005,2.9854,2.988,2.998,0.0,0.0,0.0,0.0,0.0,0.0,0.0,0.0,0.0,0.0,0.0,0.0,0.0,0.0,0.0,0.0,0.0,0.0,0.0,0.0,0.0,0.0,0.0,0.0,0.0,0.0,0.0,0.0,0.0,0.0,0.0,0.0,0.0,0.0,0.0,0.0,0.0,3.4575,3.5152,3.46,3.4433,3.3514,0.0,0.0,0.0,0.0,0.0,0.0,3.05,3.0267,3.0614,3.1736,3.4048,3.5704,3.6562,3.8921,4.0124,4.0124,4.0124,3.9823,3.9321,3.9722,3.9416,3.8483,3.7376,3.6507,3.5765,3.4243,3.3188,3.2415,3.064,2.9872,2.9632,2.9241,2.9097,2.9096,0.0,0.0,0.0,0.0,0.0,0.0,0.0,0.0,0.0,0.0,0.0,2.5776,2.7842,2.773,2.7698,2.816,2.8211,2.777,2.6648,2.6609,2.5587,2.3292,2.3183,2.2114,1.9821,2.0864,2.1972,2.3062,2.3081,2.3144,2.3212,2.4232,2.5378,2.6627,2.7582,2.8979,3.0512,3.0005,3.0105,3.0532,3.0005,0.0,0.0,0.0,0.0,0.0,0.0,0.0,0.0,0.0,0.0,0.0,0.0,0.0,0.0,0.0,0.0,0.0,0.0,0.0,0.0,0.0,0.0,0.0,0.0,0.0,0.0,0.0,0.0,0.0,0.0,0.0,0.0,0.0,0.0,0.0,0.0,0.0,0.0,3.6355,3.594,0.0,0.0,0.0,0.0,3.0918,2.9959,2.9855,3.1098,3.0189,3.0854,3.3497,3.5175,3.6906,3.8722,4.0373,4.1227,4.1227,4.1227,4.0951,4.0399,4.045,3.9415,3.7562,3.7482,3.6121,3.3821,3.2141,3.1758,3.2079,3.0504,2.9495,2.8813,2.8421,2.7541,2.668,0.0,0.0,0.0,0.0,0.0,0.0,0.0,0.0,2.3172,2.304,2.3227,2.4053,2.5793,2.585,2.6116,2.6994,2.7373,2.6649,2.4385,2.4567,2.3567,2.0864,2.0734,2.0601,2.0285,2.1725,2.2553,2.2713,2.2964,2.3101,2.3123,2.3517,2.4702,2.6524,2.6892,2.8186,3.008,2.988,2.9905,3.008,2.988,2.9804,0.0,0.0,0.0,0.0,0.0,0.0,0.0,0.0,0.0,0.0,0.0,0.0,0.0,0.0,0.0,0.0,0.0,0.0,0.0,0.0,0.0,0.0,0.0,0.0,0.0,0.0,0.0,0.0,0.0,0.0,0.0,0.0,0.0,0.0,0.0,0.0,0.0,3.6008,3.6599,0.0,3.3041,3.2134,3.1906,3.2369,3.1877,3.1868,3.2595,3.2243,3.2489,3.3475,3.5071,3.6743,3.8445,4.0045,4.1191,4.1884,4.1884,4.0896,3.907,3.907,3.8003,3.6027,3.5073,3.4179,3.3204,3.1332,3.0719,3.0854,2.971,2.8776,2.8078,2.7918,2.7597,2.7264,0.0,0.0,0.0,0.0,0.0,0.0,0.0,0.0,2.2251,2.1722,2.2147,2.3044,2.4451,2.4219,2.4324,2.5251,2.5232,2.4243,2.1979,2.2154,2.1315,1.8987,1.8879,1.9517,2.0857,2.1945,2.2574,2.2693,2.2986,2.3101,2.3123,2.3495,2.4681,2.6524,2.6894,2.7847,2.9248,2.9248,2.9443,2.9804,2.9804,2.9665,2.9386,0.0,0.0,0.0,0.0,0.0,0.0,0.0,0.0,0.0,0.0,0.0,0.0,0.0,0.0,0.0,0.0,0.0,0.0,0.0,0.0,0.0,0.0,0.0,0.0,0.0,0.0,0.0,0.0,0.0,0.0,0.0,0.0,0.0,0.0,3.7071,3.7776,3.5713,3.6751,3.6601,3.3946,3.3298,3.3275,3.3902,3.3514,3.3476,3.4062,3.3913,3.4103,3.4699,3.6289,3.781,3.9275,4.0883,4.1927,4.2462,4.1938,4.0574,3.8554,3.8005,3.6589,3.4487,3.3508,3.2739,3.2027,3.0899,3.0286,3.0009,2.9379,2.8789,2.8327,2.8327,2.8249,2.8086,0.0,0.0,0.0,0.0,0.0,0.0,0.0,2.1949,2.1758,2.1268,2.1971,2.2924,2.3971,2.2993,2.2434,2.2862,2.1754,2.0597,1.9503,1.9451,1.8925,1.7754,1.7777,1.8918,2.1248,2.1324,2.1943,2.3101,2.3101,2.3101,2.3123,2.4232,2.5357,2.6504,2.7522,2.8024,2.8044,2.8044,2.8688,2.9702,2.9702,2.9307,2.8674,0.0,0.0,0.0,0.0,0.0,0.0,0.0,0.0,0.0,0.0,0.0,0.0,0.0,0.0,0.0,0.0,0.0,0.0,0.0,0.0,0.0,0.0,0.0,0.0,0.0,0.0,0.0,0.0,0.0,0.0,0.0,0.0,0.0,3.5367,3.6935,3.7289,3.5653,3.6472,3.6686,3.5469,3.4652,3.4544,3.5371,3.4681,3.4564,3.5371,3.5,3.5543,3.7201,3.8822,4.0205,4.1365,4.2901,4.345,4.2928,4.1301,3.9983,3.8931,3.7366,3.5349,3.3042,3.3042,3.197,3.0254,3.0703,3.0419,2.9637,2.9637,2.9618,2.9598,2.9618,2.9316,2.8918,0.0,0.0,0.0,0.0,0.0,0.0,0.0,2.1942,2.2187,2.1758,2.242,2.2616,2.1757,2.1596,2.1272,2.0532,2.0127,1.9441,1.8272,1.818,1.8056,1.7707,1.9382,2.0629,2.1279,2.2161,2.2775,2.3101,2.3101,2.3101,2.3123,2.343,2.4168,2.5273,2.5588,2.6171,2.6933,2.6933,2.7119,2.7403,2.7403,2.7313,2.7117,0.0,0.0,0.0,0.0,0.0,0.0,0.0,0.0,0.0,0.0,0.0,0.0,0.0,0.0,0.0,0.0,0.0,0.0,0.0,0.0,0.0,0.0,0.0,0.0,0.0,0.0,0.0,0.0,0.0,0.0,0.0,3.3653,3.4645,3.5052,3.6973,3.8013,3.7095,3.7872,3.8012,3.6873,3.6534,3.6387,3.6362,3.6387,3.625,3.5859,3.6035,3.6214,3.6329,3.7677,3.9102,4.0606,4.0754,4.1338,4.2319,4.0323,3.8455,3.6679,3.5938,3.4265,3.1928,3.1928,3.1455,3.0703,3.084,3.0742,3.0527,3.0527,3.0165,2.9637,2.995,2.9774,2.9422,0.0,0.0,0.0,0.0,0.0,0.0,0.0,2.209,2.2153,2.1229,2.1827,2.1728,2.0066,1.9827,1.9519,1.8826,1.8257,1.7646,1.6936,1.7404,1.8001,1.8683,2.036,2.162,2.2337,2.2849,2.3101,2.3101,2.3101,2.3101,2.3123,2.3604,2.4168,2.4808,2.5294,2.5696,2.604,2.5864,2.5721,2.5592,2.5211,2.5465,2.604,2.604,2.6302,2.6802,2.7673,2.8666,2.9606,3.0017,0.0,0.0,0.0,0.0,0.0,0.0,0.0,0.0,0.0,0.0,0.0,0.0,0.0,0.0,0.0,0.0,0.0,0.0,0.0,0.0,0.0,0.0,0.0,0.0,3.4067,3.5239,3.5587,3.71,3.8018,3.776,3.8361,3.8638,3.8155,3.793,3.777,3.7516,3.7363,3.7148,3.6801,3.6894,3.7144,3.7622,3.8365,3.9418,4.0832,4.0628,4.0742,4.123,3.9352,3.752,3.5754,3.4851,3.3477,3.1797,3.1797,3.1543,3.1152,3.1152,3.1055,3.0898,0.0,0.0,0.0,0.0,3.0185,3.0126,0.0,0.0,0.0,0.0,0.0,0.0,0.0,2.2199,2.1807,2.028,2.068,2.0472,1.8785,1.8071,1.7638,1.7498,1.6457,1.5855,1.5984,1.7194,1.8637,2.0242,2.1071,2.2218,2.3769,2.3337,2.3101,2.3101,2.3101,2.3101,2.3123,2.4125,2.4596,2.4638,2.5716,2.5828,2.5195,2.4887,2.4605,2.4332,2.3571,2.4071,2.5277,2.5237,2.5548,2.6046,2.6618,2.7519,2.8496,2.8609,0.0,0.0,0.0,0.0,0.0,0.0,0.0,0.0,0.0,0.0,0.0,0.0,0.0,0.0,0.0,0.0,0.0,0.0,0.0,0.0,0.0,0.0,0.0,0.0,3.3965,3.5859,3.6851,3.7422,3.7875,3.8014,3.8457,3.8867,3.9238,3.8945,3.8728,3.8689,3.7949,3.7637,3.7874,3.783,0.0,0.0,0.0,4.0743,4.1703,4.1506,4.0943,4.0005,3.8367,3.6965,3.5697,3.4158,3.3066,3.2335,3.2296,3.1992,3.1582,3.1582,3.1348,3.0957,3.0918,3.0898,3.084,3.043,3.0527,3.084,0.0,0.0,0.0,0.0,0.0,0.0,0.0,2.1897,2.1291,2.0652,2.0133,1.9212,1.753,1.7567,1.7288,1.6244,1.595,1.6244,1.7264,1.848,1.9891,2.1552,2.2363,2.3078,2.3789,2.3337,2.3101,2.3101,2.3101,2.3101,2.3101,2.3321,2.343,2.345,2.4051,2.4249,2.4125,2.436,2.4441,2.4391,2.4215,2.4333,2.4558,2.4244,2.4601,2.5474,2.691,2.8034,2.901,2.9949,3.0456,3.0652,3.0118,2.9671,0.0,0.0,0.0,0.0,0.0,0.0,0.0,0.0,0.0,0.0,0.0,0.0,0.0,0.0,0.0,0.0,0.0,0.0,0.0,3.4258,3.5644,3.6988,3.8496,3.8809,3.8882,3.8943,3.9355,3.9668,3.9746,3.9687,3.9492,3.9101,3.8926,3.8574,3.7913,3.9663,4.0515,4.0072,4.177,4.2604,4.2414,4.0967,3.9947,3.9363,3.7314,0.0,3.5422,3.4419,3.3672,3.3164,3.2812,3.2441,3.2081,3.2081,3.1797,3.1367,3.1016,3.0898,3.0879,3.0801,3.082,3.0879,0.0,0.0,0.0,0.0,0.0,0.0,0.0,2.2446,2.1913,2.1119,2.0664,1.9618,1.7583,1.7556,1.7185,1.5927,1.6386,1.7346,1.8808,2.0054,2.1327,2.2586,2.3366,2.3864,2.4102,2.3669,2.3337,2.3101,2.3101,2.322,2.3457,2.322,2.3315,2.3747,2.3789,2.4046,2.4457,2.4414,2.4645,2.5035,2.4824,2.5,2.5332,2.4687,2.4867,2.5584,2.685,2.7762,2.8477,2.9243,2.9629,2.975,2.9469,2.9236,2.8873,0.0,0.0,0.0,0.0,0.0,0.0,0.0,0.0,0.0,0.0,0.0,0.0,0.0,0.0,2.9247,3.1705,0.0,3.4473,3.6641,3.7715,3.8652,3.9707,4.0059,4.0098,3.9883,4.0078,4.0215,4.0215,4.0215,4.0019,3.959,3.9551,3.9355,3.8926,4.0038,4.0484,4.0002,4.0835,4.1186,4.0885,3.9818,3.8899,3.8231,3.7371,3.6426,3.5391,3.5156,3.457,3.373,3.3535,3.3098,3.2492,3.2276,3.1914,3.1474,3.1289,3.1074,3.0898,3.0898,3.0898,3.0898,0.0,0.0,0.0,0.0,0.0,0.0,0.0,2.2906,2.2403,2.1436,2.1083,2.0223,1.8249,1.8056,1.7638,1.6608,1.7474,1.8737,2.0359,2.1431,2.2504,2.3594,2.4115,2.443,2.4531,2.4121,2.373,2.3335,2.3335,2.3552,2.3906,2.361,2.3864,2.4531,2.4375,2.4691,2.5336,2.5039,2.5308,2.5932,2.5586,2.5903,2.6426,2.5747,2.5664,2.6069,2.683,2.7305,2.7643,2.8125,2.834,2.8437,2.8516,2.8652,2.8633,2.7754,2.793,0.0,0.0,0.0,0.0,0.0,0.0,0.0,0.0,2.462,2.5047,2.7924,2.9462,3.1297,3.4696,3.5976,3.7051,3.8691,3.9551,4.0156,4.0586,4.1016,4.1133,4.0703,4.0644,4.0644,4.0644,4.0644,4.0508,4.0176,4.0059,4.0019,4.0019,4.0377,4.0563,4.0427,4.0167,3.9949,3.9733,3.9051,3.8262,3.7422,3.7773,3.7168,3.5762,3.5937,3.5449,3.4466,3.429,3.375,3.3008,3.2578,3.2148,3.1728,3.168,3.1445,3.1113,3.0957,3.0937,3.0996,0.0,0.0,0.0,0.0,0.0,0.0,0.0,0.0,2.1458,2.1324,2.0364,1.961,1.9337,1.9291,1.9245,1.9108,1.9222,2.0029,2.1667,2.1933,2.2876,2.4806,2.4578,2.4609,2.5004,2.457,2.4293,2.4254,2.4254,2.4274,2.4332,2.4711,2.4926,2.5043,2.5786,2.6152,2.6269,2.6582,2.6752,2.685,2.6816,2.6855,2.6908,2.6811,2.6836,2.6908,2.7448,2.7409,2.7207,2.8027,2.8535,2.8926,2.9324,2.9989,3.043,2.9579,2.9082,2.8652,2.78,2.6563,2.5442,2.5059,2.4869,2.5215,0.0,2.8759,3.0384,3.1553,3.3913,3.6146,3.7347,3.7969,3.873,4.0078,4.0391,4.0605,4.1074,4.1465,4.1562,4.1191,4.1094,4.1094,4.1094,4.1094,4.1113,4.1074,4.0664,4.0411,4.0411,4.2112,4.2856,4.2329,4.2772,4.2585,4.1679,4.0005,3.8711,3.7816,3.7874,3.7617,3.7051,3.6348,3.5903,3.5762,3.4961,3.4355,3.3938,3.3457,3.3027,3.2617,3.2276,3.2101,3.1964,3.1201,3.1133,3.1387,0.0,0.0,0.0,0.0,0.0,0.0,0.0,0.0,0.0,2.2359,2.1898,2.1342,2.0612,1.9929,1.9792,2.0477,2.0544,2.1369,2.3258,2.3407,2.402,2.5386,2.5249,2.5156,2.5082,2.5156,2.5035,2.4828,2.5035,2.5289,2.5566,2.5488,2.5723,2.6211,2.6328,2.6685,2.7154,2.7051,2.7168,2.7448,2.7656,2.7754,2.7812,2.832,2.834,2.8059,2.78,2.7565,0.0,2.8379,2.8742,2.9015,2.9726,3.0048,3.0028,2.9375,2.8437,2.7447,2.6691,2.6174,2.5885,2.5863,2.5771,2.624,2.8382,2.9169,3.0368,3.3714,3.5723,3.748,3.9461,3.9961,4.0351,4.1133,4.1055,4.0976,4.1191,4.1328,4.1367,4.123,4.1211,4.1211,4.1211,4.1211,4.1211,4.1211,4.0996,4.1418,4.2523,4.341,4.3718,4.3471,4.3483,4.2592,4.0797,4.0,3.9043,3.7894,3.8401,3.8184,3.7285,3.7187,3.6684,3.5942,3.5078,3.4609,3.4414,3.4238,3.3769,3.3144,3.2969,3.2754,3.2492,3.1885,3.1738,3.1875,0.0,0.0,0.0,0.0,0.0,0.0,0.0,0.0,0.0,0.0,2.3101,2.2775,2.1898,2.1011,2.0832,2.1702,2.1902,2.2697,2.4286,2.4625,2.5093,2.5854,2.601,2.5913,2.563,2.5893,2.5937,2.563,2.5937,2.6309,2.6763,2.6426,2.6693,2.7493,2.7226,2.75,2.8191,2.7851,2.791,2.8249,2.8542,2.8652,2.8691,2.9227,2.9121,2.8672,2.8066,2.7721,2.7604,2.8184,2.8372,2.8516,2.9258,2.9211,2.8789,2.8407,2.7244,2.5918,2.5081,2.5317,2.5945,2.6616,2.6972,2.7789,3.0049,3.0693,3.1881,3.5576,3.7397,3.8948,4.0977,4.1445,4.1621,4.1933,4.1719,4.1484,4.1367,4.1445,4.1426,4.125,4.1308,4.1348,4.123,4.1211,4.1211,4.1211,4.1211,4.1792,4.3207,4.3283,4.3283,4.3283,4.3012,4.1948,4.0078,4.0078,3.9531,3.8476,3.8965,3.8711,3.7832,3.7891,3.7285,3.6172,3.5527,3.5117,3.4883,3.4883,3.4375,3.3594,3.3594,3.3418,3.3105,3.2707,3.2472,3.2355,0.0,0.0,0.0,0.0,0.0,0.0,0.0,0.0,0.0,0.0,0.0,0.0,0.0,2.2994,2.2994,2.3057,2.3449,2.39,2.4371,2.5191,2.5874,2.6348,2.6758,2.6947,2.6928,2.6947,2.6947,2.6928,2.6947,2.7207,2.7643,2.7643,2.8066,2.884,2.882,2.9101,2.954,2.952,2.952,2.954,2.9559,2.9559,2.952,2.9082,2.8672,2.832,2.8281,2.7734,2.7006,2.7045,2.7045,2.7148,2.7624,2.7403,2.6956,2.6798,2.5715,2.4331,2.3277,2.3595,2.4699,2.6546,2.8055,2.9754,3.2248,3.5082,3.7267,3.7421,3.9669,4.1659,4.1777,4.2109,4.2362,4.2362,4.2362,4.2246,4.1836,4.2129,4.209,4.1308,4.1523,4.1621,4.125,4.1211,4.1211,4.1211,4.1211,4.1211,4.1288,4.1288,4.1288,4.1288,4.1269,4.1015,4.0508,4.0469,4.0273,3.9824,3.9394,3.918,3.9121,3.8301,3.7461,3.6675,3.6656,3.6167,3.5371,3.5371,3.4863,3.4095,3.4095,3.4075,3.4016,3.3555,3.3125,3.2715,0.0,0.0,0.0,0.0,0.0,0.0,0.0,0.0,0.0,0.0,0.0,0.0,0.0,0.0,0.0,0.0,2.4375,2.4946,2.6128,2.7181,2.7412,2.6638,2.7713,2.791,2.7012,2.7578,2.8008,2.8254,2.8574,2.8816,2.8953,2.8953,2.9109,2.9355,2.9355,2.959,2.9961,2.9715,3.0322,3.1463,3.1463,3.1463,3.1435,3.1271,3.0178,2.8594,0.0,2.6869,2.6186,2.6504,2.6602,2.6567,2.6368,2.6131,2.5548,2.3713,2.3419,2.3856,2.4571,2.568,2.7285,2.9982,3.1442,3.29,3.5382,3.6916,3.8189,3.9656,4.0472,4.0957,4.0957,4.1074,4.125,4.1543,4.1836,4.1953,4.1816,4.2168,4.2109,4.1308,4.1543,4.1641,4.125,4.1211,4.1714,4.3037,4.3113,4.3701,4.4998,4.5073,4.4473,4.3151,4.3113,4.2281,4.0527,4.082,4.0605,3.9902,3.9746,3.9492,3.918,3.8613,3.8047,3.748,3.7207,3.6758,3.6284,3.6284,3.5756,3.4941,3.4941,3.4766,3.4434,3.4004,3.4672,3.5663,0.0,0.0,0.0,0.0,0.0,0.0,0.0,0.0,0.0,0.0,0.0,0.0,0.0,0.0,0.0,0.0,0.0,2.6041,2.705,2.8075,2.8342,2.7627,2.8505,2.8694,2.8045,2.7995,2.8261,2.8814,2.8731,2.8992,2.9598,2.9442,2.9618,3.0096,3.0434,3.0846,3.1256,3.1536,3.2204,3.3087,3.2915,3.2466,3.186,3.1497,3.0078,0.0,2.6928,2.5773,2.4835,2.5455,2.5464,2.5132,2.493,2.4456,2.3756,2.2579,2.3052,2.4505,2.6922,2.8544,3.027,3.3327,3.4697,3.5935,3.8448,3.9084,3.9529,4.1074,4.0937,4.0489,4.0489,4.0489,4.0625,4.0898,4.1308,4.1621,4.1777,4.1894,4.1894,4.166,4.1719,4.1699,4.1426,4.1387,4.1892,4.2981,4.3718,4.436,4.4924,4.5574,4.5052,4.3151,4.3075,4.2324,4.0762,4.1035,4.082,4.0117,4.0117,3.9883,3.9434,3.9004,3.8555,3.8125,3.7695,3.7285,3.691,3.6773,3.625,3.5605,3.5449,3.5215,3.4902,3.4453,3.6032,3.8133,0.0,0.0,0.0,0.0,0.0,0.0,0.0,0.0,0.0,0.0,0.0,0.0,0.0,0.0,0.0,0.0,0.0,0.0,2.724,2.8052,2.8746,2.917,2.9123,2.9343,2.9855,2.8331,2.792,2.8769,2.7728,2.8055,2.9675,2.9254,2.9746,3.0983,3.196,3.2643,3.3149,3.4549,3.4858,3.4388,3.3789,3.2533,3.0953,2.9936,2.8467,2.6806,2.5946,2.4476,2.3087,2.4049,2.3724,2.2961,2.3331,2.2574,2.1857,2.3398,2.464,2.6349,3.0161,3.1963,3.3488,3.6487,3.7704,3.8792,4.1265,4.1484,4.1348,4.1641,4.1016,4.0372,4.0332,4.0333,4.043,4.045,4.0937,4.1465,4.1875,4.1601,4.1641,4.2362,4.2129,4.1894,4.1894,4.1855,4.1719,4.1484,4.3192,4.3456,4.1657,4.3266,4.3321,4.125,4.1211,4.1211,4.1211,4.1211,4.0976,4.0566,4.0566,4.0332,3.9922,3.9473,3.9023,3.863,3.8164,3.7734,3.7305,3.7034,3.6602,3.6152,3.5841,3.573,3.5652,3.5146,3.7334,4.0052,0.0,0.0,0.0,0.0,0.0,0.0,0.0,0.0,0.0,0.0,0.0,0.0,0.0,0.0,0.0,0.0,0.0,0.0,2.9045,3.0085,3.0107,2.896,2.9901,3.0102,2.9252,2.9166,2.9367,2.9881,3.0002,3.0281,3.0726,3.1069,3.1395,3.1739,3.2002,3.2381,3.2871,3.286,3.3614,3.4718,3.3246,3.239,3.1848,3.0687,2.8401,2.5753,2.5231,2.3803,2.235,2.3372,2.2852,2.195,2.2678,2.332,2.4053,2.5445,2.7757,3.0528,3.3852,3.57,3.7283,3.9924,4.0929,4.1335,4.1717,4.1719,4.1406,4.0547,3.9687,3.8769,3.7832,3.8437,3.9297,3.9941,4.1484,4.2871,4.3633,4.3906,4.3867,4.3437,4.3281,4.3223,4.3223,4.2637,4.3002,4.4786,4.5766,4.6247,4.617,4.6254,4.4699,4.1327,4.1211,4.1211,4.1211,4.1211,4.1152,4.1016,4.1016,4.0781,4.0351,4.0196,3.9766,3.9043,3.8926,3.8457,3.7861,3.9149,3.9172,3.8497,3.9806,4.0051,3.9649,3.9204,4.0648,4.2428,0.0,0.0,0.0,0.0,0.0,0.0,0.0,0.0,0.0,0.0,0.0,0.0,0.0,0.0,0.0,0.0,0.0,0.0,0.0,3.0357,3.0353,2.9634,3.016,3.0217,2.9702,2.9456,2.9511,2.9919,2.9973,3.0157,3.0502,3.084,3.1083,3.1282,3.2178,3.2611,3.2729,3.3557,3.3974,0.0,0.0,3.1765,3.0432,2.906,2.6988,2.4744,2.4035,2.3056,2.2149,2.2667,2.2485,2.2274,2.3588,2.4834,2.6465,2.9664,3.209,3.4473,3.7707,3.927,4.0313,4.1714,4.2109,4.1992,4.1387,4.0937,4.0351,3.9258,3.8184,3.7226,3.6523,3.7422,3.8516,3.9199,4.1113,4.2891,4.3945,4.4141,4.4199,4.4277,4.4121,4.4004,4.4004,4.3574,4.4237,4.6602,4.6468,4.6485,4.686,4.6507,4.4896,4.1837,4.1543,4.1367,4.1211,4.1387,4.1348,4.1211,4.1211,4.1035,4.0801,4.0567,4.0216,3.9766,3.959,3.9121,3.8549,3.9428,3.9818,3.9857,3.9939,4.0127,4.0269,3.9223,3.9975,4.1155,0.0,0.0,0.0,0.0,0.0,0.0,0.0,0.0,0.0,0.0,0.0,0.0,0.0,0.0,0.0,0.0,0.0,0.0,0.0,0.0,3.008,3.0462,3.0055,3.0005,3.0462,2.9533,2.9155,2.9445,2.9062,2.9195,2.9823,2.989,3.0114,3.054,3.2323,3.2911,3.26,3.4729,3.4491,3.2648,3.2323,3.0542,2.7911,0.0,2.4985,2.3548,2.2521,2.2235,2.2376,2.254,2.3018,2.3851,2.5616,2.7381,2.9777,3.468,3.6829,3.8306,4.1267,4.2363,4.2716,4.2919,4.2704,4.2211,4.1224,4.0316,3.9315,3.8005,3.6801,3.5991,3.6051,3.6995,3.804,3.8961,4.0661,4.2402,4.3926,4.3769,4.3945,4.5094,4.5199,4.5092,4.5092,4.5326,4.6328,4.8379,4.6812,4.5778,4.5788,4.5526,4.4466,4.2462,4.2606,4.2269,4.1387,4.1955,4.1915,4.1289,4.125,4.1211,4.1211,4.0781,4.0586,4.0469,4.0137,3.9726,3.9258,3.918,3.9768,4.0578,3.8864,3.8828,3.961,3.8043,3.8153,3.8832,0.0,0.0,0.0,0.0,0.0,0.0,0.0,0.0,0.0,0.0,2.8119,2.7602,0.0,0.0,0.0,0.0,0.0,0.0,0.0,0.0,0.0,2.9955,2.9854,2.9829,2.993,2.9754,2.9662,2.9722,3.0087,3.0331,3.0446,3.0904,3.115,3.1227,3.2049,3.2354,3.2237,3.1804,3.1558,3.1305,2.9317,2.7672,2.6349,2.5726,0.0,0.0,2.0558,2.1304,2.2976,2.5105,2.6246,2.7043,2.834,3.2116,3.64,3.7961,4.0135,4.2217,4.3121,4.3711,4.436,4.5696,4.5954,4.5457,4.3971,4.2869,4.1172,3.7652,3.6426,3.6068,3.6362,3.6683,3.794,4.1154,4.2003,4.3221,4.5953,4.6016,4.5957,4.6479,4.7928,4.8836,4.8688,5.013,5.1895,5.3882,5.0165,4.7474,4.6718,4.5844,4.4466,4.2462,4.5726,4.5796,4.2207,4.3661,4.3478,4.168,4.1387,4.1211,4.1211,4.1132,4.0859,4.0527,4.0449,4.0176,3.9878,4.1298,4.1601,4.1221,4.234,4.2406,4.1816,4.1537,4.1539,4.144,0.0,0.0,0.0,0.0,0.0,0.0,0.0,0.0,2.896,3.1226,3.0768,3.0233,3.0233,3.0457,0.0,0.0,0.0,0.0,0.0,0.0,0.0,0.0,3.0231,3.008,2.9804,3.008,3.0231,3.0231,0.0,3.0588,3.0588,3.0583,3.0577,3.0583,3.1135,3.088,3.0082,3.0361,2.974,2.8455,2.725,2.606,2.4879,0.0,0.0,0.0,2.2466,2.3563,2.4902,2.6607,2.9102,3.17,3.2957,3.5756,3.8926,4.0642,4.2241,4.3782,4.5592,4.6471,4.7175,4.8541,4.7896,4.6251,4.3558,4.14,3.9,3.567,3.5,3.5008,3.4917,3.5898,3.735,3.9361,4.0666,4.2362,4.5215,4.5625,4.6035,4.7129,4.9171,5.0437,5.0394,5.2026,5.3138,5.3158,5.0367,4.883,4.922,4.7765,4.5736,4.3146,4.6426,4.6419,4.2814,4.3559,4.3219,4.1797,4.1601,4.1387,4.1211,4.1211,4.1055,4.0859,4.0859,4.0625,4.0291,4.1138,4.1682,4.1895,4.1573,4.1615,4.1684,4.0506,3.993,3.9735,0.0,0.0,0.0,0.0,0.0,0.0,0.0,2.9832,3.058,3.3261,3.3119,3.2771,3.2896,3.2114,3.1361,0.0,0.0,0.0,0.0,0.0,0.0,0.0,0.0,0.0,2.998,0.0,0.0,3.0939,3.0834,0.0,0.0,0.0,0.0,0.0,3.0343,2.9682,2.8471,2.9194,2.8254,0.0,0.0,2.51,2.4189,0.0,0.0,0.0,0.0,2.6044,2.6912,2.8026,3.1354,3.5244,3.6552,3.8414,4.0544,4.2541,4.4003,4.5543,4.8046,4.9489,5.0532,5.1548,4.9879,4.7068,4.3465,4.0185,3.7119,3.4381,3.4043,3.423,3.4195,3.5467,3.6857,3.7797,3.9225,4.1366,4.4628,4.5485,4.655,4.8772,5.0779,5.1914,5.1828,5.3137,5.358,5.2585,5.1546,5.0633,5.0055,4.936,4.7423,4.4087,4.7374,4.7286,4.34,4.3731,4.3297,4.207,4.1973,4.1719,4.1348,4.1348,4.1522,4.183,4.183,4.1862,4.1903,4.1903,4.2501,4.3255,4.142,4.1374,4.2018,4.0213,3.9353,3.9277,0.0,0.0,0.0,0.0,0.0,0.0,0.0,3.1618,3.2714,3.4981,3.4803,3.4653,3.5132,3.3348,3.1913,0.0,0.0,0.0,0.0,0.0,0.0,0.0,0.0,0.0,0.0,0.0,0.0,3.2043,3.1562,0.0,0.0,0.0,0.0,0.0,0.0,2.9729,2.9321,2.7481,0.0,0.0,0.0,0.0,0.0,0.0,0.0,0.0,0.0,2.6557,2.8139,3.0063,3.2492,3.4982,3.6301,3.9735,4.3269,4.3143,4.6019,4.9363,5.0016,5.2128,5.4258,5.4834,5.2704,4.9623,4.6438,4.2718,3.9033,3.587,3.4902,3.5066,3.6502,3.6369,3.6926,3.9583,3.9614,4.1193,4.6631,4.7855,4.9571,5.3329,5.4396,5.4657,5.4148,5.4588,5.5507,5.6978,5.7084,5.3724,4.5992,4.9074,4.9194,4.5029,5.0814,5.085,4.4319,4.5719,4.531,4.299,4.2558,4.2148,4.1738,4.1738,4.2499,4.3832,4.3832,4.4806,4.6374,4.6374,4.6255,4.6028,4.5803,4.5577,4.5287,4.5065,4.495,4.4807,0.0,0.0,0.0,0.0,0.0,0.0,3.1651,3.2043,3.3119,3.5705,3.5531,3.5531,3.6433,3.513,3.3574,0.0,0.0,0.0,0.0,0.0,0.0,0.0,0.0,0.0,0.0,0.0,3.1637,3.2742,3.1838,0.0,0.0,0.0,0.0,0.0,0.0,2.8867,2.7459,2.6805,0.0,0.0,0.0,0.0,0.0,0.0,0.0,0.0,0.0,0.0,2.9915,3.0937,3.2457,3.3984,3.4258,3.7778,4.2037,4.341,4.5906,4.9054,5.2832,5.544,5.6882,5.6086,5.3462,4.9884,4.5267,4.1248,3.78,3.5459,3.5059,3.5218,3.5608,3.566,3.6082,3.7482,3.8624,4.0673,4.4506,4.6425,4.8868,5.2791,5.4701,5.61,5.7228,5.8492,5.8852,5.7891,5.6861,5.4671,5.0995,5.3333,5.3107,4.9502,5.1873,5.1257,4.719,4.622,4.5091,4.3867,4.3418,4.2969,4.2539,4.2031,4.2112,4.2712,4.245,4.279,4.3532,4.3532,4.3428,4.3242,4.2952,4.2725,4.2703,4.3598,4.394,4.422,0.0,0.0,0.0,0.0,0.0,3.0783,3.1993,3.2365,3.3395,3.6055,3.5881,3.5882,3.6859,3.5782,3.4402,3.2821,0.0,0.0,0.0,0.0,0.0,0.0,0.0,0.0,0.0,0.0,3.2265,3.3571,3.2591,3.2692,0.0,0.0,3.1266,3.0278,0.0,0.0,0.0,0.0,0.0,0.0,0.0,0.0,0.0,0.0,0.0,0.0,0.0,0.0,0.0,0.0,0.0,3.3955,3.4156,3.6905,4.0444,4.2608,4.596,4.9974,5.4702,5.7278,5.8295,5.6802,5.3359,4.9033,4.4246,4.011,3.6875,3.5391,3.5254,3.5332,3.5117,3.5351,3.5684,3.5942,3.7575,4.0014,4.3641,4.5882,4.8787,5.329,5.4827,5.634,5.8409,6.0194,6.0384,5.8467,5.7794,5.7243,5.6796,5.7208,5.5993,5.2839,5.3188,5.2034,4.9028,4.712,4.5639,4.457,4.4121,4.3691,4.3283,4.3002,4.3134,4.3537,4.3718,4.3777,4.3777,4.3777,4.3456,4.2864,4.2558,4.2792,4.3368,4.3863,4.4772,4.6047,0.0,0.0,0.0,0.0,0.0,0.0,0.0,3.2713,3.3894,3.6128,3.5881,3.5732,3.6331,3.4924,3.3897,3.3872,0.0,0.0,0.0,0.0,0.0,0.0,0.0,0.0,0.0,0.0,3.2997,3.4678,3.4148,3.4427,3.5435,3.3567,3.246,3.1938,0.0,0.0,0.0,0.0,0.0,0.0,0.0,0.0,0.0,0.0,0.0,0.0,0.0,0.0,0.0,0.0,0.0,0.0,0.0,3.8171,3.9157,4.0388,4.6572,5.3395,5.4987,5.6912,5.8284,5.7255,5.2444,4.7164,4.4259,4.0334,3.7051,3.6191,3.5684,3.5527,3.5903,3.5982,3.6016,3.5982,3.6738,3.9358,4.5268,4.73,5.0378,5.6253,5.546,5.5091,5.676,5.8361,5.9307,5.9307,6.1408,6.249,6.1938,5.9728,5.7028,5.3808,5.5282,5.384,4.9028,4.8986,4.7603,4.4977,4.459,4.4141,4.3754,4.4837,4.6193,4.7708,4.9243,4.989,4.989,4.989,4.8722,4.6919,4.6919,4.8158,4.9677,4.7686,4.9439,5.2425,0.0,0.0,0.0,0.0,0.0,0.0,0.0,3.2139,3.3144,3.5002,3.5079,3.5305,3.6281,3.5554,3.4981,3.4981,0.0,0.0,0.0,0.0,0.0,0.0,0.0,0.0,0.0,0.0,3.342,3.4703,3.325,3.3061,3.41,3.2203,3.0809,2.9812,2.8858,2.7959,0.0,0.0,0.0,0.0,0.0,0.0,3.0054,0.0,0.0,0.0,0.0,0.0,0.0,0.0,0.0,0.0,0.0,0.0,0.0,4.153,4.5511,5.0146,5.2956,5.4128,5.3989,5.1439,4.798,4.4357,4.0958,3.8687,3.7129,3.6582,3.6401,3.6387,3.6816,3.7929,3.8594,3.7869,4.0108,4.2849,4.5393,4.819,5.1714,5.645,5.921,6.0792,6.0915,6.1771,6.2141,6.1705,6.2388,6.2706,6.2571,5.9988,5.7881,5.6472,5.3619,5.1377,4.9825,4.8034,4.6733,4.5898,4.703,4.7462,4.734,4.8291,4.8963,4.9378,4.8805,4.8562,4.8429,4.6707,4.5589,4.4902,4.3549,4.3418,4.4079,4.4752,4.5812,4.7153,0.0,0.0,0.0,0.0,0.0,0.0,0.0,3.1687,3.2441,3.3922,3.4098,3.4525,3.5653,3.5253,3.4979,3.5182,0.0,0.0,0.0,0.0,0.0,0.0,0.0,0.0,0.0,3.3316,3.3632,3.4175,3.3216,3.3029,3.3497,3.1806,3.0442,2.932,2.8834,2.8009,0.0,0.0,0.0,0.0,0.0,0.0,3.0898,0.0,0.0,0.0,0.0,0.0,0.0,0.0,0.0,0.0,0.0,0.0,0.0,0.0,4.4707,4.7531,5.153,5.2394,5.1578,4.9042,4.619,4.3101,3.9815,3.8144,3.7226,3.6988,3.6812,3.6832,3.7226,3.8282,3.8827,3.8203,4.0288,4.262,4.4298,4.7736,5.1961,5.705,6.0839,6.2822,6.227,6.3099,6.345,6.2832,6.2781,6.2781,6.2781,5.9464,5.7743,5.8314,5.4012,5.1316,5.0474,4.8673,4.7752,4.7775,4.7772,4.863,5.0255,5.0104,5.0103,5.0113,4.9487,4.8358,0.0,4.507,4.3912,4.309,4.1716,4.1657,4.235,4.2808,4.3907,4.5441,0.0,0.0,0.0,0.0,0.0,0.0,0.0,0.0,3.1738,3.2889,3.304,3.342,3.4477,3.4173,3.4123,3.4653,0.0,0.0,0.0,0.0,0.0,0.0,0.0,0.0,0.0,3.3533,3.3633,3.3361,3.3735,3.3736,3.3418,3.2077,3.1016,3.0177,2.8907,2.7891,0.0,0.0,0.0,0.0,0.0,0.0,0.0,0.0,0.0,0.0,0.0,0.0,0.0,0.0,0.0,0.0,0.0,0.0,0.0,0.0,0.0,0.0,0.0,5.1066,5.013,4.9028,4.6031,4.2748,4.0198,3.8398,0.0,3.7285,3.6992,3.6855,3.7344,3.7649,3.772,3.7496,3.8485,4.0185,4.2721,4.6839,5.1915,5.8172,6.0839,6.1943,6.1316,6.2722,6.345,6.2832,6.2781,6.2781,6.2781,5.8568,5.7134,5.9222,5.6068,5.3316,5.1262,5.0713,5.046,5.0396,4.7721,4.8587,5.2529,5.1109,5.0394,5.0381,5.1161,4.9291,4.5577,4.4957,4.3633,4.1896,4.1406,4.2311,4.3642,4.1869,4.357,4.6514,0.0,0.0,0.0,0.0,0.0,0.0,0.0,0.0,0.0,0.0,3.2416,3.2692,3.3416,3.3721,3.4123,0.0,0.0,0.0,0.0,0.0,0.0,0.0,0.0,0.0,0.0,3.2818,3.2883,3.4001,3.2012,3.1398,3.2023,3.0702,2.996,2.9734,2.9043,2.8652,0.0,0.0,0.0,0.0,0.0,0.0,0.0,0.0,0.0,0.0,3.0898,3.2448,0.0,0.0,0.0,0.0,0.0,0.0,0.0,0.0,4.389,4.4543,4.7004,0.0,4.3462,4.3175,4.0713,3.8125,0.0,3.6875,3.6949,3.7226,3.7226,3.748,3.8555,4.0803,4.1805,3.964,4.3056,4.5909,4.5598,5.1801,5.7611,6.086,6.2797,6.335,6.1943,6.2948,6.345,6.2832,6.2781,6.2781,6.2781,6.0069,5.8757,5.9264,5.6839,5.5082,5.4208,5.3325,5.2884,5.2904,5.3446,5.4274,5.5322,5.6187,5.553,5.356,5.2944,5.0822,4.7613,4.5571,4.4252,4.3389,4.1831,4.1463,4.183,4.1366,4.2713,4.4715,0.0,0.0,0.0,0.0,0.0,0.0,0.0,0.0,0.0,0.0,0.0,0.0,0.0,0.0,0.0,0.0,0.0,0.0,0.0,0.0,0.0,0.0,0.0,0.0,3.2981,3.2135,3.2021,3.2641,3.141,3.0954,3.1248,3.0526,3.0087,2.9872,2.9414,0.0,0.0,0.0,0.0,0.0,3.0781,0.0,0.0,0.0,0.0,0.0,3.1652,3.3338,0.0,3.6984,3.9192,4.1475,0.0,0.0,0.0,0.0,4.2907,4.2585,4.3742,4.335,4.2596,4.2241,4.0341,3.8231,3.7108,3.6777,3.6832,3.7207,3.7305,3.7578,3.8457,4.0396,4.1363,3.9827,4.2481,4.5632,4.8216,5.3618,5.8659,6.2324,6.3818,6.417,6.3224,6.3701,6.3701,6.2857,6.2781,6.2781,6.2781,6.0594,5.9793,6.0886,5.8672,5.6868,5.5539,5.4532,5.4542,5.5537,5.4968,5.5775,5.7692,5.6308,5.4792,5.3207,5.1327,4.8828,4.5911,4.43,4.3403,4.292,4.1697,4.1211,4.1211,4.1211,4.1869,4.279,0.0,0.0,0.0,0.0,0.0,0.0,0.0,0.0,0.0,0.0,0.0,0.0,0.0,0.0,0.0,0.0,0.0,0.0,0.0,0.0,0.0,0.0,0.0,3.2345,3.176,3.1295,3.1012,3.0814,3.1137,3.1162,3.0898,3.0898,3.0644,3.0176,2.9931,0.0,0.0,0.0,0.0,0.0,3.0898,0.0,0.0,0.0,0.0,0.0,0.0,0.0,0.0,3.8308,4.0337,4.2235,4.2537,0.0,0.0,0.0,0.0,0.0,4.107,4.2373,4.341,4.2649,4.1246,3.9665,3.7992,3.709,3.6734,3.7109,3.7246,3.7461,3.7991,3.893,3.9682,3.9937,4.1314,4.4792,5.1767,5.4933,5.8328,6.3118,6.4195,6.4446,6.427,6.427,6.3827,6.2857,6.2781,6.2781,6.2781,6.0594,6.0194,6.2199,5.9985,5.784,5.5922,5.5302,5.5942,5.7655,5.4495,5.5136,5.8851,5.4279,5.1818,5.0956,4.8627,4.5923,4.3047,4.2598,4.2148,4.1758,4.1387,4.1211,4.1211,4.1211,4.1385,4.1657,0.0,0.0,0.0,0.0,0.0,0.0,0.0,0.0,0.0,0.0,0.0,0.0,0.0,0.0,0.0,0.0,0.0,0.0,0.0,0.0,0.0,0.0,3.2694,3.1809,3.1073,2.9851,2.9779,3.0967,3.0253,3.0246,3.0898,3.0898,3.0644,3.0215,3.0547,3.0469,3.0098,0.0,0.0,0.0,3.0898,0.0,0.0,0.0,0.0,0.0,0.0,0.0,0.0,3.7807,3.9726,4.2062,4.1153,0.0,0.0,0.0,0.0,0.0,4.0115,4.0157,3.9635,3.8899,3.8016,3.7139,3.6455,3.6211,3.625,3.6714,3.7051,3.7656,3.8789,4.042,4.2001,4.3294,4.7596,5.2826,5.8837,6.0467,6.1696,6.3484,6.4195,6.4103,6.3174,6.3073,6.2998,6.2807,6.2781,6.2781,6.2781,6.0594,5.9499,5.9835,5.7606,5.627,5.5879,5.7218,5.7816,5.7655,5.4819,5.4605,5.663,5.3978,5.1334,4.8767,4.8374,4.625,4.3047,4.2598,4.2148,4.1758,4.1387,4.1211,4.1211,4.1211,4.2234,4.3642,0.0,0.0,0.0,0.0,0.0,0.0,0.0,0.0,0.0,0.0,0.0,0.0,0.0,0.0,0.0,0.0,0.0,0.0,0.0,0.0,0.0,3.1867,3.1152,3.0592,3.0147,2.9291,2.9427,3.059,3.0399,3.0752,3.1612,3.1348,3.0996,3.0586,3.0801,3.0625,3.0215,0.0,0.0,0.0,0.0,0.0,0.0,0.0,0.0,0.0,0.0,0.0,0.0,0.0,3.9682,4.033,3.987,0.0,0.0,0.0,0.0,0.0,3.7375,3.7283,3.7025,3.691,3.7302,3.7672,3.7441,3.7051,3.6836,3.7266,3.75,3.7949,3.9004,4.0694,4.3006,4.6421,5.0075,5.4116,5.8895,6.0725,6.2094,6.3525,6.3902,6.3852,6.335,6.3299,6.3174,6.2807,6.1639,6.0886,6.0886,5.8715,5.7478,5.7478,5.6443,5.5268,5.3992,5.4541,5.5212,5.5915,5.4326,5.3912,5.4354,5.2135,5.0096,4.8252,4.7047,4.5056,4.2715,4.25,4.2051,4.1445,4.1289,4.1211,4.1211,4.1211,4.1753,4.2522,0.0,0.0,0.0,0.0,0.0,0.0,0.0,0.0,0.0,0.0,0.0,0.0,0.0,0.0,0.0,0.0,0.0,0.0,0.0,0.0,3.2417,3.0385,2.9787,2.9456,2.9353,2.9066,2.9569,3.096,3.1518,3.2196,3.2954,3.2535,3.191,3.1035,3.1035,3.0781,3.0391,3.0742,3.0898,0.0,0.0,0.0,0.0,0.0,0.0,0.0,0.0,0.0,0.0,0.0,0.0,0.0,0.0,0.0,0.0,3.658,3.5583,3.4704,3.4984,3.5236,3.5488,3.5884,3.709,3.8278,3.8669,3.8144,3.7754,3.8281,3.8421,3.8694,3.9394,4.1864,4.5179,4.9455,5.2604,5.5806,5.9343,6.1202,6.2621,6.3902,6.3952,6.3827,6.3701,6.3576,6.3299,6.2832,6.1159,6.0111,6.0111,5.7435,5.5879,5.5879,5.4829,5.3393,5.1597,5.1225,5.19,5.3592,5.2513,5.2075,5.2052,4.9828,4.8332,4.7443,4.5763,4.406,4.2578,4.2461,4.1992,4.1348,4.125,4.1211,4.1211,4.1211,4.1211,4.1211,0.0,0.0,0.0,0.0,0.0,0.0,0.0,0.0,0.0,0.0,0.0,0.0,0.0,0.0,0.0,0.0,0.0,0.0,0.0,0.0,3.0121,3.0286,2.9427,2.8964,2.8937,2.8914,3.0316,3.3156,3.4004,3.4669,3.5152,3.499,3.3696,3.1465,3.1465,3.123,3.084,3.0879,3.0898,0.0,0.0,0.0,0.0,0.0,0.0,0.0,0.0,0.0,0.0,0.0,0.0,0.0,0.0,0.0,3.5345,3.5173,3.4096,3.3234,3.4412,3.506,3.5488,3.5884,3.6406,3.7262,3.8789,3.8809,3.873,3.957,4.0059,4.0313,4.0372,4.5514,5.0322,5.2259,5.7476,6.213,6.447,6.4897,6.5032,6.5157,6.4773,6.427,6.3726,6.3199,6.2832,6.2781,6.2659,6.2552,6.2552,5.8313,5.5879,5.5879,5.1688,4.9308,4.917,4.9131,4.9794,5.1111,4.8574,4.8261,4.9744,4.7554,4.6036,4.5232,4.5062,4.4277,4.3008,4.2598,4.2168,4.1719,4.1367,4.1211,4.1211,4.1211,4.1211,4.1211,0.0,0.0,0.0,0.0,0.0,0.0,0.0,0.0,0.0,0.0,0.0,0.0,0.0,0.0,0.0,0.0,0.0,0.0,0.0,0.0,2.9507,2.9092,2.8962,2.9434,3.0547,3.1607,3.2952,3.4651,3.6489,3.666,3.5285,3.493,3.3601,3.1474,3.125,3.1035,3.0898,3.0898,3.0898,3.0898,0.0,0.0,0.0,0.0,0.0,0.0,0.0,0.0,0.0,0.0,3.5592,3.459,3.4461,3.3922,3.3276,3.2925,3.2623,3.2609,3.332,3.4434,3.5488,3.5884,3.6953,3.82,3.9355,3.9707,4.0098,4.123,4.1816,4.2187,4.2461,4.6615,5.0895,5.3555,5.8116,6.2181,6.4487,6.5082,6.5032,6.4379,6.4103,6.3776,6.3199,6.2907,6.2781,6.2781,6.1474,5.9985,5.8502,5.542,5.3036,5.1577,4.9839,4.8913,4.8913,4.8366,4.8342,4.886,4.7849,4.7396,4.7511,4.6682,4.584,4.4977,4.4977,4.4277,4.3047,4.2598,4.2148,4.1758,4.1387,4.1211,4.1211,4.1211,4.1211,4.1211,0.0,0.0,0.0,0.0,0.0,0.0,0.0,0.0,0.0,0.0,0.0,0.0,0.0,0.0,0.0,0.0,0.0,0.0,2.8323,2.8607,2.8608,2.8119,2.9045,3.0289,3.182,3.4218,3.5804,3.659,3.8731,3.8447,3.5951,3.4948,3.3498,3.1699,3.1133,3.0957,3.1074,3.0937,3.117,3.1594,3.1594,3.2473,0.0,0.0,0.0,0.0,0.0,0.0,0.0,0.0,3.3905,3.281,3.2818,3.2533,3.214,3.1816,3.2129,3.2617,3.291,3.3965,3.5117,3.5684,3.6914,3.8415,3.9941,4.084,4.1738,4.3164,4.3359,4.3418,4.3848,4.7506,5.1404,5.4078,5.8625,6.2452,6.4262,6.4823,6.4705,6.3802,6.3701,6.3475,6.2857,6.2781,6.247,6.1763,6.0194,5.8266,5.5943,5.3638,5.1667,5.0048,4.9308,4.8835,4.8698,4.8066,4.7637,4.7383,4.7383,4.6992,4.6308,4.6308,4.584,4.4977,4.4977,4.4277,4.3047,4.2598,4.2109,4.1562,4.1328,4.1211,4.1211,4.1211,4.1211,4.1211,0.0,0.0,0.0,0.0,0.0,0.0,0.0,0.0,0.0,0.0,0.0,0.0,0.0,0.0,0.0,0.0,0.0,0.0,2.8157,2.7442,2.7233,2.7689,2.9829,3.1467,3.2398,3.6287,3.8554,3.9106,4.0621,4.0077,3.7513,3.5457,3.3662,3.2159,3.1299,3.1133,3.1484,3.1074,3.1738,3.3077,3.3077,3.3957,0.0,0.0,0.0,0.0,0.0,0.0,0.0,0.0,3.2458,3.1035,3.1925,3.2198,3.2218,3.2198,3.2754,3.3386,3.3386,3.375,3.4329,3.5176,3.6089,3.7535,4.0546,4.2168,4.3615,4.5375,4.4648,4.3867,4.4336,4.8613,5.2483,5.3871,5.9515,6.3877,6.4421,6.4496,6.432,6.3751,6.3676,6.345,6.2832,6.2781,6.1829,5.9475,5.9307,5.829,5.6009,5.3638,5.2387,5.2387,5.0094,4.8652,4.8203,4.8203,4.7773,4.6889,4.6889,4.6699,4.6308,4.6308,4.584,4.4977,4.4977,4.4277,4.3087,4.2617,4.1933,4.1211,4.1211,4.1211,4.1211,4.123,4.123,4.1211,0.0,0.0,0.0,0.0,0.0,0.0,0.0,0.0,0.0,0.0,0.0,0.0,0.0,0.0,0.0,0.0,0.0,0.0,2.6992,2.7512,2.8074,2.8601,3.07,3.2456,3.377,3.6041,3.8006,3.9734,4.0569,3.8943,3.4984,3.4659,3.3364,3.1299,3.1309,3.123,3.1074,3.0937,3.1141,3.1556,3.1556,3.2444,0.0,0.0,0.0,0.0,0.0,0.0,0.0,0.0,0.0,0.0,3.1191,3.209,3.2871,3.1973,3.2734,3.375,3.3144,3.3965,3.5137,3.5703,3.7851,4.035,4.2149,4.2853,4.3869,4.6465,4.623,4.5566,4.5723,5.0188,5.3859,5.3949,5.945,6.3601,6.335,6.3676,6.3726,6.3149,6.3099,6.3023,6.2807,6.2781,6.1829,5.9475,5.9307,5.7583,5.3638,5.2768,5.1622,5.0002,4.9262,4.8652,4.8203,4.791,4.748,4.6889,4.6621,4.6426,4.6308,4.6308,4.584,4.4977,4.4977,4.4453,4.3457,4.2734,4.1933,4.125,4.1504,4.1621,4.166,4.1953,4.1875,4.1621,0.0,0.0,0.0,0.0,0.0,0.0,0.0,0.0,0.0,0.0,0.0,0.0,0.0,0.0,0.0,0.0,0.0,0.0,0.0,2.7785,2.8679,2.971,3.1661,3.3583,3.5478,3.655,3.7243,3.7551,3.7895,3.642,3.331,3.3314,3.2632,3.1436,3.166,3.1641,3.1416,3.1211,3.1366,3.1767,3.1767,3.2322,3.2992,0.0,0.0,0.0,0.0,0.0,0.0,0.0,0.0,0.0,3.0898,3.1699,3.2547,3.2148,3.2871,3.3848,3.4023,3.4844,3.5918,3.7012,3.9121,4.1484,4.3613,4.4629,4.5683,4.7721,4.7266,4.6949,4.8233,5.1681,5.4655,5.5647,6.0068,6.3224,6.2832,6.3124,6.3224,6.2832,6.2781,6.2781,6.2781,6.1952,6.0469,5.8119,5.7111,5.4939,5.1191,5.1009,5.0267,4.864,4.8594,4.8301,4.7715,4.7441,4.7109,4.668,4.6426,4.6308,4.6308,4.6308,4.584,4.4957,4.4648,4.4101,4.3418,4.2891,4.2285,4.1699,4.1953,4.1953,4.1855,4.2226,4.2051,4.1562,0.0,0.0,0.0,0.0,0.0,0.0,0.0,0.0,0.0,0.0,0.0,0.0,0.0,0.0,0.0,0.0,0.0,0.0,0.0,0.0,2.9308,3.1019,3.2839,3.4848,3.7042,3.7242,3.6097,3.3532,3.3703,3.3232,3.2184,3.1718,3.1738,3.214,3.2179,3.2179,3.2101,3.1601,3.1973,3.2907,3.2837,3.2866,3.2879,3.2879,0.0,0.0,0.0,0.0,0.0,0.0,0.0,0.0,3.0898,3.123,3.1777,3.248,3.3105,3.3913,3.5455,3.6001,3.6699,3.8789,4.0195,4.1894,4.5156,4.7129,4.8359,4.8776,4.7891,4.8018,5.1191,5.3037,5.5097,5.8243,6.1006,6.2781,6.2781,6.2781,6.2781,6.2781,6.2781,6.2781,6.2781,6.0678,5.8375,5.6053,5.3748,5.1351,4.8973,4.8855,4.8594,4.8164,4.8144,4.7754,4.6889,4.6889,4.6719,4.6308,4.6308,4.6308,4.6308,4.6269,4.5781,4.4879,4.4062,4.3457,4.3127,4.3127,4.2812,4.2382,4.2461,4.2226,4.1914,4.2284,4.1953,4.1328,0.0,0.0,0.0,0.0,0.0,0.0,0.0,0.0,0.0,0.0,0.0,0.0,0.0,0.0,0.0,0.0,0.0,0.0,0.0,0.0,3.1623,3.2418,3.5014,3.6309,3.6095,3.5121,3.3647,3.1598,3.245,3.2119,3.0679,3.124,3.1562,3.168,3.2042,3.2003,3.1601,3.082,3.0827,3.1343,3.0985,3.1045,3.1354,3.1354,3.117,0.0,0.0,0.0,0.0,0.0,0.0,0.0,3.0898,3.1641,3.2422,3.1934,3.3301,3.4961,3.498,3.623,3.7913,3.9747,4.2676,4.5508,4.7266,4.8203,4.8698,4.8398,4.8398,4.9253,5.1795,5.4018,5.6271,5.8756,6.121,6.2781,6.2781,6.2781,6.2781,6.2781,6.2781,6.2781,6.2781,6.0678,5.8375,5.6053,5.3748,5.1207,4.8496,4.834,4.8144,4.7734,4.7715,4.7461,4.6889,4.6889,4.6719,4.6308,4.6308,4.6308,4.6289,4.5957,4.5351,4.4492,4.3945,4.3457,4.3127,4.3127,4.2812,4.2421,4.2812,4.2676,4.2344,4.2773,4.2402,4.168,0.0,0.0,0.0,0.0,0.0,0.0,0.0,0.0,0.0,0.0,0.0,0.0,0.0,0.0,0.0,0.0,0.0,0.0,0.0,0.0,3.2709,3.4085,3.5476,3.5891,3.5169,3.3417,3.1894,3.0658,3.0599,3.0331,2.995,3.0566,3.1113,3.1494,3.1758,3.1621,3.1172,3.0488,3.0332,3.0527,3.0293,3.0351,3.0566,3.0566,3.0566,3.0566,3.0566,0.0,0.0,0.0,0.0,0.0,0.0,0.0,3.1953,3.2324,3.3347,3.4707,3.5918,3.7539,3.9531,4.2305,4.4805,4.6875,4.7969,4.8535,4.8835,4.8574,4.8737,4.9957,5.3371,5.5049,5.7005,6.0427,6.1993,6.2781,6.2781,6.2781,6.2781,6.2781,6.2781,6.2347,6.1242,5.9035,5.6632,5.4062,5.1738,4.9663,4.802,4.791,4.7715,4.7285,4.7266,4.707,4.6641,4.6426,4.6328,4.6308,4.6094,4.5898,4.5683,4.5469,4.4883,4.4043,4.3594,4.3281,4.3127,4.3127,4.3066,4.3066,4.3281,4.3125,4.2793,4.3223,4.2715,4.1855,0.0,0.0,0.0,0.0,0.0,0.0,0.0,0.0,0.0,0.0,0.0,0.0,0.0,0.0,0.0,0.0,0.0,0.0,0.0,0.0,0.0,3.5234,3.5259,3.4807,3.3978,3.2062,3.0758,3.0062,2.8887,2.8809,2.9833,3.0078,3.0664,3.1504,3.1445,3.1211,3.0859,3.0234,3.0019,3.0078,3.0,3.0019,3.0098,0.0,0.0,3.0195,3.0195,3.0488,3.0898,3.0898,0.0,0.0,0.0,0.0,3.1289,3.2773,3.3359,3.4121,3.6758,3.8828,4.1113,4.4766,4.6367,4.7266,4.8125,4.8594,4.8913,4.8913,4.8913,5.0302,5.4939,5.5813,5.7326,6.2035,6.2706,6.2681,6.2781,6.2706,6.2681,6.2781,6.2781,6.187,5.9517,5.7171,5.4675,5.1915,4.9442,4.791,4.75,4.7461,4.7266,4.6792,4.6816,4.6621,4.6191,4.5918,4.5918,4.6191,4.584,4.5449,4.4977,4.4961,4.4473,4.3691,4.334,4.3183,4.3183,4.3183,4.3398,4.3711,4.3711,4.3437,4.3166,4.3476,4.2871,4.2012,0.0,0.0,0.0,0.0,0.0,0.0,0.0,0.0,0.0,0.0,0.0,0.0,0.0,0.0,0.0,0.0,0.0,0.0,3.2866,0.0,0.0,3.4534,3.4962,3.4229,3.2201,3.146,3.0446,2.91,2.8538,2.9121,3.0703,0.0,3.0664,3.1474,3.1133,3.0937,3.082,2.9609,2.9316,2.9657,2.9238,2.9316,2.9676,0.0,0.0,3.0195,3.0195,3.0488,3.0898,3.0898,3.0898,0.0,0.0,0.0,3.1562,3.2198,3.3156,3.4271,3.541,3.8574,4.2207,4.498,4.6601,4.7715,4.862,4.8855,4.8913,4.8913,4.8913,5.0302,5.4939,5.5813,5.7326,6.2035,6.2421,6.2295,6.2731,6.2421,6.2295,6.2731,6.2781,6.187,5.9517,5.685,5.43,5.1894,4.9206,4.748,4.7051,4.6967,4.6816,4.6406,4.6387,4.6191,4.5762,4.6055,4.6055,4.5762,4.5746,4.5449,4.4977,4.4648,4.4199,4.3691,4.3652,4.3613,4.3613,4.3613,4.3652,4.3711,4.3711,4.3437,4.3127,4.3144,4.2812,4.2363,0.0,0.0,0.0,0.0,0.0,0.0,0.0,0.0,0.0,0.0,0.0,0.0,0.0,0.0,0.0,3.1112,3.1843,3.2627,3.3498,3.3576,3.3665,3.3886,3.2976,3.1987,3.0969,2.9788,2.8993,2.8574,2.8171,2.8973,0.0,3.0918,3.1406,0.0,0.0,0.0,0.0,2.9375,2.9023,2.9199,2.8976,2.918,0.0,0.0,0.0,0.0,0.0,0.0,3.0898,3.0898,3.0898,3.0898,3.0898,0.0,0.0,0.0,3.2922,3.4316,3.7148,3.9648,4.2187,4.5254,4.6445,4.7207,4.86,4.8913,4.8913,4.8913,4.8913,4.9831,5.294,5.4542,5.6485,5.9926,6.1076,6.1743,6.2295,6.2169,6.2094,6.2345,6.237,6.0924,5.7357,5.5646,5.3146,4.9311,4.7865,4.7031,4.6601,4.6582,4.6387,4.5976,4.6172,4.6113,4.5683,4.5859,4.5742,4.5312,4.5078,4.5458,4.6327,4.4721,4.3769,4.3359,4.3359,4.3359,4.3359,4.3359,4.3496,4.3711,4.3711,4.3594,4.3437,4.3437,4.3164,4.2832,0.0,0.0,0.0,0.0,0.0,0.0,0.0,0.0,0.0,0.0,0.0,0.0,0.0,0.0,0.0,0.0,3.2547,3.3266,3.3671,3.298,3.2606,3.2791,3.1083,3.0005,2.9642,2.8369,2.7839,2.8151,2.7956,2.9012,3.126,3.1543,3.2324,0.0,3.1992,3.1055,0.0,0.0,0.0,0.0,0.0,0.0,0.0,0.0,0.0,0.0,0.0,0.0,3.0742,3.0859,3.0898,3.0898,3.0898,3.0957,0.0,0.0,0.0,3.3906,3.7578,3.9434,4.1113,4.4355,4.5664,4.6562,4.8209,4.8659,4.8737,4.8737,4.8737,4.909,5.0268,5.2974,5.5927,5.8859,6.0264,6.1165,6.1718,6.1667,6.1617,6.1793,6.1793,6.0033,5.5427,5.504,5.2772,4.7332,4.7326,4.7216,4.6372,4.6308,4.6152,4.584,4.6133,4.6055,4.5508,4.541,4.5234,4.5019,4.459,4.5232,4.664,4.4631,4.3535,4.3242,4.3242,4.3242,4.3242,4.3242,4.3418,4.3711,4.3711,4.3711,4.3711,4.3711,4.3496,4.3281,0.0,0.0,0.0,0.0,0.0,0.0,0.0,0.0,0.0,0.0,0.0,0.0,0.0,3.1938,3.2312,3.2946,3.3047,3.3115,3.314,3.2514,3.1762,3.0874,3.0152,0.0,2.7878,2.7754,2.7702,2.7721,2.8093,2.957,3.214,3.2159,3.3274,3.5176,3.3457,3.2226,3.1367,0.0,0.0,0.0,0.0,0.0,0.0,0.0,0.0,0.0,0.0,0.0,3.0293,3.0742,3.0898,3.0898,3.0898,3.1172,3.1474,0.0,0.0,0.0,3.4473,3.6504,3.8694,4.1367,4.3887,4.6055,4.7344,4.7949,4.8242,4.8242,4.8242,4.8033,4.7282,5.1457,5.6345,6.0425,6.0659,6.0563,6.114,6.0738,6.0613,6.1165,6.1215,5.9431,5.4868,5.5891,5.4119,4.7381,4.8489,4.8525,4.642,4.6308,4.6289,4.6269,4.6289,4.5898,4.5016,4.4668,4.4648,4.5019,4.459,4.4478,4.4542,4.3948,4.3691,4.3672,4.3672,4.3672,4.3672,4.3672,4.3691,4.3711,4.3711,4.3711,4.3711,4.3711,4.3691,4.3672,0.0,0.0,0.0,0.0,0.0,0.0,0.0,0.0,0.0,0.0,0.0,0.0,0.0,3.2712,3.2835,3.3072,3.309,3.2742,3.1931,3.1925,3.1228,2.9541,2.9534,2.9111,2.8119,2.7839,2.7819,2.8093,2.7976,2.9109,3.1377,3.1621,3.2461,3.3691,3.3066,3.248,3.1866,3.0282,0.0,0.0,0.0,0.0,0.0,0.0,2.9023,2.9746,2.9813,3.0156,3.0664,3.084,3.0898,0.0,0.0,3.0996,3.1358,3.2545,3.3664,3.4913,3.6665,3.8411,4.0427,4.3045,4.4238,4.5271,4.7262,4.7519,4.7383,4.7383,4.7617,4.8046,4.8847,5.1788,5.4594,5.6139,5.8286,5.9491,5.8651,5.9519,5.985,5.866,5.9732,5.9413,5.638,5.503,5.2753,4.8903,4.7938,4.7141,4.6352,4.6055,4.5898,4.5898,4.5625,4.5332,4.4996,4.4609,4.4473,4.4609,4.416,4.4629,4.5902,4.4368,4.4412,4.5596,4.4289,4.3711,4.3711,4.3711,4.3711,4.3711,4.3711,4.3711,4.3711,4.3711,4.3711,4.3711,0.0,0.0,0.0,0.0,0.0,0.0,0.0,0.0,0.0,0.0,0.0,0.0,0.0,0.0,3.3822,3.3646,3.3223,3.2623,3.1746,3.1621,3.101,2.9752,3.0049,2.9782,2.8785,2.8364,2.8131,2.8112,2.7839,2.8718,3.0664,3.1113,3.1836,3.2773,3.2344,3.2246,0.0,0.0,3.0195,2.9698,2.9004,2.8887,2.916,2.9316,2.9726,3.0215,3.0419,3.0673,3.0898,3.0898,3.0898,0.0,0.0,0.0,0.0,3.2996,3.4169,3.5286,3.714,3.8695,4.0324,4.2471,4.304,4.3707,4.6127,4.6231,4.5972,4.6601,4.6953,4.7539,4.8693,5.1336,5.3373,5.3414,5.56,5.6893,5.5794,5.7542,5.8387,5.6916,5.8664,5.9162,5.6956,5.5091,5.2798,4.9828,4.8247,4.7038,4.6137,4.584,4.5605,4.5469,4.5039,4.4824,4.4824,4.4394,4.416,4.416,4.3848,4.4412,4.5718,4.433,4.4374,4.5513,4.423,4.3711,4.3711,4.3711,4.3711,4.3711,4.3711,4.3711,4.3711,4.3711,4.3711,4.3711,0.0,0.0,0.0,0.0,0.0,0.0,0.0,0.0,0.0,0.0,0.0,0.0,0.0,0.0,0.0,3.4778,3.3536,3.2769,3.2699,3.1639,3.1171,3.1471,3.1663,3.1142,2.9809,2.9291,2.8659,2.7832,2.7774,2.8616,3.027,3.0683,3.1534,3.2718,3.1475,3.1562,3.2695,3.2296,3.1855,3.1357,3.0078,2.9598,2.9755,3.0976,3.0937,3.0391,3.171,3.167,3.0957,3.0957,3.0957,0.0,0.0,0.0,0.0,0.0,0.0,3.3664,0.0,0.0,0.0,3.9265,4.0153,4.1371,4.377,4.3928,4.4082,4.582,4.6211,4.623,4.6289,4.9807,5.2715,5.2798,5.2962,5.3022,5.2876,5.4818,5.6231,5.6072,5.8084,5.8617,5.6439,5.6135,5.4296,4.9955,4.9531,4.8385,4.5832,4.5707,4.5449,4.4957,4.4609,4.4394,4.4375,4.3926,4.3691,4.3711,4.3691,4.3691,4.3691,4.3691,4.3476,4.3086,4.3516,4.3691,4.3691,4.3691,4.3711,4.3711,4.3711,4.3711,4.3711,4.3711,4.3711,4.3711,0.0,0.0,0.0,0.0,0.0,0.0,0.0,0.0,0.0,0.0,0.0,0.0,0.0,0.0,3.5433,3.5282,3.4958,3.4204,3.2933,3.335,3.3053,3.169,3.2518,3.2558,3.1602,3.0504,3.03,3.104,2.9068,2.9546,3.2179,3.0341,3.0497,3.2334,3.1344,3.0898,3.0859,3.0137,3.0293,3.0957,2.9629,2.9473,3.0039,3.0106,3.0351,3.0781,3.1465,3.1953,3.2266,3.2266,3.2266,3.2361,0.0,0.0,0.0,0.0,0.0,0.0,3.8321,0.0,0.0,0.0,0.0,0.0,4.1477,4.1298,4.1426,4.3144,4.3984,4.4726,4.5664,4.7095,4.8676,5.023,5.424,5.5865,5.2317,5.5058,5.642,5.3721,5.6637,5.8221,5.6367,5.476,5.2632,4.9828,4.8138,4.6789,4.5746,4.5371,4.4863,4.4101,4.4277,4.4238,4.3906,4.3476,4.3398,4.3691,4.3398,4.3242,4.3262,4.3574,4.3301,4.2656,4.3379,4.3535,4.3281,4.3574,4.3711,4.3711,4.3711,4.3711,4.3711,4.3711,4.3711,4.3711,0.0,0.0,0.0,0.0,0.0,0.0,0.0,0.0,0.0,0.0,0.0,0.0,0.0,0.0,0.0,3.6535,3.5834,3.4943,3.3935,3.4313,3.4029,3.289,3.403,3.4246,3.3204,3.2227,3.1904,3.2306,3.0555,3.0756,3.2654,3.0516,0.0,0.0,0.0,2.9941,3.0137,2.925,2.957,3.0566,3.0156,3.041,3.1084,3.1377,3.1788,3.2296,3.2695,3.3281,3.3789,3.3242,3.293,3.2914,0.0,0.0,0.0,0.0,0.0,0.0,0.0,0.0,4.1246,4.1104,0.0,0.0,4.1018,4.0323,3.998,4.2226,4.3086,4.373,4.4687,4.5825,4.7294,4.9412,5.2779,5.4341,5.2033,5.4476,5.5801,5.3812,5.5617,5.6751,5.6033,5.3098,5.0663,4.9196,4.7173,4.5781,4.5176,4.4551,4.3984,4.3457,4.3535,4.3437,4.3183,4.293,4.293,4.3164,4.293,4.2891,4.3127,4.334,4.3066,4.244,4.334,4.3359,4.2851,4.3457,4.3711,4.3691,4.3516,4.3555,4.3711,4.3711,4.3711,4.3711,0.0,0.0,0.0,0.0,0.0,0.0,0.0,0.0,0.0,0.0,0.0,0.0,0.0,0.0,0.0,0.0,3.6454,3.5469,3.5349,3.4893,3.4629,3.4629,3.5763,3.5834,3.4654,3.4078,3.3451,3.2758,3.2079,3.2029,3.2482,3.1004,0.0,0.0,0.0,0.0,2.9941,2.9289,2.9473,3.0215,3.1152,3.1816,3.2394,3.3645,3.4114,3.4173,3.4609,3.5039,3.5215,3.4043,3.3446,3.3329,3.4098,3.4614,3.5389,0.0,3.8919,0.0,0.0,0.0,0.0,4.1549,4.0041,0.0,4.1418,4.0417,3.9764,4.2467,4.3081,4.3319,4.3834,4.5653,4.7748,4.9656,5.0062,5.0552,5.1716,5.333,5.4538,5.4839,5.4743,5.4726,5.5091,5.1381,4.8651,4.8004,4.6443,4.5195,4.4433,4.3555,4.3127,4.3127,4.2656,4.2382,4.2382,4.2343,4.2343,4.2382,4.2343,4.2558,4.297,4.2988,4.2773,4.2362,4.3262,4.3183,4.244,4.3301,4.3672,4.3672,4.3301,4.3379,4.3711,4.3711,4.3711,4.3711,0.0,0.0,0.0,0.0,0.0,0.0,0.0,0.0,0.0,0.0,0.0,0.0,0.0,0.0,0.0,0.0,3.7667,3.7071,3.6225,3.6075,3.6001,3.6001,3.6263,3.6287,3.6026,3.4872,3.4703,3.5595,3.3312,3.2791,3.3945,3.1465,0.0,0.0,0.0,2.875,2.8711,2.959,2.9844,2.9833,3.1016,3.1992,3.2773,3.3743,3.4114,3.4212,3.498,3.5312,3.5351,3.5098,3.536,3.5936,3.6905,3.7359,3.7985,4.009,4.0475,4.0481,0.0,0.0,4.1825,4.1028,4.1472,0.0,3.9935,4.0594,4.168,4.234,4.3038,4.3947,4.5113,4.6659,4.8211,4.9464,4.9791,4.9998,5.035,5.2133,5.2964,5.1819,5.3109,5.356,5.2332,4.992,4.7672,4.5805,4.5039,4.457,4.4414,4.3555,4.3127,4.3127,4.2656,4.2382,4.2382,4.209,4.209,4.2382,4.209,4.1973,4.2051,4.2402,4.2324,4.1973,4.2832,4.291,4.2421,4.2988,4.3398,4.3691,4.3613,4.3633,4.3711,4.3711,4.3711,4.3711,0.0,0.0,0.0,0.0,0.0,0.0,0.0,0.0,0.0,0.0,0.0,0.0,0.0,0.0,0.0,0.0,0.0,0.0,0.0,3.6532,3.6405,3.6405,3.6405,3.6531,3.6783,3.5887,3.5986,3.721,3.5284,3.4505,3.4742,3.2392,0.0,0.0,0.0,2.8926,2.9012,2.9824,3.0215,3.0361,3.1641,3.2676,3.3535,3.4427,3.5033,3.5463,3.5913,3.6745,3.7604,3.7078,3.8163,3.9738,3.9779,4.0393,4.1283,4.2264,4.2384,4.2208,4.2512,4.2587,4.2718,4.3315,4.2649,0.0,0.0,4.1552,4.143,4.2393,4.2737,4.319,4.413,4.4941,4.6235,4.8568,4.7563,4.747,5.0299,5.1193,5.1392,5.0855,5.0541,5.0152,4.9598,4.7629,4.5928,4.4791,4.4297,4.3965,4.375,4.4059,4.3699,4.2481,4.296,4.2759,4.1797,4.1601,4.1601,4.1797,4.1582,4.1601,4.1816,4.2012,4.1992,4.1855,4.2715,4.2832,4.244,4.3125,4.3516,4.3691,4.3476,4.3516,4.3711,4.3711,4.3848,4.4043,3.2485,0.0,0.0,0.0,0.0,0.0,0.0,0.0,0.0,3.9647,0.0,0.0,0.0,0.0,0.0,0.0,0.0,0.0,3.721,3.6683,3.6331,3.623,3.6331,3.6557,3.686,3.6557,3.6808,3.7688,3.6569,3.5551,3.4607,3.2876,3.1339,3.0004,2.9396,2.9316,2.9637,3.0146,3.0586,3.1133,3.2402,3.3242,3.386,3.5059,3.5898,3.6534,3.7129,3.8794,4.0507,3.9556,4.1111,4.3271,4.2441,4.3126,4.4232,4.4394,4.4367,4.4267,4.4145,4.3808,4.3983,4.5834,4.3937,4.2114,0.0,0.0,0.0,4.2834,4.2804,4.2713,4.3165,4.3425,4.4436,4.7146,4.5537,4.5399,4.9684,4.9395,4.9113,5.0233,4.8118,4.6781,4.7259,4.5227,4.4004,4.4258,4.3691,4.3262,4.3127,4.4136,4.3788,4.1836,4.2937,4.279,4.1211,4.1211,4.1211,4.1211,4.1211,4.1348,4.168,4.168,4.1719,4.1836,4.2539,4.2676,4.244,4.3262,4.3574,4.3555,4.3301,4.3398,4.3711,4.3808,4.4082,4.4414,3.2392,3.1663,0.0,0.0,3.4129,0.0,0.0,0.0,3.9622,3.9697,4.0124,0.0,0.0,0.0,0.0,0.0,0.0,3.721,3.721,3.6683,3.6155,3.5631,3.613,3.618,3.5683,3.6157,3.6455,3.6582,3.5259,3.3944,3.2597,3.1611,3.0378,2.9085,2.9772,2.9863,2.9657,3.0449,3.1055,3.1533,3.2832,3.2969,3.2667,3.5039,3.5781,3.5919,3.8719,4.113,4.2962,4.2449,4.348,4.4868,4.442,4.4756,4.5515,4.6466,4.6371,4.6326,4.7763,4.6837,4.563,4.6152,4.5737,4.4872,4.3527,0.0,4.5225,4.3957,0.0,4.4324,4.4398,0.0,0.0,4.5116,4.6045,4.6697,4.6375,4.5052,4.5224,4.837,4.697,4.5767,4.583,4.3576,4.2558,4.3691,4.2676,4.2324,4.3087,4.2544,4.2073,4.1797,4.1621,4.1424,4.1211,4.1211,4.1211,4.1211,4.1211,4.123,4.1289,4.1289,4.1445,4.1816,4.1894,4.2129,4.2421,4.2949,4.3185,4.3183,4.3496,4.3672,4.375,4.416,4.4355,4.4453,3.2547,3.2663,0.0,0.0,3.5437,3.6891,3.8615,0.0,4.0174,4.0174,4.0349,4.0676,4.1105,4.0376,3.9823,0.0,3.9094,3.8366,3.7713,3.7437,0.0,3.6961,3.7186,3.7211,3.6961,3.6885,3.6773,3.6573,3.511,3.369,3.234,3.1434,3.039,2.9316,2.9922,3.0254,3.0419,3.1299,3.1582,3.166,3.3184,3.3281,3.2812,3.541,3.7251,3.8808,4.1176,4.3478,4.5252,4.4439,4.5993,4.8019,4.6872,4.7153,4.7832,4.7631,4.7405,4.738,4.8083,4.7667,4.7157,4.7621,4.6669,4.5404,4.4619,4.4418,4.4267,4.389,0.0,0.0,0.0,0.0,0.0,0.0,4.5784,4.6326,4.7369,4.4959,4.3745,4.5605,4.4617,4.3945,4.443,4.2836,4.2129,4.291,4.2246,4.1953,4.2324,4.3077,4.2873,4.1484,4.2373,4.235,4.1211,4.1211,4.1211,4.1211,4.1211,4.1211,4.1211,4.1211,4.1308,4.1445,4.1699,4.2031,4.2421,4.2891,4.3223,4.3496,4.3926,4.4101,4.4101,4.4023,4.4473,4.5137,3.3953,0.0,0.0,0.0,3.6482,3.786,3.8966,3.9772,4.035,4.0474,4.0499,4.1003,4.2286,4.1404,4.0901,4.1352,4.0501,3.9572,3.8743,3.8417,3.804,3.7588,3.7839,3.7764,3.7313,3.6872,3.6455,3.6076,3.4324,3.2964,3.1986,3.1153,3.0436,2.9794,3.043,3.0918,3.1348,3.2674,3.3264,3.3404,3.4652,3.5071,3.5164,3.6809,3.9495,4.2532,4.3861,4.5726,4.7454,4.6673,4.8076,4.9967,4.8761,4.8937,4.9439,4.8611,4.8586,4.8812,4.8636,4.8405,4.8248,4.8309,4.6736,4.5101,4.4882,4.4245,4.3768,4.3966,4.4091,0.0,0.0,0.0,4.5267,4.5974,0.0,4.6,4.7846,4.5083,4.3286,4.4301,4.3683,4.3546,4.4442,4.306,4.2285,4.2744,4.1719,4.125,4.1621,4.2847,4.2839,4.125,4.256,4.2637,4.1211,4.1211,4.1211,4.1211,4.1211,4.1211,4.1211,4.1211,4.1211,4.123,4.1621,4.2031,4.2421,4.2891,4.3398,4.3926,4.4258,4.4551,4.4707,4.4375,4.4844,4.5688,3.7165,3.6817,0.0,0.0,3.6482,3.7981,3.944,3.9697,3.9923,4.0424,4.0499,4.1128,4.2788,4.1982,4.193,4.3564,4.1731,4.0449,4.0424,3.9446,3.814,3.6531,3.7437,3.7237,3.5608,3.5381,3.5008,3.4457,3.2203,3.11,3.103,3.0474,3.0213,0.0,3.1553,3.214,3.232,3.4829,3.6666,3.7887,3.7788,3.8846,4.0368,3.9605,4.236,4.6608,4.6675,4.7904,4.9525,4.9475,4.9533,4.9615,4.9565,4.9565,4.959,4.9565,5.0318,5.1046,5.0494,4.9683,4.8731,4.7489,4.5695,4.4051,4.3269,4.4296,4.5246,4.469,4.5844,4.6823,4.6326,4.625,4.61,0.0,4.594,0.0,0.0,4.4348,4.3608,4.5526,4.5484,4.5666,4.6587,4.431,4.3062,4.3794,4.1013,3.9844,4.1172,4.0878,4.0819,4.1211,4.125,4.125,4.1211,4.1211,4.1211,4.1211,4.1211,4.1211,4.1211,4.1211,4.1211,4.123,4.1621,4.2031,4.2421,4.2891,4.3594,4.4375,4.4394,4.4902,4.5688,4.5668,4.5644,4.5723,0.0,0.0,0.0,3.7245,3.8109,3.9253,4.0096,4.0249,4.0827,4.2484,4.1282,4.1688,4.5299,4.3934,4.3359,4.4807,4.4242,4.3187,4.1733,4.1281,4.0652,3.9671,3.9997,3.9133,3.6858,3.6761,3.5471,3.294,3.1901,3.1223,3.0906,3.0423,3.0351,0.0,3.2908,3.4026,3.4518,3.7761,3.9241,3.9484,4.0393,4.257,4.5267,4.4557,4.5329,4.6955,4.8191,4.908,4.959,4.959,4.959,4.959,4.959,4.959,4.9665,5.0042,5.0695,5.1322,5.1473,5.1575,5.1135,4.9228,4.7688,4.6186,4.4448,4.4794,4.5321,4.4715,4.5919,4.6948,4.6401,4.6572,4.6647,0.0,0.0,4.6446,0.0,4.4227,4.3701,4.4333,4.3273,4.3018,4.4365,4.2009,4.0495,4.0778,3.9549,3.9238,4.0273,4.0449,4.0586,4.0742,4.1035,4.1211,4.1211,4.1211,4.1211,4.1211,4.1211,4.1211,4.1211,4.1211,4.1367,4.1601,4.1738,4.2207,4.2871,4.3008,4.3594,4.4433,4.4707,4.5176,4.5644,4.5351,4.5605,4.6113,3.8467,3.9069,3.9396,3.8467,3.9245,4.0049,4.0199,4.0877,4.1711,4.2655,4.1945,4.2445,4.5357,4.4118,4.3797,4.5533,4.5115,4.4299,4.3109,4.2864,4.2333,4.1326,4.0938,3.9742,3.7554,3.678,3.4958,3.1995,3.1703,3.1519,3.144,3.13,3.1665,3.2563,3.4707,3.6043,3.6906,4.0329,4.1967,4.2425,4.4153,4.587,4.7399,4.7696,4.7894,4.8205,4.9252,4.959,4.9493,4.8828,4.9172,4.9769,4.9125,4.9503,5.0218,5.0368,5.0971,5.1574,5.1523,5.2051,5.2151,5.0117,4.9038,4.7983,4.5944,4.625,4.6778,4.6225,4.728,4.8228,4.8109,4.7883,4.7606,0.0,0.0,4.574,0.0,4.2574,4.2155,4.2318,4.23,4.2574,4.332,4.1067,3.9481,3.9269,3.8422,3.8281,3.9141,3.9746,4.0195,4.0469,4.0957,4.1211,4.1211,4.1211,4.1211,4.1211,4.1211,4.1211,4.1211,4.1211,4.1406,4.1816,4.1953,4.2422,4.3127,4.3242,4.3828,4.4648,4.4922,4.5391,4.5859,4.5586,4.582,4.6308,3.9145,3.9371,3.9572,3.907,3.9798,4.0299,3.9769,4.1497,4.2372,4.1094,4.2293,4.322,4.3163,4.2649,4.324,4.5653,4.4491,4.389,4.4532,4.4209,4.3206,4.1493,4.049,3.92,3.75,3.5531,3.36,3.1683,3.1625,3.1901,3.2518,3.3001,3.3957,3.5356,3.6885,3.8096,3.9204,4.2412,4.4714,4.6427,4.8597,4.8445,4.7145,4.8925,4.9877,5.0212,4.9661,4.9461,4.9177,4.7287,4.8203,4.9834,4.8103,4.9154,5.088,5.0348,5.1014,5.174,5.0688,5.1256,5.1749,5.0117,4.9665,4.9213,4.7575,4.8485,4.949,4.8969,4.9651,5.0488,5.0972,4.9679,4.8489,4.8421,0.0,4.4092,4.097,3.9636,3.9158,3.9705,4.2365,4.3931,4.3387,4.1281,3.9757,3.9256,3.7614,3.6992,3.7851,3.8711,3.957,4.0391,4.0918,4.1211,4.1211,4.1211,4.1211,4.1211,4.1211,4.1211,4.1211,4.1211,4.1406,4.1855,4.2206,4.2695,4.3144,4.3555,4.4238,4.4977,4.5058,4.5566,4.6308,4.6308,4.6308,4.6308,3.9546,3.9923,4.0249,4.0124,3.9998,3.9882,3.9785,4.0338,4.0976,4.1493,4.121,4.1795,4.4041,4.2948,4.2575,4.386,4.4832,4.5079,4.4491,4.5574,4.525,4.3048,4.2698,4.0846,3.7279,3.6397,3.4974,3.2921,3.3048,3.3377,3.3896,3.4463,3.493,3.5433,3.856,3.956,3.9158,4.3121,4.5529,4.6698,4.7272,4.8304,4.9496,4.9579,4.9109,4.8324,4.7735,4.7542,4.7221,4.5389,4.5393,4.6081,4.5633,4.6114,4.6957,4.7211,4.8509,4.9886,5.0041,5.1363,5.2528,5.1674,5.082,4.9992,4.9163,4.9615,5.0042,4.949,4.9427,4.9087,4.7861,4.6059,4.4341,4.3025,4.1607,4.0361,3.9551,3.8829,3.8254,3.7866,3.7943,3.8434,3.9411,3.8027,3.7021,3.6867,3.615,3.623,3.7402,3.8262,3.8984,3.9531,4.0605,4.1211,4.1211,4.1211,4.1211,4.1211,4.1211,4.1211,4.1211,4.1211,4.1562,4.2226,4.2343,4.2851,4.3574,4.4043,4.4531,4.5016,4.5371,4.584,4.6308,4.6308,4.6308,4.6308,4.0049,4.0094,4.0128,4.018,3.8998,3.8544,4.0033,4.0106,3.9791,3.9411,3.9158,3.9086,3.9242,3.9394,3.9919,4.1025,4.2662,4.3575,4.3521,4.4473,4.4333,4.2746,4.1987,4.0406,3.7809,3.7316,3.6225,3.4445,3.5028,3.5591,3.6102,3.6228,3.6619,3.7358,4.0148,4.086,4.0089,4.3124,4.4874,4.5693,4.6465,4.7612,0.0,4.9674,4.8838,4.7308,4.7474,4.6732,4.5378,4.3716,4.4009,4.498,4.4384,4.5066,4.6159,4.6463,4.796,4.9581,4.9925,5.1408,5.282,5.2553,5.134,5.0063,4.9523,4.8957,4.8465,4.8178,4.7781,4.726,4.6528,4.4743,4.2693,4.0621,3.9139,3.8108,3.7663,3.674,3.6038,3.5808,3.5509,3.5674,3.6526,3.5388,3.4766,3.5137,3.5117,3.541,3.6133,3.7695,3.8691,3.8926,4.0429,4.1211,4.1211,4.1348,4.1348,4.1211,4.1211,4.1211,4.1211,4.1211,4.1621,4.2382,4.2382,4.287,4.373,4.3984,4.4473,4.5035,4.5703,4.6094,4.6308,4.6308,4.6308,4.6308,4.0436,3.9892,3.9408,3.9252,3.727,3.6696,3.9579,3.9548,3.8344,3.6028,3.6594,3.6035,3.2881,3.4522,3.6341,3.7507,3.9211,4.0702,4.1788,4.236,4.2316,4.1596,4.0229,3.9298,3.8891,3.8301,3.7475,3.6387,3.7288,3.793,3.836,3.7765,3.819,3.9488,4.0947,4.1298,4.0838,4.2077,4.2967,4.3731,4.5388,4.6231,4.6703,4.9125,4.8572,4.6735,4.8035,4.6656,4.3997,4.26,4.3537,4.5072,4.3595,4.4539,4.6315,4.6551,4.8035,4.9677,4.9926,5.1408,5.2861,5.2594,5.1268,4.9771,4.9015,4.7515,4.6293,4.6293,4.5742,4.5354,4.5711,4.3843,4.1573,3.9491,3.7889,3.6623,3.5842,3.445,3.3691,3.4212,3.4512,0.0,3.4785,3.3789,3.3418,3.4134,3.4434,3.4668,3.4785,3.6992,3.834,3.8611,4.0194,4.1152,4.1367,4.1582,4.1582,4.1387,4.1269,4.1211,4.1211,4.1269,4.168,4.2382,4.248,4.2969,4.3711,4.3828,4.4394,4.5273,4.6016,4.6308,4.6308,4.6308,4.6308,4.6308,4.0089,3.9343,3.8244,3.6351,3.531,3.4888,3.5301,3.533,3.481,3.3487,3.4411,3.4835,3.3799,3.3892,3.3992,3.3856,3.6792,3.8775,3.8997,4.2037,4.3083,4.1424,4.1074,4.0724,4.0353,3.9445,3.9159,3.9516,3.9432,3.916,3.871,3.7875,3.7636,3.7894,3.825,3.8432,3.8477,3.8419,3.9308,4.0895,4.1885,4.3196,4.4846,4.7248,4.6949,4.5518,4.7708,4.6889,4.4544,4.3126,4.3193,4.3542,4.1628,4.1549,4.2522,4.4134,4.5998,4.789,4.957,5.1408,5.2525,5.0928,5.0269,4.9546,4.7753,4.7077,4.688,4.688,4.5527,4.3923,4.26,3.9302,3.6657,3.6222,3.5314,3.4861,3.5402,3.4609,3.4258,3.5059,3.4883,3.4844,3.5234,3.5078,3.4844,3.4609,3.4336,3.4544,3.5234,3.6035,3.7109,3.8571,3.959,4.0781,4.2187,4.1601,4.1601,4.2207,4.1504,4.1211,4.123,4.1523,4.1953,4.2401,4.2812,4.3242,4.3769,4.4492,4.5293,4.6094,4.625,4.6308,4.6308,4.6308,4.6308,4.6308,4.0105,3.8086,3.6306,3.5621,3.3315,3.1605,3.175,3.1418,3.1209,3.1332,3.1566,3.1311,3.0166,3.1137,3.1818,3.1566,3.5175,3.7315,3.711,4.0833,4.2181,4.0286,4.1841,4.2312,4.1403,4.1724,4.1927,4.1967,4.1374,4.0324,3.8939,3.7952,3.7079,3.6344,3.608,3.6569,3.7546,3.6901,3.7396,3.8815,4.0853,4.2181,4.3411,4.7051,4.7086,4.5749,4.9448,4.9238,4.691,4.524,4.483,4.4886,4.4108,4.4041,4.4398,4.5351,4.6992,4.8542,4.847,4.9914,5.0928,4.8938,4.7686,4.6698,4.5701,4.4736,4.4004,4.4004,4.3266,4.2193,4.0914,3.8473,3.6699,3.6699,3.5976,3.5678,3.6289,3.582,3.5488,3.5703,3.5527,3.5391,3.5391,3.5586,3.5254,3.4121,3.4062,3.4095,3.4043,3.5293,3.6601,3.7871,3.8965,4.0254,4.1758,4.1582,4.1582,4.1777,4.1582,4.1387,4.123,4.1836,4.2226,4.2421,4.2891,4.332,4.3769,4.4648,4.5273,4.5683,4.6133,4.6308,4.6308,4.6308,4.6308,4.6308,3.9365,3.6712,3.4577,3.4384,3.146,2.9154,2.9225,2.8731,2.8687,2.9588,2.9214,2.8315,2.6921,2.8577,2.9734,2.9734,3.3572,3.5849,3.551,3.9214,4.0938,3.9844,4.2181,4.3359,4.3026,4.4038,4.4285,4.3713,4.2594,4.089,3.8721,3.7356,3.589,3.4488,3.4085,3.49,3.6441,3.615,3.6465,3.7406,4.0157,4.1343,4.1907,4.659,4.7291,4.6398,5.117,5.1684,4.9822,4.8284,4.7535,4.715,4.7026,4.6992,4.7065,4.7504,4.847,4.9117,4.794,4.847,4.8866,4.6882,4.5239,4.3983,4.3587,4.2311,4.1211,4.1211,4.1094,4.0801,4.0039,3.8965,3.8128,3.8086,3.7422,3.709,3.75,3.7207,3.6777,3.6348,3.6289,3.6016,3.5312,3.5547,3.5025,3.3418,3.3769,3.384,3.3223,3.4726,3.6133,3.7266,3.8437,3.9785,4.1289,4.1543,4.1582,4.1445,4.1601,4.1484,4.125,4.2051,4.2382,4.2421,4.2988,4.3496,4.4043,4.4746,4.5137,4.5351,4.6035,4.6308,4.6308,4.6308,4.6308,4.6308,3.6762,3.5669,3.3913,3.0253,2.9972,2.9823,2.8493,2.8679,2.8767,2.8433,2.8325,2.8227,2.806,2.7997,2.7945,2.7945,3.1589,3.3875,3.3842,3.735,4.0155,4.1679,4.1613,4.3057,4.6301,4.5548,4.4905,4.4507,4.2467,4.0168,3.7593,3.5172,3.3273,3.188,3.2235,3.2922,3.3855,3.5346,3.6289,3.6871,3.8321,3.9141,3.992,4.4326,4.6149,4.691,5.1317,5.2742,5.2554,5.2347,5.1125,4.9356,4.7577,4.6992,4.7358,4.9189,4.8578,4.7649,4.9284,4.8542,4.6809,4.4865,4.4247,4.3663,4.1869,4.1327,4.1211,4.1211,4.0859,4.0449,3.998,3.9453,3.8965,3.8574,3.8105,3.7949,3.8398,3.8086,3.7656,3.7226,3.7168,3.6543,3.4922,3.4805,3.4277,3.2949,3.3645,3.4231,3.4512,3.4388,3.5228,3.7226,3.8164,3.9629,4.1719,4.1406,4.1601,4.2265,4.1582,4.125,4.125,4.2051,4.2382,4.244,4.3301,4.4121,4.486,4.4957,4.5488,4.6191,4.6269,4.6308,4.6308,4.6308,4.6308,4.6308,3.6886,3.4084,3.1567,3.0698,2.9751,2.9048,2.8974,2.9005,2.9018,2.8995,2.8791,2.8617,2.8444,2.831,2.8163,2.8018,3.1854,3.4041,3.3493,3.833,4.146,4.1967,4.3681,4.5426,4.7163,4.6956,4.5962,4.4177,4.2304,3.9599,3.6073,3.4467,3.3062,3.1934,3.2617,3.3398,3.4277,3.5781,3.666,3.7148,3.8437,3.9062,3.9591,4.3057,4.523,4.6667,4.8667,5.0127,5.0963,4.9748,5.041,5.1607,5.0787,4.9748,4.8938,4.9748,4.8578,4.6919,4.6551,4.5849,4.479,4.2866,4.235,4.2157,4.1405,4.1211,4.1211,4.1211,4.1035,4.0859,4.0684,4.0098,3.9726,4.0116,3.9551,3.9355,4.0077,3.9297,3.8437,3.7754,3.6523,3.5371,3.4414,3.4082,3.4043,3.4336,3.3945,3.375,3.3926,3.3769,3.4785,3.7226,3.7637,3.8848,4.1016,4.1133,4.1348,4.168,4.1582,4.1426,4.125,4.2051,4.2558,4.2851,4.3437,4.4062,4.4668,4.4879,4.5391,4.5957,4.6211,4.6308,4.6308,4.6308,4.6308,4.6308,3.6287,3.2961,3.0451,3.0993,2.9836,2.9075,2.9798,2.9686,2.9606,2.9726,2.9553,2.9219,2.8671,2.8524,2.8674,2.9104,3.2546,3.4718,3.4717,3.9164,4.1927,4.2177,4.4095,4.5752,4.7045,4.6593,4.5465,4.3593,4.1443,3.8655,3.5293,3.4281,3.3184,3.2118,3.3417,3.4414,3.5156,3.6348,3.709,3.7578,3.8613,3.9451,4.0308,4.3083,4.5056,4.6487,4.7527,4.8434,4.8902,4.7467,4.8866,5.1163,5.1163,5.0233,4.9117,4.9117,4.7686,4.5849,4.4452,4.368,4.2922,4.154,4.1211,4.1211,4.1211,4.1211,4.1211,4.1211,4.1211,4.1211,4.1211,4.0722,4.043,4.0898,4.0586,4.043,4.0918,4.0078,3.9082,3.8223,3.6445,3.4902,3.3965,3.3711,3.3945,3.4746,3.418,3.3816,3.4004,3.375,3.4687,3.7031,3.748,3.8594,4.0469,4.0957,4.1211,4.1211,4.1484,4.1465,4.123,4.1914,4.2539,4.3146,4.3398,4.3926,4.4609,4.486,4.5351,4.5898,4.6191,4.6308,4.6308,4.6308,4.6308,4.6308,3.4133,3.2602,3.1221,3.0127,3.0186,3.048,3.0728,3.0768,3.0675,3.0426,3.0386,2.9945,2.8738,2.8379,2.9048,3.12,3.339,3.5581,3.7719,3.9165,4.0744,4.2507,4.183,4.2839,4.5945,4.3814,4.2765,4.2916,3.9565,3.7159,3.555,3.4572,3.3231,3.1812,3.427,3.5605,3.6021,3.6934,3.7539,3.7913,3.8398,3.9956,4.2261,4.4732,4.5899,4.6537,4.906,4.8686,4.7029,4.6992,4.7029,4.7065,4.7065,4.7065,4.7029,4.7029,4.5664,4.4134,4.4096,4.2713,4.1211,4.1211,4.1211,4.1211,4.1211,4.1211,4.1211,4.1211,4.1211,4.1211,4.1211,4.1211,4.1016,4.0605,4.0879,4.1016,4.0586,4.0156,3.9551,3.8708,3.7477,3.5835,3.3601,3.3809,3.3887,3.3476,3.4219,3.4883,3.5351,3.4564,3.4896,3.6656,3.7946,3.9199,4.0469,4.0957,4.1211,4.1211,4.1211,4.1211,4.123,4.1621,4.2266,4.3127,4.3127,4.3828,4.4977,4.4977,4.5527,4.6289,4.6308,4.6308,4.6308,4.6308,4.6308,4.6308,3.5031,3.2719,3.0664,3.0303,3.0621,3.0982,3.1076,3.0915,3.134,3.2799,3.2405,3.2353,3.3333,3.197,3.11,3.1395,3.4773,3.7055,3.7478,3.9013,4.0586,4.2125,4.1368,4.1926,4.4184,4.2901,4.1636,4.0486,3.9072,3.6659,3.3312,3.1901,3.172,3.2655,3.3985,3.5595,3.7308,3.793,3.8242,3.8524,3.9901,4.114,4.2225,4.3212,4.4713,4.6126,4.4566,4.3483,4.2774,4.2996,4.2019,4.1034,4.2558,4.3966,4.5014,4.5014,4.3663,4.2119,4.2119,4.1695,4.1211,4.1211,4.1211,4.1211,4.1211,4.1211,4.1211,4.1211,4.1211,4.1211,4.1211,4.1211,4.1172,4.0996,4.1074,4.1016,4.0586,3.9648,3.8672,3.7812,3.6289,3.4941,3.3965,3.4258,3.457,3.4746,3.5293,3.5547,3.541,3.5717,3.6265,3.707,3.834,3.9492,4.0469,4.0957,4.1211,4.1211,4.1211,4.1211,4.123,4.1601,4.1953,4.2246,4.2812,4.3652,4.4629,4.4902,4.5527,4.6308,4.6308,4.6308,4.6308,4.6308,4.6308,4.6308,3.5433,3.3386,3.1665,3.1858,3.3011,3.3969,3.41,3.4001,3.4361,3.5665,3.5118,3.4985,3.5879,3.5925,3.5361,3.3969,3.6304,3.8386,3.9471,3.9775,4.0447,4.1701,4.0404,4.0313,4.1777,4.0641,3.9793,3.9324,3.7853,3.5559,3.2535,3.229,3.2482,3.3044,3.5157,3.6853,3.822,3.9214,3.9738,4.0117,4.1919,4.3415,4.4534,4.4156,4.4997,4.585,4.2317,4.0472,3.9617,3.8964,3.839,3.8134,3.9531,4.1365,4.2999,4.2999,4.2157,4.1211,4.1211,4.1211,4.1211,4.1211,4.1211,4.1211,4.1211,4.1211,4.1211,4.1211,4.1211,4.1211,4.1211,4.1211,4.1211,4.1211,4.1211,4.0976,4.0371,3.9297,3.8298,3.7402,3.6348,3.5449,3.4863,3.5469,3.5957,3.6094,3.7345,3.7553,3.6401,3.6699,3.7168,3.7754,3.9023,4.0117,4.0996,4.1426,4.1641,4.1641,4.1484,4.1445,4.1406,4.1523,4.1738,4.207,4.2598,4.3516,4.4648,4.4922,4.5527,4.6308,4.6308,4.6308,4.6308,4.6308,4.6308,4.6308,3.5733,3.4744,3.4002,3.4547,3.6765,3.8609,3.8927,3.8993,3.8952,3.8751,3.8519,3.806,3.72,4.024,4.1361,3.8801,3.8569,3.995,4.3276,4.1488,4.0603,4.1324,3.9231,3.8397,3.9091,3.7522,3.7508,3.9146,3.6253,3.4252,3.3221,3.5023,3.4891,3.3304,3.7371,3.9019,3.8918,4.0708,4.1827,4.25,4.4343,4.6473,4.836,4.692,4.6334,4.5763,4.2117,3.9558,3.7618,3.5759,3.6362,3.7935,3.8054,3.9531,4.1211,4.1211,4.1211,4.1211,4.1211,4.1211,4.1211,4.1211,4.1211,4.1211,4.1211,4.1211,4.1211,4.1211,4.1211,4.1211,4.1211,4.1211,4.1211,4.1211,4.1191,4.0859,3.9941,3.9101,3.8278,3.7363,3.7305,3.7031,3.6196,3.7211,3.7848,3.7653,4.0047,4.064,3.8549,3.8019,3.8034,3.8689,3.9941,4.1016,4.1836,4.2187,4.2382,4.2382,4.2031,4.1836,4.1836,4.1445,4.168,4.2382,4.2421,4.3377,4.4938,4.4977,4.5527,4.6308,4.6308,4.6308,4.6308,4.6308,4.6308,4.6308,3.8559,3.7417,3.6559,3.6995,3.7798,3.8474,3.8927,3.8993,3.9541,4.0974,4.2271,4.3388,4.4254,4.5995,4.6659,4.5626,4.5127,4.5054,4.55,4.4713,4.3544,4.1892,4.0395,3.9161,3.8235,3.7236,3.7374,3.8732,3.711,3.6152,3.5831,3.4826,3.471,3.5503,3.7893,3.9592,4.0779,4.2661,4.3527,4.3833,4.6115,4.7609,4.836,4.6826,4.6463,4.6323,4.2459,3.9729,3.8054,3.9256,3.8882,3.8192,3.9903,4.0763,4.1211,4.1211,4.1211,4.1211,4.1211,4.1211,4.1211,4.1211,4.1211,4.1211,4.1211,4.1211,4.1211,4.1211,4.1211,4.1211,4.1211,4.1211,4.1211,4.1211,4.0898,4.0254,3.9062,3.8747,3.818,3.6988,3.7383,3.7695,3.7464,3.8047,3.9165,4.0965,4.1695,4.2621,4.3919,4.303,4.161,3.9627,4.084,4.1758,4.2226,4.2343,4.2382,4.2382,4.2284,4.2285,4.2226,4.2168,4.2246,4.2401,4.2773,4.3535,4.457,4.486,4.5527,4.6308,4.6308,4.6308,4.6308,4.6308,4.6308,4.6308,3.9532,3.9236,3.9062,3.9528,4.0764,4.1817,4.2255,4.319,4.4228,4.5324,4.7034,4.831,4.8611,4.9859,5.04,4.9647,4.8007,4.7155,4.7518,4.6566,4.5595,4.4715,4.2145,4.0285,3.9293,3.7757,3.7578,3.8867,3.7609,3.7123,3.7304,3.6189,3.6528,3.8103,4.0112,4.1856,4.3409,4.5322,4.6104,4.6322,4.8734,4.9893,4.9868,4.7454,4.6768,4.6367,4.1461,3.8922,3.7935,3.8152,3.8073,3.8094,3.9335,4.0392,4.1211,4.1211,4.1211,4.1211,4.1211,4.1211,4.1211,4.1211,4.1211,4.1211,4.1211,4.1211,4.1211,4.1211,4.1211,4.1211,4.1211,4.1211,4.1152,4.0898,4.0508,3.9785,3.8457,3.8281,3.7949,3.707,3.7871,3.8594,3.8809,4.0187,4.1584,4.2779,4.4655,4.5559,4.5099,4.5487,4.4527,4.191,4.221,4.25,4.2715,4.291,4.2967,4.3008,4.2812,4.2715,4.2715,4.2519,4.2539,4.2754,4.3183,4.3867,4.4726,4.5156,4.5703,4.6308,4.6308,4.6308,4.6308,4.6308,4.6308,4.6269,4.012,4.0819,4.1501,4.2001,4.397,4.5793,4.667,4.8315,4.9659,5.0061,5.1655,5.2432,5.1504,5.267,5.3168,5.2258,4.96,4.8462,4.9599,4.8144,4.7351,4.7559,4.3988,4.1623,4.0765,3.8802,3.832,3.9394,3.8455,3.8116,3.8429,3.8743,3.9542,4.0783,4.3245,4.5011,4.6234,4.8151,4.893,4.9115,5.1216,5.2101,5.1718,4.8321,4.7037,4.6344,4.0511,3.8426,3.8185,3.6299,3.6882,3.839,3.839,3.9688,4.1211,4.1211,4.1211,4.1211,4.1211,4.1211,4.1211,4.1211,4.1211,4.1211,4.1211,4.1211,4.1211,4.1211,4.1211,4.1211,4.1211,4.1211,4.1035,4.0586,4.0117,3.9336,3.8008,3.7913,3.7871,3.7441,3.8633,3.9687,4.0137,4.2368,4.3794,4.3882,4.7167,4.7941,4.5034,4.6495,4.6501,4.4449,4.3539,4.3146,4.3205,4.3594,4.3808,4.3808,4.3516,4.3379,4.3359,4.2988,4.3027,4.3398,4.375,4.4375,4.5156,4.5527,4.5879,4.6211,4.6289,4.6269,4.6211,4.6289,4.6308,4.623,4.2884,4.3154,4.3501,4.4354,4.4531,4.5639,4.8641,4.909,4.9889,5.2091,5.3859,5.4705,5.4092,5.5007,5.5443,5.4857,5.3513,5.2575,5.2322,5.1619,4.9655,4.6106,4.492,4.3028,4.013,4.0014,4.0079,4.0312,4.086,4.0955,4.0724,4.2729,4.3421,4.316,4.6662,4.817,4.8185,5.0057,5.088,5.093,5.1774,5.2101,5.1718,4.8321,4.7261,4.6979,4.2335,4.0897,4.1109,4.0429,4.0392,4.0685,4.0685,4.0919,4.1211,4.1211,4.1211,4.1211,4.1211,4.1211,4.1211,4.1211,4.1211,4.1211,4.1211,4.1211,4.1211,4.1211,4.1211,4.1211,4.1211,4.1211,4.1035,4.0586,3.9844,3.8867,3.7578,3.8008,3.832,3.7835,3.9629,4.1035,4.1465,4.1876,4.3175,4.5592,4.5618,4.6355,4.8233,4.7035,4.6079,4.5702,4.402,4.3242,4.3594,4.4062,4.4297,4.4297,4.459,4.4726,4.4726,4.4648,4.4648,4.4726,4.4785,4.5098,4.5586,4.5688,4.5766,4.5801,4.6172,4.6094,4.582,4.6172,4.6308,4.623,4.3867,4.4082,4.4277,4.4879,4.5775,4.6945,4.8526,5.0655,5.2455,5.3646,5.5545,5.6532,5.5969,5.6079,5.6118,5.5867,5.4511,5.3288,5.2263,5.1436,5.006,4.8085,4.5492,4.2811,3.9978,4.0312,4.0489,4.0489,4.1387,4.2308,4.3213,4.4224,4.5691,4.7476,4.8954,5.0046,5.0916,5.1811,5.2,5.1774,5.2327,5.2377,5.1718,4.8321,4.7269,4.7171,4.3005,4.2346,4.3322,4.3158,4.2934,4.2751,4.2751,4.2062,4.1211,4.1211,4.1211,4.1211,4.1211,4.1211,4.1211,4.1211,4.1211,4.1211,4.1211,4.1211,4.1211,4.1211,4.1211,4.1211,4.1211,4.1211,4.1035,4.0586,3.9785,3.8984,3.8398,3.8476,3.8769,3.9221,4.041,4.1426,4.207,4.31,4.4386,4.5953,4.6669,4.7238,4.7773,4.7082,4.6204,4.5168,4.4265,4.3887,4.4082,4.4512,4.4629,4.4394,4.4824,4.4977,4.4977,4.4977,4.4977,4.4996,4.5273,4.5488,4.5746,4.5918,4.5879,4.5766,4.6133,4.6055,4.5766,4.6152,4.6308,4.623,4.4224,4.4394,4.4719,4.5738,4.7068,4.8394,4.9612,5.2439,5.4643,5.5289,5.6719,5.7337,5.6377,5.5695,5.5126,5.4623,5.3214,5.1872,5.0804,4.9414,4.865,4.865,4.5005,4.2119,4.0233,4.0508,4.0684,4.0684,4.1426,4.2837,4.4921,4.5265,4.7336,5.0794,5.0721,5.1513,5.2895,5.2895,5.2644,5.2327,5.2719,5.2644,5.1952,4.9009,4.7922,4.7578,4.4497,4.4111,4.5062,4.5329,4.4833,4.4096,4.4096,4.279,4.1211,4.1211,4.0841,4.0431,4.0431,4.0431,4.0314,3.9825,4.006,4.0431,4.0431,4.0841,4.125,4.1348,4.1328,4.1328,4.1328,4.1328,4.1152,4.0567,3.9863,3.9316,3.9219,3.9101,3.9394,4.0372,4.125,4.2012,4.2656,4.426,4.5445,4.5734,4.7193,4.7541,4.6391,4.6619,4.6141,4.473,4.4609,4.4492,4.4394,4.4922,4.5019,4.4707,4.5117,4.5312,4.5312,4.5312,4.5312,4.5332,4.5683,4.582,4.584,4.6172,4.6055,4.5766,4.6133,4.6055,4.5766,4.6152,4.6308,4.623,4.4496,4.4394,4.5302,4.8212,4.8065,4.9219,5.4111,5.4318,5.4836,5.7348,5.7312,5.634,5.4343,5.3244,5.1915,5.0003,4.8899,4.8296,4.8193,4.5894,4.4527,4.4527,4.2501,4.1307,4.1113,4.1152,4.1172,4.1172,4.1582,4.2837,4.4921,4.6667,4.868,5.0866,5.2133,5.2792,5.2895,5.2895,5.287,5.2845,5.287,5.287,5.2663,5.1116,4.9859,4.8838,4.837,4.7223,4.61,4.7276,4.6077,4.4096,4.4096,4.279,4.1211,4.1211,3.9746,3.8134,3.8134,3.8134,3.7657,3.5678,3.6682,3.8134,3.8134,3.9746,4.1328,4.168,4.1758,4.1758,4.1758,4.1758,4.1484,4.0664,4.0137,3.9687,3.9258,3.9883,4.0372,4.0469,4.2285,4.3535,4.3613,4.4481,4.5055,4.5075,4.5202,4.5264,4.5134,4.5153,4.5284,4.5609,4.5195,4.4785,4.4394,4.5215,4.5605,4.5586,4.6016,4.6211,4.6211,4.6211,4.6211,4.6211,4.625,4.625,4.625,4.6289,4.6055,4.5766,4.6133,4.6055,4.5766,4.6152,4.6308,4.623,4.5759,4.6106,4.6681,4.7877,4.9895,5.1966,5.3711,5.4757,5.5224,5.497,5.4724,5.3788,5.1716,5.0804,5.0163,4.9772,4.853,4.7401,4.6533,4.4989,4.3549,4.235,4.1579,4.1211,4.1211,4.1211,4.1211,4.1211,4.1601,4.3479,4.678,4.7417,4.9451,5.2615,5.2784,5.2895,5.2895,5.2895,5.2895,5.2895,5.2895,5.2895,5.2723,5.0969,4.9577,4.8412,4.711,4.6209,4.5712,4.6185,4.5354,4.4096,4.4096,4.279,4.0919,3.957,3.7618,3.5632,3.4425,3.4979,3.5702,3.4894,3.5298,3.6281,3.7618,3.8548,3.9569,4.1132,4.1406,4.1406,4.1406,4.1621,4.1699,4.1367,4.1191,4.1113,4.1191,4.1269,4.1601,4.2402,4.3203,4.3926,4.4473,4.4824,4.5137,4.541,4.543,4.543,4.543,4.543,4.5508,4.5664,4.5762,4.5605,4.5195,4.5762,4.5937,4.5683,4.6113,4.6308,4.6308,4.6308,4.6308,4.6308,4.6308,4.6308,4.6308,4.6308,4.6055,4.5766,4.6133,4.6055,4.5766,4.6152,4.6308,4.6289,4.6659,4.7018,4.7555,4.8561,5.135,5.3666,5.4216,5.5386,5.5435,5.3364,5.31,5.2052,4.9283,4.853,4.8104,4.7863,4.7351,4.6556,4.5384,4.5124,4.389,4.1327,4.1211,4.1211,4.1211,4.1211,4.1211,4.1211,4.1465,4.3435,4.6968,4.7336,4.9362,5.2791,5.2878,5.2895,5.2895,5.2895,5.2895,5.2895,5.2895,5.2895,5.2723,5.0921,4.9451,4.8129,4.6891,4.5987,4.5365,4.5212,4.4242,4.2952,4.2263,4.0705,3.8898,3.7543,3.5483,3.3388,3.2115,3.2229,3.2715,3.285,3.3277,3.4237,3.65,3.7508,3.8545,4.0898,4.1367,4.1406,4.1543,4.1797,4.1992,4.1992,4.1992,4.209,4.2343,4.2402,4.2715,4.3594,4.4062,4.4551,4.5176,4.5351,4.5547,4.5859,4.5879,4.5879,4.5879,4.5879,4.5879,4.5879,4.6152,4.6172,4.5879,4.6152,4.623,4.6074,4.6367,4.6504,4.6504,4.6504,4.6426,4.6308,4.6308,4.6308,4.6308,4.6308,4.6133,4.5898,4.6191,4.6133,4.5918,4.6191,4.6387,4.6484,4.6917,4.6706,4.7703,5.0823,5.2217,5.3795,5.6563,5.6508,5.5435,5.3326,5.3062,5.1455,4.7206,4.6426,4.5381,4.331,4.4633,4.5349,4.4751,4.6171,4.5298,4.1405,4.125,4.125,4.125,4.1211,4.1211,4.1211,4.1211,4.2455,4.49,4.635,4.836,5.0866,5.2272,5.2895,5.2895,5.2895,5.2895,5.2895,5.2895,5.2895,5.2738,5.1331,4.9752,4.8334,4.8561,4.7215,4.5281,4.4705,4.2848,4.0376,3.8273,3.6223,3.48,3.5302,3.3515,3.144,3.1712,3.0056,2.8368,2.8885,3.0198,3.2061,3.4579,3.6581,3.8618,4.1246,4.1797,4.1933,4.2304,4.2382,4.2382,4.2401,4.2401,4.2401,4.2401,4.3183,4.3711,4.373,4.4883,4.5727,4.5683,4.6055,4.6308,4.6308,4.6308,4.6308,4.6308,4.6308,4.6308,4.6308,4.6308,4.6308,4.6308,4.6308,4.6504,4.6889,4.6889,4.6889,4.6889,4.6889,4.6699,4.6308,4.6308,4.6308,4.6308,4.6308,4.6308,4.6308,4.6308,4.6308,4.6308,4.6308,4.6562,4.6831,4.5645,4.5631,4.6631,4.8951,5.0828,5.2741,5.4977,5.4254,5.2702,5.0582,4.9335,4.7645,4.4924,4.5837,4.6377,4.5816,4.724,4.7827,4.7012,4.7723,4.7513,4.5966,4.5507,4.5276,4.5276,4.3928,4.3207,4.3207,4.1869,4.2256,4.4361,4.6137,4.814,5.0306,5.2099,5.2895,5.2895,5.2895,5.2895,5.2895,5.2895,5.2895,5.2723,5.0921,4.9279,4.752,4.4677,4.2309,4.0287,3.8664,3.7396,3.6395,3.5754,3.4213,3.2684,3.2883,3.1402,2.9795,3.0099,3.0467,3.0803,3.1033,3.1465,3.2834,3.6637,3.794,3.8915,4.0936,4.1367,4.1484,4.1914,4.2226,4.2577,4.3223,4.3594,4.3906,4.4157,4.4431,4.4746,4.5039,4.543,4.5781,4.6094,4.623,4.6308,4.6308,4.6308,4.6308,4.6308,4.6308,4.6308,4.6308,4.6308,4.6308,4.6308,4.6308,4.6504,4.6889,4.6889,4.6889,4.6889,4.6889,4.6699,4.6308,4.6308,4.6308,4.6308,4.6308,4.6308,4.6308,4.6308,4.6308,4.6328,4.6641,4.6816,4.687,4.5112,4.4999,4.5946,4.8107,5.0031,5.2043,5.4263,5.382,5.2154,4.926,4.8919,4.7899,4.5008,4.6493,4.7702,4.7763,4.9029,5.0007,5.0496,5.0616,5.064,5.0545,5.0203,4.916,4.7379,4.5213,4.4096,4.4096,4.2157,4.2196,4.4134,4.6072,4.8072,5.0068,5.205,5.2895,5.2895,5.2895,5.2895,5.2895,5.2895,5.2456,5.1513,4.957,4.72,4.4538,4.125,3.8725,3.665,3.4473,3.303,3.2165,3.2261,3.15,3.0552,3.068,3.0382,3.0151,3.0333,3.1775,3.3401,3.4355,3.3804,3.4061,3.7846,3.8473,3.8841,4.0782,4.1211,4.1348,4.1933,4.2266,4.2773,4.3808,4.4062,4.4336,4.4941,4.4977,4.5176,4.5625,4.582,4.6016,4.6289,4.6308,4.6308,4.6308,4.6308,4.6308,4.6308,4.6308,4.6308,4.6308,4.6308,4.6308,4.6308,4.6308,4.6504,4.6889,4.6889,4.6889,4.6889,4.6889,4.6699,4.6308,4.6308,4.6308,4.6308,4.6308,4.6308,4.6308,4.6308,4.6308,4.6348,4.6733,4.7031,4.7168,4.482,4.4513,4.5443,4.7929,4.9683,5.1585,5.4063,5.4355,5.2911,4.9155,5.0587,5.0511,4.6777,4.8118,4.931,4.931,5.0326,5.1969,5.4465,5.411,5.4014,5.4373,5.4363,5.2393,4.8097,4.5637,4.4327,4.4159,4.2331,4.237,4.4176,4.6278,4.8253,5.0068,5.205,5.2895,5.2895,5.2895,5.2895,5.2895,5.2698,5.1583,4.9748,4.7577,4.4287,4.0531,3.8396,3.6241,3.4083,3.1846,2.9815,2.8232,2.847,2.8591,2.87,2.9128,3.0482,3.1888,3.2083,3.3822,3.6109,3.8118,3.6986,3.6072,3.8702,3.8769,3.8856,4.0879,4.1289,4.1484,4.2284,4.2479,4.2969,4.4238,4.4141,4.418,4.5019,4.5094,4.5293,4.5683,4.6074,4.6308,4.6308,4.6308,4.6308,4.6308,4.6308,4.6308,4.6308,4.6308,4.6308,4.6308,4.6308,4.6308,4.6308,4.6308,4.6504,4.6889,4.6889,4.6889,4.6889,4.6889,4.6699,4.6308,4.6308,4.6308,4.6308,4.6308,4.6308,4.6308,4.6308,4.6308,4.6367,4.6816,4.7207,4.7461,4.2625,4.318,4.4885,4.6973,4.8882,5.0874,5.2978,5.2258,5.1165,5.0271,4.9548,4.8854,4.7941,4.966,5.0912,5.0912,5.2659,5.3985,5.4561,5.4863,5.4356,5.2874,5.2801,5.1558,4.8895,4.7706,4.6251,4.4583,4.3829,4.3867,4.4638,4.7831,4.957,5.0068,5.205,5.2895,5.2895,5.2895,5.2895,5.2792,5.1233,5.0375,4.9605,4.6072,4.3101,4.0318,3.6692,3.3961,3.1805,2.9607,2.8586,2.8192,2.8259,2.8417,2.8947,3.0694,3.1673,3.2556,3.4229,3.6398,3.84,3.9156,4.0062,4.0908,4.1501,4.1526,4.157,4.2029,4.1894,4.1914,4.2773,4.3203,4.375,4.4726,4.5098,4.543,4.5957,4.6016,4.6055,4.6152,4.625,4.6308,4.6308,4.6308,4.6308,4.6308,4.6308,4.6308,4.6308,4.6308,4.6308,4.6308,4.6308,4.6308,4.6308,4.6308,4.6504,4.6889,4.6889,4.6889,4.6889,4.6889,4.6699,4.6308,4.6308,4.6308,4.6308,4.6308,4.6308,4.6308,4.6308,4.6308,4.6387,4.7168,4.7285,4.7051,4.4548,4.4811,4.6109,4.8108,4.932,5.0681,5.2594,5.2237,5.1375,5.0437,5.0636,5.0543,4.9564,5.1295,5.2376,5.2156,5.3137,5.4009,5.4572,5.3717,5.2938,5.2366,5.1236,4.9496,4.7143,4.6681,4.5981,4.5047,4.4604,4.4972,4.6193,4.8773,5.0481,5.1408,5.2456,5.2895,5.2895,5.2895,5.2362,5.1408,5.041,4.8866,4.6823,4.3706,4.0608,3.7474,3.4294,3.1722,2.969,2.8586,2.8179,2.8179,2.8179,2.8393,2.8992,3.1009,3.2582,3.407,3.6085,3.8576,4.0631,4.065,4.1865,4.2988,4.2773,4.2578,4.2382,4.2382,4.2422,4.2539,4.3029,4.3418,4.3984,4.484,4.5039,4.5351,4.6191,4.6133,4.6074,4.6289,4.6308,4.6308,4.6308,4.6308,4.6308,4.6308,4.6308,4.6308,4.6308,4.6308,4.6308,4.6308,4.6308,4.6308,4.6308,4.6308,4.6406,4.6641,4.6641,4.6641,4.6641,4.6641,4.6504,4.6308,4.6308,4.6308,4.6308,4.6308,4.6308,4.6308,4.6308,4.6308,4.6387,4.7031,4.7129,4.6889,4.7394,4.7285,4.8035,4.9712,5.0269,5.1033,5.2629,5.2895,5.2327,5.0717,5.2291,5.2938,5.1332,5.2622,5.3381,5.292,5.2895,5.3356,5.4396,5.2221,5.116,5.1717,4.9518,4.7067,4.453,4.447,4.4753,4.526,4.5141,4.6144,4.8214,4.977,5.1373,5.2895,5.2895,5.2895,5.2895,5.2895,5.1782,4.9961,4.9641,4.7116,4.3315,4.1149,3.7751,3.3879,3.2052,3.0024,2.8179,2.8179,2.8179,2.8179,2.8179,2.8366,2.8968,3.1274,3.3432,3.5539,3.7899,4.0428,4.2363,4.209,4.2871,4.3613,4.3262,4.2851,4.2558,4.2596,4.2871,4.3166,4.3281,4.3594,4.4121,4.5,4.4844,4.5019,4.6133,4.5996,4.5918,4.6269,4.6308,4.6308,4.6308,4.6308,4.6308,4.6308,4.6308,4.6308,4.6308,4.6308,4.6308,4.6308,4.6308,4.6308,4.6308,4.6308,4.6308,4.6308,4.6308,4.6308,4.6308,4.6308,4.6308,4.6308,4.6308,4.6308,4.6308,4.6308,4.6308,4.6352,4.6726,4.6836,4.6876,4.7232,4.741,4.7381,4.7394,4.8397,4.9677,4.9961,5.1373,5.2594,5.2861,5.2895,5.2826,5.2525,5.2807,5.2926,5.2625,5.2857,5.297,5.2895,5.2895,5.3146,5.3783,5.2235,5.0651,4.9088,4.7419,4.5348,4.2803,4.2763,4.3435,4.4775,4.6065,4.7894,5.0229,5.1782,5.2629,5.2895,5.2895,5.2895,5.2895,5.2895,5.1782,4.9855,4.8108,4.4923,4.1032,3.9047,3.5604,3.1805,3.1516,3.0024,2.8179,2.8179,2.8179,2.8179,2.8179,2.8219,2.9061,3.3079,3.4481,3.5716,4.0101,4.1812,4.246,4.2832,4.3301,4.3691,4.3633,4.3301,4.3086,4.3457,4.3281,4.332,4.4082,4.4258,4.459,4.5449,4.5547,4.5683,4.623,4.625,4.623,4.6289,4.6308,4.6308,4.6308,4.6308,4.6308,4.6308,4.6308,4.6308,4.6308,4.6308,4.6308,4.6308,4.6308,4.6308,4.6308,4.6308,4.6308,4.6308,4.6308,4.6308,4.6308,4.6308,4.6308,4.6308,4.6308,4.6308,4.6308,4.6308,4.6308,4.6464,4.8419,4.9169,4.9169,4.9231,4.9458,4.9446,5.0446,5.0998,5.1642,5.1642,5.2327,5.2895,5.2895,5.2895,5.2895,5.2895,5.2895,5.2491,5.1408,5.1268,5.1268,5.1268,5.2258,5.268,5.2106,5.0133,4.8199,4.6534,4.452,4.2899,4.1758,4.1719,4.3123,4.599,4.6928,4.8488,5.065,5.2167,5.2895,5.2895,5.2895,5.2895,5.2826,5.1747,4.9463,4.6374,4.4336,4.1051,3.7157,3.5063,3.3063,3.1227,3.0066,2.8992,2.8179,2.8179,2.8179,2.8179,2.8179,2.8179,2.8796,3.1928,3.2858,3.3919,3.8664,4.0272,4.1009,4.2665,4.3398,4.3711,4.3711,4.3555,4.3476,4.3672,4.3945,4.4219,4.4375,4.459,4.4961,4.5566,4.5469,4.5547,4.6211,4.6308,4.6308,4.6308,4.6308,4.6308,4.6308,4.6308,4.6308,4.6308,4.6308,4.6308,4.6308,4.6308,4.6308,4.6308,4.6308,4.6308,4.6308,4.6308,4.6308,4.6308,4.6308,4.6308,4.6308,4.6308,4.6308,4.6308,4.6308,4.6308,4.6308,4.6308,4.6172,4.6154,4.8328,4.989,5.0828,4.9596,4.9447,4.9504]},{"header":{"parameterUnit":"m.s-1","parameterCategory":1,"la1":30.6,"la2":28.766,"lo1":-90.7593,"lo2":-88.6598,"dy":0.0162,"dx":0.0183,"nx":116,"ny":114,"refTime":"2023-05-24T12:00:00:Z","depth":0,"parameterNumber":3,"parameterNumberName":"V-component_of_WINDS"},"data":[0.0,0.0,0.0,0.0,0.0,0.0,0.0,0.0,0.0,0.0,0.0,0.0,0.0,0.0,0.0,0.0,0.0,0.0,0.0,0.0,0.0,0.0,0.0,0.0,0.0,0.0,0.0,0.0,0.0,0.0,0.0,0.0,0.0,0.0,0.0,0.0,0.0,0.0,0.0,0.0,0.0,0.0,0.0,0.0,0.0,0.0,0.0,0.0,0.0,0.0,0.0,0.0,0.0,0.0,0.0,0.0,0.0,0.0,0.0,0.0,0.0,0.0,0.0,0.0,0.0,0.0,0.0,0.0,0.0,0.0,0.0,0.0,0.0,0.0,0.0,0.0,0.0,0.0,0.0,0.0,0.0,0.0,0.0,0.0,0.0,0.0,0.0,0.0,0.0,0.0,0.0,0.0,0.0,0.0,0.0,0.0,0.0,0.0,0.0,0.0,0.0,0.0,0.0,0.0,0.0,0.0,0.0,0.0,0.0,0.0,0.0,0.0,0.0,0.0,0.0,0.0,0.0,0.0,0.0,0.0,0.0,0.0,0.0,0.0,0.0,0.0,0.0,0.0,0.0,0.0,0.0,0.0,0.0,0.0,0.0,0.0,0.0,0.0,0.0,0.0,0.0,0.0,0.0,0.0,0.0,0.0,0.0,0.0,0.0,0.0,0.0,0.0,0.0,0.0,0.0,0.0,0.0,0.0,0.0,0.0,0.0,0.0,0.0,0.0,0.0,0.0,0.0,0.0,0.0,0.0,0.0,0.0,0.0,0.0,0.0,0.0,0.0,0.0,0.0,0.0,0.0,0.0,0.0,0.0,0.0,0.0,0.0,0.0,0.0,0.0,0.0,0.0,0.0,0.0,0.0,0.0,0.0,0.0,0.0,0.0,0.0,0.0,0.0,0.0,0.0,0.0,0.0,0.0,0.0,0.0,0.0,0.0,0.0,0.0,0.0,0.0,0.0,0.0,0.0,0.0,0.0,0.0,0.0,0.0,0.0,0.0,0.0,0.0,0.0,0.0,0.0,0.0,0.0,0.0,0.0,0.0,0.0,0.0,0.0,0.0,0.0,0.0,0.0,0.0,0.0,0.0,0.0,0.0,0.0,0.0,0.0,0.0,0.0,0.0,0.0,0.0,0.0,0.0,0.0,0.0,0.0,0.0,0.0,0.0,0.0,0.0,0.0,0.0,0.0,0.0,0.0,0.0,0.0,0.0,0.0,0.0,0.0,0.0,0.0,0.0,0.0,0.0,0.0,0.0,0.0,0.0,0.0,0.0,0.0,0.0,0.0,0.0,0.0,0.0,0.0,0.0,0.0,0.0,0.0,0.0,0.0,0.0,0.0,0.0,0.0,0.0,0.0,0.0,0.0,0.0,0.0,0.0,0.0,0.0,0.0,0.0,0.0,0.0,0.0,0.0,0.0,0.0,0.0,0.0,0.0,0.0,0.0,0.0,0.0,0.0,0.0,0.0,0.0,0.0,0.0,0.0,0.0,0.0,0.0,0.0,0.0,0.0,0.0,0.0,0.0,0.0,0.0,0.0,0.0,0.0,0.0,0.0,0.0,0.0,0.0,0.0,0.0,0.0,0.0,0.0,0.0,0.0,0.0,0.0,0.0,0.0,0.0,0.0,0.0,0.0,0.0,0.0,0.0,0.0,0.0,0.0,0.0,0.0,0.0,0.0,0.0,0.0,0.0,0.0,0.0,0.0,0.0,0.0,0.0,0.0,0.0,0.0,0.0,0.0,0.0,0.0,0.0,0.0,0.0,0.0,0.0,0.0,0.0,0.0,0.0,0.0,0.0,0.0,0.0,0.0,0.0,0.0,0.0,0.0,0.0,0.0,0.0,0.0,0.0,0.0,0.0,0.0,0.0,0.0,0.0,0.0,0.0,0.0,0.0,0.0,0.0,0.0,0.0,0.0,0.0,0.0,0.0,0.0,0.0,0.0,0.0,0.0,0.0,0.0,0.0,0.0,0.0,0.0,0.0,0.0,0.0,0.0,0.0,0.0,0.0,0.0,0.0,0.0,0.0,0.0,0.0,0.0,0.0,0.0,0.0,0.0,0.0,0.0,0.0,0.0,0.0,0.0,0.0,0.0,0.0,0.0,0.0,0.0,0.0,0.0,0.0,0.0,0.0,0.0,0.0,0.0,0.0,0.0,0.0,0.0,0.0,0.0,0.0,0.0,0.0,0.0,0.0,0.0,0.0,0.0,0.0,0.0,0.0,0.0,0.0,0.0,0.0,0.0,0.0,0.0,0.0,0.0,0.0,0.0,0.0,0.0,0.0,0.0,0.0,0.0,0.0,0.0,0.0,0.0,0.0,0.0,0.0,0.0,0.0,0.0,0.0,0.0,0.0,0.0,0.0,0.0,0.0,0.0,0.0,0.0,0.0,0.0,0.0,0.0,0.0,0.0,0.0,0.0,0.0,0.0,0.0,0.0,0.0,0.0,0.0,0.0,0.0,0.0,0.0,0.0,0.0,0.0,0.0,0.0,0.0,0.0,0.0,0.0,0.0,0.0,0.0,0.0,0.0,0.0,0.0,0.0,0.0,0.0,0.0,0.0,0.0,0.0,0.0,0.0,0.0,0.0,0.0,0.0,0.0,0.0,0.0,0.0,0.0,0.0,0.0,0.0,0.0,0.0,0.0,0.0,0.0,0.0,0.0,0.0,0.0,0.0,0.0,0.0,0.0,0.0,0.0,0.0,0.0,0.0,0.0,0.0,0.0,0.0,0.0,0.0,0.0,0.0,0.0,0.0,0.0,0.0,0.0,0.0,0.0,0.0,0.0,0.0,0.0,0.0,0.0,0.0,0.0,0.0,0.0,0.0,0.0,0.0,0.0,0.0,0.0,0.0,0.0,0.0,0.0,0.0,0.0,0.0,0.0,0.0,0.0,0.0,0.0,0.0,0.0,0.0,0.0,0.0,0.0,0.0,0.0,0.0,0.0,0.0,0.0,0.0,0.0,0.0,0.0,0.0,0.0,0.0,0.0,0.0,0.0,0.0,0.0,0.0,0.0,0.0,0.0,0.0,0.0,0.0,0.0,0.0,0.0,0.0,0.0,0.0,0.0,0.0,0.0,0.0,0.0,0.0,0.0,0.0,0.0,0.0,0.0,0.0,0.0,0.0,0.0,0.0,0.0,0.0,0.0,0.0,0.0,0.0,0.0,0.0,0.0,0.0,0.0,0.0,0.0,0.0,0.0,0.0,0.0,0.0,0.0,0.0,0.0,0.0,0.0,0.0,0.0,0.0,0.0,0.0,0.0,0.0,0.0,0.0,0.0,0.0,0.0,0.0,0.0,0.0,0.0,0.0,0.0,0.0,0.0,0.0,0.0,0.0,0.0,0.0,0.0,0.0,0.0,0.0,0.0,0.0,0.0,0.0,0.0,0.0,0.0,0.0,0.0,0.0,0.0,0.0,0.0,0.0,0.0,0.0,0.0,0.0,0.0,0.0,0.0,0.0,0.0,0.0,0.0,0.0,0.0,0.0,0.0,0.0,0.0,0.0,0.0,0.0,0.0,0.0,0.0,0.0,0.0,0.0,0.0,0.0,0.0,0.0,0.0,0.0,0.0,0.0,0.0,0.0,0.0,0.0,0.0,0.0,0.0,0.0,0.0,0.0,0.0,0.0,0.0,0.0,0.0,0.0,0.0,0.0,0.0,0.0,0.0,0.0,0.0,0.0,0.0,0.0,0.0,0.0,0.0,0.0,0.0,0.0,0.0,0.0,0.0,0.0,0.0,0.0,0.0,0.0,0.0,0.0,0.0,0.0,0.0,0.0,0.0,0.0,0.0,0.0,0.0,0.0,0.0,0.0,0.0,0.0,0.0,0.0,0.0,0.0,0.0,0.0,0.0,0.0,0.0,0.0,0.0,0.0,0.0,0.0,0.0,0.0,0.0,0.0,0.0,0.0,0.0,0.0,0.0,0.0,0.0,0.0,0.0,0.0,0.0,0.0,0.0,0.0,0.0,0.0,0.0,0.0,0.0,0.0,0.0,0.0,0.0,0.0,0.0,0.0,0.0,0.0,0.0,0.0,0.0,0.0,0.0,0.0,0.0,0.0,0.0,0.0,0.0,0.0,0.0,0.0,0.0,0.0,0.0,0.0,0.0,0.0,0.0,0.0,0.0,0.0,0.0,0.0,0.0,0.0,0.0,0.0,0.0,0.0,0.0,0.0,0.0,0.0,0.0,0.0,0.0,0.0,0.0,0.0,0.0,0.0,0.0,0.0,0.0,0.0,0.0,0.0,0.0,0.0,0.0,0.0,0.0,0.0,0.0,0.0,0.0,0.0,0.0,0.0,0.0,0.0,0.0,0.0,0.0,0.0,0.0,0.0,0.0,0.0,0.0,0.0,0.0,0.0,0.0,0.0,0.0,0.0,0.0,0.0,0.0,0.0,0.0,0.0,0.0,0.0,0.0,0.0,0.0,0.0,0.0,0.0,0.0,0.0,0.0,0.0,0.0,0.0,0.0,0.0,0.0,0.0,0.0,0.0,0.0,0.0,0.0,0.0,0.0,0.0,0.0,0.0,0.0,0.0,0.0,0.0,0.0,0.0,0.0,0.0,0.0,0.0,0.0,0.0,0.0,0.0,0.0,0.0,0.0,0.0,0.0,0.0,0.0,0.0,0.0,0.0,0.0,0.0,0.0,0.0,0.0,0.0,0.0,0.0,0.0,0.0,0.0,0.0,0.0,0.0,0.0,0.0,0.0,0.0,0.0,0.0,0.0,0.0,0.0,0.0,0.0,0.0,0.0,0.0,0.0,0.0,0.0,0.0,0.0,0.0,0.0,0.0,0.0,0.0,0.0,0.0,0.0,0.0,0.0,0.0,0.0,0.0,0.0,0.0,0.0,0.0,0.0,0.0,0.0,0.0,0.0,0.0,0.0,0.0,0.0,0.0,0.0,0.0,0.0,0.0,0.0,0.0,0.0,0.0,0.0,0.0,0.0,0.0,0.0,0.0,0.0,0.0,0.0,0.0,0.0,0.0,0.0,0.0,0.0,0.0,0.0,0.0,0.0,0.0,0.0,0.0,0.0,0.0,0.0,0.0,0.0,0.0,0.0,0.0,0.0,0.0,0.0,0.0,0.0,0.0,0.0,0.0,0.0,0.0,0.0,0.0,0.0,0.0,0.0,0.0,0.0,0.0,0.0,0.0,0.0,0.0,0.0,0.0,0.0,0.0,0.0,0.0,0.0,0.0,0.0,0.0,0.0,0.0,0.0,0.0,0.0,0.0,0.0,0.0,0.0,0.0,0.0,0.0,0.0,0.0,0.0,0.0,0.0,0.0,0.0,0.0,0.0,0.0,0.0,0.0,0.0,0.0,0.0,0.0,0.0,0.0,0.0,0.0,0.0,0.0,0.0,0.0,0.0,0.0,0.0,0.0,0.0,0.0,0.0,0.0,0.0,0.0,0.0,0.0,0.0,0.0,0.0,0.0,0.0,0.0,0.0,0.0,0.0,0.0,0.0,0.0,0.0,0.0,0.0,0.0,0.0,0.0,0.0,0.0,0.0,0.0,0.0,0.0,0.0,0.0,0.0,0.0,0.0,0.0,0.0,0.0,0.0,0.0,0.0,0.0,0.0,0.0,0.0,0.0,0.0,0.0,0.0,0.0,0.0,0.0,0.0,0.0,0.0,0.0,0.0,0.0,0.0,0.0,0.0,0.0,0.0,0.0,0.0,0.0,0.0,0.0,0.0,0.0,0.0,0.0,0.0,0.0,0.0,0.0,0.0,0.0,0.0,0.0,0.0,0.0,0.0,0.0,0.0,0.0,0.0,0.0,0.0,0.0,0.0,0.0,0.0,0.0,0.0,0.0,0.0,0.0,0.0,0.0,0.0,0.0,0.0,0.0,0.0,0.0,0.0,0.0,0.0,0.0,0.0,0.0,0.0,0.0,0.0,0.0,0.0,0.0,0.0,0.0,0.0,0.0,0.0,0.0,0.0,0.0,0.0,0.0,0.0,0.0,0.0,0.0,0.0,0.0,0.0,0.0,0.0,0.0,0.0,0.0,0.0,0.0,0.0,0.0,0.0,0.0,0.0,0.0,0.0,0.0,0.0,0.0,0.0,0.0,0.0,0.0,0.0,0.0,3.7375,3.7494,0.0,0.0,0.0,0.0,0.0,0.0,0.0,0.0,0.0,0.0,0.0,0.0,0.0,0.0,0.0,0.0,0.0,0.0,0.0,0.0,0.0,0.0,0.0,0.0,0.0,0.0,0.0,0.0,0.0,0.0,0.0,0.0,0.0,0.0,0.0,0.0,0.0,0.0,3.66,3.6399,3.6054,3.6415,3.6211,3.5519,0.0,0.0,0.0,0.0,0.0,0.0,0.0,0.0,0.0,0.0,0.0,0.0,0.0,0.0,0.0,0.0,0.0,0.0,0.0,0.0,0.0,0.0,0.0,0.0,0.0,0.0,0.0,0.0,0.0,0.0,0.0,0.0,0.0,0.0,0.0,0.0,0.0,0.0,0.0,0.0,0.0,0.0,0.0,0.0,0.0,0.0,0.0,0.0,0.0,0.0,0.0,0.0,0.0,0.0,0.0,0.0,0.0,0.0,0.0,0.0,0.0,0.0,0.0,0.0,0.0,0.0,0.0,0.0,0.0,0.0,3.8781,3.8571,0.0,0.0,0.0,0.0,0.0,0.0,0.0,0.0,0.0,0.0,0.0,0.0,0.0,0.0,0.0,0.0,0.0,0.0,0.0,0.0,0.0,0.0,0.0,0.0,3.5519,3.5519,3.5519,3.5519,0.0,0.0,0.0,0.0,0.0,0.0,0.0,3.6798,3.7129,3.7807,3.7807,3.7455,3.6813,3.7337,3.6905,3.5686,3.5686,0.0,0.0,0.0,0.0,0.0,0.0,0.0,0.0,0.0,0.0,0.0,0.0,0.0,0.0,0.0,0.0,0.0,0.0,0.0,0.0,0.0,0.0,0.0,0.0,0.0,0.0,0.0,0.0,0.0,0.0,0.0,0.0,0.0,0.0,0.0,0.0,0.0,0.0,0.0,0.0,0.0,0.0,0.0,0.0,0.0,0.0,0.0,0.0,0.0,0.0,0.0,0.0,0.0,0.0,0.0,0.0,0.0,0.0,0.0,0.0,0.0,0.0,0.0,4.1085,4.1414,4.1762,4.2421,4.2421,4.1833,4.0737,4.0049,3.9768,3.9858,0.0,0.0,0.0,0.0,0.0,0.0,0.0,0.0,0.0,0.0,0.0,0.0,0.0,0.0,0.0,0.0,0.0,0.0,0.0,0.0,0.0,3.51,3.5519,3.5519,3.5519,3.5519,3.5519,0.0,0.0,0.0,0.0,0.0,3.7601,3.7648,3.7706,3.7807,3.7807,3.7764,3.7648,3.7024,3.6645,3.6461,3.6461,3.6422,3.6344,0.0,0.0,0.0,0.0,0.0,0.0,0.0,0.0,0.0,0.0,0.0,0.0,0.0,0.0,0.0,0.0,0.0,0.0,0.0,0.0,0.0,0.0,0.0,0.0,0.0,0.0,0.0,0.0,0.0,0.0,0.0,0.0,0.0,0.0,0.0,0.0,0.0,0.0,0.0,0.0,0.0,3.9409,4.0068,0.0,0.0,0.0,0.0,0.0,0.0,0.0,0.0,0.0,0.0,0.0,0.0,0.0,4.1337,4.1014,4.2173,4.2581,4.2171,4.3858,4.4107,4.307,4.3728,4.4018,4.3928,4.3728,0.0,4.0954,3.8721,0.0,0.0,0.0,0.0,0.0,0.0,0.0,0.0,0.0,0.0,0.0,0.0,0.0,0.0,0.0,0.0,0.0,0.0,0.0,0.0,0.0,3.5721,3.5943,3.5522,3.5848,3.6091,3.6101,3.6468,0.0,0.0,0.0,3.763,3.84,3.801,3.8006,3.8467,3.8877,3.8873,3.8414,3.8525,3.7858,3.6615,3.7069,3.6786,3.5908,3.5639,0.0,0.0,0.0,0.0,0.0,0.0,0.0,0.0,0.0,0.0,0.0,0.0,0.0,0.0,0.0,0.0,0.0,0.0,0.0,0.0,0.0,0.0,0.0,0.0,0.0,0.0,0.0,0.0,0.0,0.0,0.0,0.0,0.0,0.0,0.0,0.0,0.0,0.0,0.0,3.9499,4.0487,4.0397,3.9888,3.8811,0.0,0.0,0.0,0.0,0.0,0.0,0.0,0.0,0.0,4.3866,4.4038,4.4236,4.4488,4.5212,4.5424,4.5175,4.6022,4.5933,4.5014,4.5672,4.5762,4.5475,4.6022,4.5785,4.4836,4.2524,4.1619,4.1691,0.0,0.0,0.0,0.0,4.1452,4.2013,0.0,0.0,0.0,0.0,0.0,0.0,0.0,0.0,0.0,0.0,0.0,0.0,3.5852,3.6151,3.6168,3.58,3.6235,3.6635,3.6874,3.7357,3.7843,3.8284,3.8325,3.872,3.9618,3.8949,3.8837,3.9288,3.9842,3.9778,3.9222,3.961,3.8759,3.6919,3.7307,3.6862,3.5759,3.5579,3.5609,3.5729,0.0,0.0,0.0,0.0,0.0,0.0,0.0,0.0,0.0,0.0,0.0,0.0,0.0,0.0,0.0,0.0,0.0,0.0,0.0,0.0,0.0,0.0,0.0,0.0,0.0,0.0,0.0,0.0,0.0,0.0,0.0,0.0,0.0,0.0,0.0,0.0,0.0,4.1205,4.1893,4.1235,4.1678,4.1019,0.0,0.0,0.0,0.0,0.0,0.0,4.5862,4.611,4.6583,4.7385,4.735,4.7489,4.7918,4.7849,4.7818,4.7818,4.7818,4.7459,4.6809,4.7339,4.734,4.6996,4.7732,4.8009,4.7786,4.5753,4.4444,4.3657,4.3255,4.3363,4.3622,4.2896,4.3088,4.37,0.0,0.0,0.0,0.0,0.0,0.0,0.0,0.0,0.0,0.0,0.0,3.5929,3.649,3.5935,3.5812,3.6492,3.66,3.6936,3.7706,3.7781,3.8339,3.964,3.9703,4.0309,4.1614,4.1058,4.052,4.0045,4.0079,4.0087,4.0003,3.9302,3.8525,3.772,3.6979,3.6595,3.6404,3.5759,3.5878,3.6387,3.5759,0.0,0.0,0.0,0.0,0.0,0.0,0.0,0.0,0.0,0.0,0.0,0.0,0.0,0.0,0.0,0.0,0.0,0.0,0.0,0.0,0.0,0.0,0.0,0.0,0.0,0.0,0.0,0.0,0.0,0.0,0.0,0.0,0.0,0.0,0.0,0.0,0.0,0.0,4.323,4.5183,0.0,0.0,0.0,0.0,4.525,4.6078,4.7489,4.9706,5.0491,5.1413,5.258,5.1662,5.0972,5.0692,4.9689,4.9187,4.9187,4.9187,4.8858,4.8199,4.8207,4.8403,4.8676,4.8738,4.8592,4.8134,4.6115,4.562,4.592,4.3971,4.4091,4.5282,4.4559,4.4833,4.5351,0.0,0.0,0.0,0.0,0.0,0.0,0.0,0.0,3.5767,3.6962,3.7535,3.7893,3.806,3.7832,3.7602,3.7411,3.7763,3.8325,3.9023,3.9508,4.0158,4.1058,4.108,4.0928,4.0518,4.0431,4.0065,3.9389,3.9876,4.0113,4.01,3.9825,3.9008,3.7793,3.7484,3.6816,3.5848,3.5609,3.5639,3.5848,3.5609,3.5519,0.0,0.0,0.0,0.0,0.0,0.0,0.0,0.0,0.0,0.0,0.0,0.0,0.0,0.0,0.0,0.0,0.0,0.0,0.0,0.0,0.0,0.0,0.0,0.0,0.0,0.0,0.0,0.0,0.0,0.0,0.0,0.0,0.0,0.0,0.0,0.0,0.0,4.5727,4.7643,0.0,4.6915,4.8434,4.9842,5.0566,5.221,5.3765,5.506,5.5357,5.5711,5.6127,5.5051,5.4091,5.3281,5.2188,5.1037,4.986,4.986,4.9665,4.9283,4.9283,4.9471,4.9872,5.0499,5.0732,5.0584,5.002,4.8745,4.7173,4.7488,4.7421,4.702,4.6752,4.6851,4.7045,0.0,0.0,0.0,0.0,0.0,0.0,0.0,0.0,3.6713,3.7435,3.8408,3.8879,3.8566,3.8712,3.8739,3.8515,3.904,3.9707,4.0427,4.091,4.1441,4.2087,4.2093,4.1499,4.0227,4.0312,4.0053,3.9356,3.9863,4.0113,4.01,3.9837,3.9022,3.7793,3.7531,3.6829,3.5878,3.5878,3.5718,3.5519,3.5519,3.5788,3.6168,0.0,0.0,0.0,0.0,0.0,0.0,0.0,0.0,0.0,0.0,0.0,0.0,0.0,0.0,0.0,0.0,0.0,0.0,0.0,0.0,0.0,0.0,0.0,0.0,0.0,0.0,0.0,0.0,0.0,0.0,0.0,0.0,0.0,0.0,4.5779,4.7865,4.8651,5.1227,5.2577,5.1592,5.3352,5.4971,5.6007,5.6966,5.7983,5.8998,5.8813,5.8477,5.8035,5.6962,5.5727,5.4368,5.3219,5.1949,5.0548,5.0932,5.0781,5.0131,5.0549,5.0767,5.0949,5.1598,5.1951,5.2072,5.2522,5.116,4.891,5.0063,4.9864,4.9003,4.9003,4.8868,4.8646,0.0,0.0,0.0,0.0,0.0,0.0,0.0,3.653,3.7686,3.6931,3.8103,3.8723,3.7945,3.8409,3.9054,3.9799,4.0327,4.0974,4.1764,4.1832,4.2072,4.2664,4.2655,4.2118,4.1036,4.0909,4.0625,4.0113,4.0113,4.0113,4.01,3.9302,3.8539,3.7807,3.7024,3.6645,3.663,3.663,3.6228,3.5554,3.5554,3.6434,3.7623,0.0,0.0,0.0,0.0,0.0,0.0,0.0,0.0,0.0,0.0,0.0,0.0,0.0,0.0,0.0,0.0,0.0,0.0,0.0,0.0,0.0,0.0,0.0,0.0,0.0,0.0,0.0,0.0,0.0,0.0,0.0,0.0,0.0,4.7254,4.8959,5.074,5.1997,5.5961,5.8144,5.697,5.8245,5.9757,6.1264,5.9994,5.9791,6.1264,6.0622,5.9669,5.8465,5.7354,5.5913,5.403,5.292,5.2012,5.1329,5.2448,5.2284,5.1023,5.2084,5.2346,5.199,5.199,5.2107,5.2401,5.3179,5.2621,5.1269,5.1269,5.1235,5.1201,5.1235,5.0777,5.015,0.0,0.0,0.0,0.0,0.0,0.0,0.0,3.7624,3.843,3.7686,3.8882,3.967,3.9301,3.9879,4.0539,4.1181,4.138,4.175,4.2402,4.2442,4.2537,4.2684,4.1863,4.1263,4.0932,4.0551,4.0254,4.0113,4.0113,4.0113,4.01,3.9876,3.9342,3.8594,3.8386,3.7991,3.7455,3.7455,3.7369,3.716,3.716,3.7421,3.7755,0.0,0.0,0.0,0.0,0.0,0.0,0.0,0.0,0.0,0.0,0.0,0.0,0.0,0.0,0.0,0.0,0.0,0.0,0.0,0.0,0.0,0.0,0.0,0.0,0.0,0.0,0.0,0.0,0.0,0.0,0.0,4.868,4.9941,4.9656,5.2316,5.5116,5.7326,5.9519,6.1277,6.2287,6.2803,6.3024,6.2902,6.3024,6.2787,6.211,6.2415,6.2175,6.1292,5.9643,5.8108,5.6731,5.5901,5.4982,5.3983,5.4618,5.4856,5.47,5.4489,5.4175,5.3866,5.3866,5.36,5.3179,5.3416,5.3247,5.2875,5.2875,5.2182,5.1269,5.181,5.1505,5.0897,0.0,0.0,0.0,0.0,0.0,0.0,0.0,3.8261,3.881,3.8299,3.953,4.0385,4.0191,4.1048,4.18,4.216,4.2366,4.2667,4.2995,4.2808,4.273,4.2777,4.1571,4.093,4.1033,4.0436,4.0113,4.0113,4.0113,4.0113,4.01,3.9773,3.9342,3.8894,3.858,3.8548,3.8742,3.8389,3.8814,3.9645,3.9007,3.8748,3.8742,3.8742,3.9224,3.9829,3.9659,3.9865,4.0147,3.9252,0.0,0.0,0.0,0.0,0.0,0.0,0.0,0.0,0.0,0.0,0.0,0.0,0.0,0.0,0.0,0.0,0.0,0.0,0.0,0.0,0.0,0.0,0.0,0.0,5.3282,5.5314,5.5927,5.6857,5.8683,6.1845,6.3217,6.4464,6.5837,6.5696,6.5337,6.4897,6.4715,6.4343,6.3822,6.3903,6.3532,6.2613,6.1471,6.0195,5.8722,5.8293,5.7449,5.623,5.6991,5.6955,5.6191,5.625,5.5853,5.5074,5.5074,5.4634,5.3957,5.3957,5.3788,5.3518,0.0,0.0,0.0,0.0,5.2216,5.2114,0.0,0.0,0.0,0.0,0.0,0.0,0.0,3.8693,3.9139,3.8854,4.0099,4.0949,4.0806,4.1936,4.2713,4.277,4.3223,4.3489,4.34,4.2893,4.267,4.2798,4.1522,4.092,4.117,4.0472,4.0113,4.0113,4.0113,4.0113,4.01,3.9368,3.9029,3.9002,3.8441,3.893,4.0175,3.9538,4.0448,4.2198,4.0878,4.0359,4.0354,4.0241,4.0737,4.1532,4.2187,4.2073,4.1559,4.1481,0.0,0.0,0.0,0.0,0.0,0.0,0.0,0.0,0.0,0.0,0.0,0.0,0.0,0.0,0.0,0.0,0.0,0.0,0.0,0.0,0.0,0.0,0.0,0.0,5.8829,6.211,6.3748,6.205,6.1958,6.5512,6.6609,6.732,6.7963,6.7455,6.6994,6.6927,6.573,6.5189,6.5683,6.5031,0.0,0.0,0.0,6.1849,6.0115,6.0251,5.9643,5.8344,5.9434,5.8799,5.6782,5.7629,5.7273,5.5936,5.5868,5.5412,5.4702,5.4702,5.4296,5.3619,5.3551,5.3518,5.3416,5.2706,5.2875,5.3416,0.0,0.0,0.0,0.0,0.0,0.0,0.0,3.9759,4.0308,3.9673,4.0769,4.1555,4.136,4.215,4.2855,4.3303,4.3454,4.3303,4.2865,4.2312,4.2057,4.2241,4.0974,4.0531,4.1204,4.0472,4.0113,4.0113,4.0113,4.0113,4.0113,3.994,3.9876,3.991,4.0326,4.0708,4.1008,4.1459,4.1909,4.23,4.1995,4.1882,4.1796,4.121,4.1816,4.2978,4.3065,4.374,4.4458,4.3831,4.4004,4.4391,4.3668,4.3122,0.0,0.0,0.0,0.0,0.0,0.0,0.0,0.0,0.0,0.0,0.0,0.0,0.0,0.0,0.0,0.0,0.0,0.0,0.0,5.9336,6.1738,6.3984,6.6677,6.6631,6.6588,6.7366,6.8166,6.8707,6.8842,6.8741,6.8402,6.7726,6.7421,6.6812,6.5751,6.5122,6.4134,6.2749,6.2292,6.1629,6.0715,6.1747,6.1808,6.0977,6.1567,0.0,6.0285,5.9242,5.8321,5.7442,5.6833,5.619,5.5496,5.5496,5.5074,5.4329,5.3721,5.3518,5.3484,5.3348,5.3382,5.3484,0.0,0.0,0.0,0.0,0.0,0.0,0.0,4.008,4.0463,4.0354,4.094,4.1538,4.2059,4.245,4.2939,4.3463,4.325,4.3,4.2808,4.2282,4.2312,4.3158,4.1938,4.1386,4.1745,4.1048,4.0472,4.0113,4.0113,4.0269,4.0629,4.0269,4.0485,4.1183,4.1204,4.1597,4.2307,4.2286,4.274,4.3416,4.2997,4.3301,4.3876,4.276,4.3017,4.4091,4.4796,4.5751,4.6642,4.6628,4.6846,4.7093,4.6762,4.6448,4.5983,0.0,0.0,0.0,0.0,0.0,0.0,0.0,0.0,0.0,0.0,0.0,0.0,0.0,0.0,5.3104,5.5262,0.0,5.9708,6.3463,6.5324,6.6948,6.8774,6.9383,6.9451,6.9079,6.9417,6.9654,6.9654,6.9654,6.9316,6.8571,6.8504,6.8166,6.7421,6.7131,6.6634,6.5922,6.5271,6.4726,6.4408,6.466,6.4261,6.3158,6.3761,6.3091,6.1298,6.0892,5.9877,5.8423,5.8084,5.7255,5.6206,5.5834,5.5277,5.4583,5.4194,5.3822,5.3518,5.3518,5.3518,5.3518,0.0,0.0,0.0,0.0,0.0,0.0,0.0,4.0179,4.0417,4.085,4.099,4.1464,4.2412,4.2537,4.2713,4.3123,4.278,4.2583,4.2743,4.2347,4.2716,4.4083,4.2951,4.2367,4.2489,4.1779,4.1102,4.0519,4.0519,4.0844,4.1407,4.0946,4.1386,4.2489,4.2219,4.2713,4.3829,4.3369,4.389,4.4973,4.4316,4.4809,4.5771,4.4539,4.4451,4.521,4.653,4.7293,4.7819,4.8714,4.9086,4.9255,4.939,4.9627,4.9593,4.8071,4.8376,0.0,0.0,0.0,0.0,0.0,0.0,0.0,0.0,5.14,5.2884,5.4953,5.6445,5.817,6.0706,6.2313,6.4174,6.7015,6.8504,6.9553,7.0297,7.1041,7.1244,7.05,7.0398,7.0398,7.0398,7.0398,7.0161,6.9586,6.9383,6.9316,6.9316,6.9063,6.8863,6.8717,6.819,6.7819,6.7538,6.7214,6.6271,6.4816,6.5425,6.4377,6.1941,6.2245,6.14,5.9622,5.9317,5.8457,5.7171,5.6427,5.5683,5.5023,5.4871,5.4465,5.389,5.3619,5.3585,5.3687,0.0,0.0,0.0,0.0,0.0,0.0,0.0,0.0,4.0839,4.0909,4.1351,4.1757,4.1885,4.1906,4.1927,4.1989,4.1937,4.1991,4.2182,4.2133,4.2518,4.3457,4.2733,4.2625,4.3254,4.2557,4.213,4.2063,4.2063,4.2097,4.2198,4.2746,4.3118,4.3321,4.4606,4.5297,4.55,4.6041,4.6394,4.6563,4.6447,4.6515,4.6665,4.6496,4.6481,4.6665,4.7481,4.7413,4.7124,4.8545,4.9424,5.0101,5.0728,5.1877,5.2706,5.1167,5.0371,4.9627,4.809,4.8294,4.9597,5.2099,5.3485,5.509,0.0,5.9292,5.9793,6.1345,6.2217,6.3162,6.4769,6.5764,6.7083,6.9417,6.9958,7.0331,7.1052,7.1819,7.1988,7.1255,7.1176,7.1176,7.1176,7.1176,7.112,7.1052,7.0432,7.0082,7.0082,6.889,6.7922,6.7331,6.779,6.7493,6.6217,6.7242,6.7049,6.5581,6.5683,6.5155,6.4174,6.2956,6.2265,6.1941,6.0554,5.9505,5.8709,5.7949,5.7205,5.6494,5.5834,5.553,5.5293,5.3974,5.3923,5.4363,0.0,0.0,0.0,0.0,0.0,0.0,0.0,0.0,0.0,4.0441,4.0648,4.0943,4.1228,4.1606,4.1671,4.1296,4.1262,4.1545,4.2176,4.2228,4.2781,4.4025,4.3789,4.3572,4.3389,4.3572,4.3416,4.2949,4.3416,4.3856,4.4282,4.4147,4.4553,4.5399,4.5602,4.6162,4.6974,4.6853,4.7056,4.7481,4.7902,4.8071,4.8173,4.9052,4.9086,4.8661,4.809,4.7684,0.0,4.9154,4.9846,5.032,5.1488,5.1979,5.1945,5.0879,5.0649,5.0882,5.1546,5.2641,5.4042,5.578,5.8223,6.0619,6.2189,6.3547,6.4756,6.5636,6.6745,6.779,6.8781,6.9214,6.9891,7.1244,7.1109,7.0973,7.1255,7.1582,7.165,7.1323,7.1289,7.1289,7.1289,7.1289,7.1289,7.1289,7.1007,7.049,6.9646,6.9051,6.8624,6.8318,6.8172,6.7996,6.7814,6.8333,6.7624,6.5717,6.6596,6.6136,6.458,6.441,6.3619,6.2333,6.0757,5.9945,5.9607,5.9302,5.849,5.7408,5.7103,5.6731,5.6206,5.5158,5.4972,5.5209,0.0,0.0,0.0,0.0,0.0,0.0,0.0,0.0,0.0,0.0,4.0113,4.0254,4.0648,4.107,4.1162,4.0709,4.0868,4.137,4.2225,4.2706,4.3518,4.4838,4.5108,4.4939,4.4336,4.4905,4.4925,4.4336,4.4925,4.5568,4.6297,4.5771,4.6293,4.768,4.7158,4.7631,4.8766,4.824,4.8342,4.8868,4.9375,4.9627,4.9695,5.0558,5.0439,4.9661,4.8612,4.7954,4.7752,4.8815,4.9203,4.939,5.0676,5.1108,5.1078,5.0531,5.0902,5.1983,5.4248,5.6201,5.7932,5.9344,6.2685,6.5565,6.5464,6.7059,6.8662,6.8983,7.0057,7.1084,7.1514,7.1785,7.209,7.2631,7.2259,7.1853,7.165,7.1785,7.1751,7.1357,7.1458,7.1526,7.1323,7.1289,7.1289,7.1289,7.1289,7.086,6.9822,6.9775,6.9775,6.9775,6.9253,6.9127,6.9417,6.9417,6.847,6.6643,6.7489,6.7049,6.5527,6.5628,6.458,6.2651,6.1535,6.0825,6.0419,6.0419,5.9539,5.8186,5.8186,5.7881,5.734,5.6578,5.6172,5.5969,0.0,0.0,0.0,0.0,0.0,0.0,0.0,0.0,0.0,0.0,0.0,0.0,0.0,4.0129,4.0129,4.0138,4.0769,4.15,4.2266,4.3687,4.4871,4.5635,4.6346,4.6733,4.6699,4.6733,4.6733,4.6699,4.6733,4.7124,4.7819,4.7819,4.8612,5.0015,4.9981,5.0405,5.11,5.1066,5.1066,5.11,5.1133,5.1133,5.1066,5.0371,4.9661,4.9052,4.8984,4.8037,4.6834,4.6902,4.6902,4.7022,4.7785,4.9436,5.1099,5.1138,5.1647,5.2701,5.5089,5.7495,5.9998,6.2825,6.6597,6.9568,6.9353,7.046,7.1495,7.1503,7.1935,7.2338,7.236,7.2935,7.3466,7.3466,7.3466,7.3172,7.2462,7.2969,7.2902,7.1458,7.1921,7.209,7.1357,7.1289,7.1289,7.1289,7.1289,7.1289,7.1244,7.1244,7.1244,7.1244,7.121,7.0861,7.0161,7.0184,6.9755,6.8977,6.8233,6.7861,6.776,6.6339,6.4884,6.3443,6.3409,6.2564,6.1264,6.1264,6.0385,5.8979,5.8979,5.8945,5.8844,5.8118,5.7374,5.6664,0.0,0.0,0.0,0.0,0.0,0.0,0.0,0.0,0.0,0.0,0.0,0.0,0.0,0.0,0.0,0.0,3.9535,3.9778,4.0042,4.136,4.2515,4.3417,4.5003,4.6164,4.6786,4.7767,4.8511,4.9,4.9492,4.9848,5.0085,5.0085,5.0356,5.0845,5.0845,5.1251,5.1894,5.1404,5.1094,5.0905,5.0905,5.0905,5.0922,5.0657,5.0225,4.9526,0.0,4.6597,4.5413,4.5906,4.6075,4.6365,4.8,4.9016,4.9938,5.1438,5.354,5.5861,5.8062,6.124,6.4378,6.6267,6.8993,7.1161,7.0965,7.1677,7.2202,7.1541,7.1172,7.0939,7.0939,7.1142,7.1447,7.1954,7.2462,7.2665,7.2428,7.3037,7.2935,7.1458,7.1954,7.2124,7.1357,7.1289,7.0905,6.9973,6.9926,6.9514,6.8634,6.8585,6.8976,6.9902,6.9926,7.0021,7.0195,7.0703,7.0331,6.9113,6.8842,6.8402,6.7861,6.688,6.5899,6.4918,6.4444,6.3666,6.2767,6.2767,6.1854,6.052,6.052,6.0216,5.9641,5.8896,5.8278,5.7631,0.0,0.0,0.0,0.0,0.0,0.0,0.0,0.0,0.0,0.0,0.0,0.0,0.0,0.0,0.0,0.0,0.0,3.8882,3.8902,4.0188,4.1334,4.2189,4.3528,4.4663,4.5487,4.6477,4.7502,4.8492,4.9266,5.0153,5.1201,5.093,5.1235,5.1996,5.1346,5.1464,5.2083,5.1273,5.0671,5.0286,5.0025,4.9993,5.001,4.95,4.9143,0.0,4.6699,4.5379,4.4517,4.4481,4.4836,4.5514,4.7133,4.8783,5.0513,5.2711,5.5395,5.8259,6.1003,6.43,6.7294,6.8711,7.065,7.2174,7.1932,7.2077,7.2146,7.1773,7.0906,7.0217,7.0217,7.0217,7.0364,7.0838,7.1548,7.209,7.236,7.2563,7.2563,7.2157,7.2259,7.2225,7.1751,7.1684,7.1208,7.0053,6.9457,6.9048,6.8683,6.8206,6.8552,6.9902,6.9949,7.0178,7.0601,7.1075,7.0703,6.9485,6.9485,6.9079,6.8301,6.7557,6.6779,6.6034,6.529,6.458,6.3849,6.3612,6.2787,6.167,6.14,6.0994,6.0452,5.9674,5.8872,5.7955,0.0,0.0,0.0,0.0,0.0,0.0,0.0,0.0,0.0,0.0,0.0,0.0,0.0,0.0,0.0,0.0,0.0,0.0,3.8722,4.0109,4.1197,4.1853,4.2029,4.2446,4.3137,4.3315,4.4091,4.5541,4.6319,4.8167,5.0885,5.0226,5.107,5.3062,5.1333,5.0994,5.1597,5.0623,4.984,4.9168,4.8537,4.8403,4.8411,4.716,4.674,4.6724,4.5281,4.4672,4.435,4.2943,4.3524,4.4943,4.5851,4.9038,5.293,5.5122,5.7438,6.006,6.3861,6.6637,6.885,7.0184,7.1663,7.2766,7.2474,7.1853,7.1526,7.2124,7.1041,7.0014,6.9857,6.9947,7.0026,7.015,7.0906,7.1729,7.2529,7.2056,7.2124,7.3466,7.2969,7.2563,7.2563,7.2496,7.2168,7.1402,6.9969,6.9713,7.1074,6.9831,6.9751,7.1267,7.1289,7.1289,7.1289,7.1289,7.0973,7.0263,7.0263,6.9857,6.9147,6.8368,6.759,6.6825,6.6102,6.5358,6.4613,6.3822,6.3079,6.2302,6.1534,6.1191,6.1056,6.0266,5.9028,5.76,0.0,0.0,0.0,0.0,0.0,0.0,0.0,0.0,0.0,0.0,0.0,0.0,0.0,0.0,0.0,0.0,0.0,0.0,3.6393,3.7612,3.8491,3.8826,4.0317,4.1575,4.2462,4.3088,4.3847,4.4773,4.5489,4.6241,4.6977,4.7219,4.7659,4.8181,4.7725,4.7893,4.8505,4.7756,4.718,4.6812,4.6771,4.6799,4.6886,4.7142,4.7737,4.8244,4.7327,4.6969,4.6727,4.5259,4.7179,5.0558,5.2626,5.4689,5.6924,5.9855,6.2342,6.4638,6.6619,6.9315,7.1619,7.1839,7.2619,7.3153,7.253,7.2259,7.1718,7.0229,6.8741,6.7151,6.5527,6.6576,6.8064,6.918,7.1853,7.4255,7.5574,7.6048,7.598,7.5236,7.4965,7.4864,7.4864,7.3849,7.2912,7.2198,6.9392,6.8083,6.8936,6.8172,6.883,7.1222,7.1289,7.1289,7.1289,7.1289,7.1188,7.1041,7.1041,7.0635,6.9891,6.971,6.8876,6.7624,6.7421,6.6609,6.533,6.42,6.2993,6.1757,6.0642,5.987,5.934,5.8604,5.785,5.7143,0.0,0.0,0.0,0.0,0.0,0.0,0.0,0.0,0.0,0.0,0.0,0.0,0.0,0.0,0.0,0.0,0.0,0.0,0.0,3.6178,3.674,3.7172,3.8002,3.8851,3.9686,4.045,4.123,4.2042,4.3055,4.3878,4.4589,4.4925,4.5279,4.5569,4.5373,4.5352,4.5411,4.5144,4.4831,0.0,0.0,4.4947,4.5438,4.6281,4.716,4.7979,4.8207,4.9374,5.094,5.1822,5.3133,5.4786,5.7033,5.9222,6.1415,6.3705,6.5794,6.7749,6.9447,7.1486,7.3008,7.2892,7.2935,7.2732,7.1684,7.0906,6.9891,6.7996,6.6136,6.4478,6.326,6.4816,6.6711,6.7895,7.121,7.4289,7.6115,7.6454,7.6555,7.669,7.642,7.6217,7.6217,7.5473,7.4541,7.3503,7.0707,6.9242,6.9554,6.9274,7.005,7.219,7.1954,7.165,7.1289,7.1594,7.1616,7.1289,7.1289,7.1075,7.0669,7.0353,6.9744,6.8876,6.8571,6.776,6.6601,6.5538,6.411,6.2562,6.2092,6.1131,6.0053,6.0182,5.9545,5.864,0.0,0.0,0.0,0.0,0.0,0.0,0.0,0.0,0.0,0.0,0.0,0.0,0.0,0.0,0.0,0.0,0.0,0.0,0.0,0.0,3.5848,3.6344,3.5818,3.5759,3.6344,3.7003,3.7697,3.846,3.9771,4.1119,4.2493,4.2589,4.2957,4.3565,4.3286,4.2842,4.2341,4.2648,4.264,4.2452,4.27,4.3467,4.4558,0.0,4.6439,4.749,4.9062,5.1754,5.5208,5.9298,5.9575,5.8572,6.0716,6.3445,6.6103,6.7336,6.8722,7.0277,7.2293,7.3375,7.3893,7.3595,7.3042,7.2108,7.0423,6.8872,6.7331,6.5743,6.3822,6.226,6.1818,6.3755,6.5722,6.6723,7.0073,7.3443,7.6082,7.5811,7.6115,7.8204,7.7601,7.703,7.703,7.6757,7.5973,7.4497,7.2952,7.1944,7.1613,7.1548,7.212,7.3454,7.2511,7.1848,7.1594,7.1941,7.1874,7.1424,7.1357,7.1289,7.1289,7.0635,7.0297,7.0184,6.9519,6.8808,6.7996,6.7183,6.5698,6.4002,6.4282,6.3206,6.1654,6.277,6.2108,6.0807,0.0,0.0,0.0,0.0,0.0,0.0,0.0,0.0,0.0,0.0,3.7699,3.6964,0.0,0.0,0.0,0.0,0.0,0.0,0.0,0.0,0.0,3.5699,3.5579,3.5549,3.5669,3.5815,3.5943,3.6096,3.6907,3.7414,3.7723,3.8206,3.851,3.8648,3.9138,3.9292,3.9237,3.9938,4.0529,4.1168,4.2607,4.4016,4.5409,4.7505,0.0,0.0,5.2694,5.3912,5.5299,6.0422,6.2781,6.4099,6.7071,6.907,7.058,7.2057,7.3061,7.3865,7.4877,7.5709,7.5875,7.4024,7.3541,7.2746,6.9944,6.8191,6.6533,6.4321,6.3091,6.1537,5.8761,6.1354,6.4651,6.6911,7.0689,7.4955,7.9692,7.9701,7.96,8.0606,7.8886,7.7682,7.7729,7.5919,7.42,7.2818,7.411,7.443,7.3244,7.2133,7.212,7.3454,7.1003,7.0772,7.3105,7.1423,7.1123,7.2191,7.1594,7.1289,7.1289,7.1154,7.077,7.0195,7.006,6.9586,6.8811,6.7557,6.6174,6.4704,6.3742,6.2428,6.1128,6.1365,6.1223,6.1006,0.0,0.0,0.0,0.0,0.0,0.0,0.0,0.0,3.8387,3.895,3.8165,3.7543,3.7543,3.6907,0.0,0.0,0.0,0.0,0.0,0.0,0.0,0.0,3.6028,3.5848,3.5519,3.5848,3.6028,3.6028,0.0,3.6493,3.6493,3.6447,3.64,3.6447,3.7105,3.7419,3.7565,3.9036,4.0145,4.1161,4.3451,4.508,4.6363,0.0,0.0,0.0,5.3904,5.501,5.6344,6.0202,6.3492,6.646,6.9193,7.1521,7.3403,7.3986,7.466,7.5262,7.5597,7.6206,7.614,7.3598,7.3227,7.2337,6.78,6.6254,6.4747,6.1317,6.0622,6.003,5.8041,6.0867,6.4045,6.567,6.921,7.3466,7.8314,7.9025,7.9735,8.1629,8.0141,7.898,7.9007,7.686,7.5713,7.6272,7.6277,7.5462,7.3663,7.3639,7.3999,7.4637,7.2874,7.2601,7.4062,7.3035,7.2465,7.2394,7.2056,7.1684,7.1289,7.1289,7.1109,7.077,7.077,7.0364,6.961,6.8976,6.7687,6.608,6.573,6.4544,6.3053,6.3353,6.3209,6.2825,0.0,0.0,0.0,0.0,0.0,0.0,0.0,3.8012,3.8316,3.9859,3.9469,3.9098,3.9248,3.8272,3.7375,0.0,0.0,0.0,0.0,0.0,0.0,0.0,0.0,0.0,3.5729,0.0,0.0,3.6913,3.6746,0.0,0.0,0.0,0.0,0.0,3.6646,3.6983,3.7188,3.914,4.0539,0.0,0.0,4.6289,4.7474,0.0,0.0,0.0,0.0,5.5221,5.6582,5.9339,6.2629,6.5937,6.8206,7.1773,7.5063,7.4714,7.5359,7.6173,7.6333,7.6571,7.6074,7.3107,7.2745,7.1621,6.5902,6.4387,6.3094,5.94,5.8964,5.8991,5.8197,6.0893,6.3518,6.4327,6.7429,7.1289,7.5763,7.7026,7.8438,8.1069,8.0382,7.9654,7.9523,7.8042,7.7596,7.8884,7.7417,7.5867,7.4561,7.4929,7.5525,7.6169,7.4632,7.4225,7.5077,7.4613,7.3871,7.2868,7.2699,7.2259,7.1526,7.1526,7.1289,7.0837,7.0837,7.0364,6.9566,6.9566,6.8513,6.6926,6.7344,6.6454,6.4935,6.5381,6.5173,6.4488,0.0,0.0,0.0,0.0,0.0,0.0,0.0,3.7974,3.9247,4.1782,4.1523,4.1343,4.1961,3.9787,3.8033,0.0,0.0,0.0,0.0,0.0,0.0,0.0,0.0,0.0,0.0,0.0,0.0,3.823,3.7614,0.0,0.0,0.0,0.0,0.0,0.0,3.8439,3.8603,4.0219,0.0,0.0,0.0,0.0,0.0,0.0,0.0,0.0,0.0,5.4151,5.4271,5.7982,5.9921,6.1128,6.3433,6.9434,7.5513,7.482,7.6024,7.7765,7.8415,7.8015,7.6597,7.3181,7.2375,7.1117,6.586,6.3631,6.239,6.12,6.0452,5.9679,5.8628,6.0677,6.2845,6.3888,6.6338,6.9671,7.4085,7.5298,7.6332,7.7958,7.8503,7.8513,7.7963,7.8323,7.7818,7.587,7.5496,7.6018,7.7497,7.5117,7.4945,7.7699,7.3762,7.3214,7.6666,7.4697,7.394,7.4367,7.3713,7.3003,7.2293,7.2293,7.1257,6.9385,6.9385,6.8667,6.7475,6.7475,6.6988,6.6195,6.6256,6.57,6.4902,6.4961,6.4946,6.4665,0.0,0.0,0.0,0.0,0.0,0.0,3.7845,3.823,3.9469,4.2551,4.2391,4.2391,4.3419,4.1912,4.0056,0.0,0.0,0.0,0.0,0.0,0.0,0.0,0.0,0.0,0.0,0.0,3.7704,3.902,3.7943,0.0,0.0,0.0,0.0,0.0,0.0,3.9235,4.0281,4.1326,0.0,0.0,0.0,0.0,0.0,0.0,0.0,0.0,0.0,0.0,5.3761,5.574,5.7441,5.8863,5.9336,6.3657,6.8936,7.0752,7.311,7.5177,7.5451,7.6132,7.6088,7.3507,7.2497,7.1077,6.6954,6.4825,6.3144,6.1033,6.0723,6.0541,5.963,6.0689,6.2026,6.2924,6.3651,6.5647,7.0114,7.0642,7.211,7.6098,7.5897,7.5988,7.734,7.6487,7.5667,7.5274,7.6494,7.7357,7.7688,7.529,7.4539,7.5864,7.4168,7.4405,7.6819,7.645,7.6169,7.598,7.5202,7.4424,7.368,7.28,7.194,7.1084,7.0649,7.017,6.9666,6.9666,6.95,6.9202,6.8738,6.8374,6.7926,6.6656,6.615,6.5869,0.0,0.0,0.0,0.0,0.0,3.6686,3.817,3.8571,3.9798,4.2921,4.2761,4.281,4.3878,4.269,4.1044,3.9158,0.0,0.0,0.0,0.0,0.0,0.0,0.0,0.0,0.0,0.0,3.8452,4.0008,3.8841,3.896,0.0,0.0,3.9219,3.9593,0.0,0.0,0.0,0.0,0.0,0.0,0.0,0.0,0.0,0.0,0.0,0.0,0.0,0.0,0.0,0.0,0.0,5.6932,5.6081,5.8421,6.2278,6.6321,6.9685,7.2205,7.284,7.4562,7.5801,7.3943,7.3106,7.1762,6.8052,6.5856,6.3869,6.1298,6.1061,6.1197,6.0825,6.1231,6.1806,6.2333,6.2459,6.3572,6.6722,6.7386,6.9032,7.3011,7.3089,7.3756,7.6206,7.5505,7.5153,7.5767,7.6869,7.7183,7.6493,7.5403,7.4899,7.5112,7.4481,7.5007,7.6774,7.7366,7.7479,7.7198,7.642,7.5676,7.4874,7.3003,7.1788,7.1132,6.9964,6.9466,6.9466,6.9466,6.9713,7.0033,6.9533,6.9068,6.8569,6.7463,6.6534,6.561,0.0,0.0,0.0,0.0,0.0,0.0,0.0,3.8943,4.0348,4.2961,4.2761,4.2631,4.325,4.1575,4.0397,4.0367,0.0,0.0,0.0,0.0,0.0,0.0,0.0,0.0,0.0,0.0,3.9367,4.1373,4.0696,4.1074,4.237,4.2628,4.235,4.1717,0.0,0.0,0.0,0.0,0.0,0.0,0.0,0.0,0.0,0.0,0.0,0.0,0.0,0.0,0.0,0.0,0.0,0.0,0.0,5.4578,5.6841,6.2267,6.6435,6.9664,7.1742,7.4253,7.5957,7.4531,7.4292,7.3237,6.8974,6.6223,6.4174,6.2685,6.1806,6.1535,6.2265,6.24,6.2381,6.24,6.3632,6.4622,6.4725,6.6542,6.7927,6.8089,7.0036,7.2203,7.4222,7.6144,7.729,7.729,7.5832,7.4638,7.3979,7.5426,7.6369,7.6579,7.4455,7.4446,7.6774,7.6801,7.7207,7.8,7.7232,7.6454,7.5594,7.281,7.0373,6.8214,6.6094,6.5165,6.5165,6.5165,6.5994,6.7241,6.7241,6.6359,6.5328,6.6699,6.5459,6.3245,0.0,0.0,0.0,0.0,0.0,0.0,0.0,3.8302,3.9499,4.1713,4.1852,4.2122,4.319,4.2372,4.1782,4.1782,0.0,0.0,0.0,0.0,0.0,0.0,0.0,0.0,0.0,0.0,3.9828,4.1403,4.1383,4.2032,4.3352,4.3619,4.3949,4.4302,4.465,4.5126,0.0,0.0,0.0,0.0,0.0,0.0,5.3459,0.0,0.0,0.0,0.0,0.0,0.0,0.0,0.0,0.0,0.0,0.0,0.0,5.6834,6.0739,6.4474,6.5687,6.8201,7.0439,7.0154,6.9974,6.9375,6.758,6.5842,6.4309,6.3362,6.297,6.3024,6.3768,6.3203,6.3212,6.5099,6.4343,6.3826,6.4828,6.5949,6.7015,6.7874,7.1827,7.4571,7.4723,7.5688,7.6142,7.5691,7.518,7.4813,7.4569,7.5669,7.6118,7.5712,7.6665,7.753,7.8304,7.8867,7.9237,7.9498,7.7695,7.6698,7.6314,7.2873,7.091,7.0192,6.8107,6.7224,6.7272,6.7721,6.8149,6.865,6.9609,6.9737,6.9274,6.8748,6.7999,6.7029,0.0,0.0,0.0,0.0,0.0,0.0,0.0,3.7764,3.8661,4.0427,4.0636,4.1145,4.2442,4.2013,4.1733,4.2021,0.0,0.0,0.0,0.0,0.0,0.0,0.0,0.0,0.0,3.966,4.0618,4.2344,4.2754,4.3831,4.5528,4.6062,4.6322,4.6302,4.6652,4.6788,0.0,0.0,0.0,0.0,0.0,0.0,5.3518,0.0,0.0,0.0,0.0,0.0,0.0,0.0,0.0,0.0,0.0,0.0,0.0,0.0,5.6079,5.9222,6.1958,6.5136,6.7906,6.8754,6.864,6.8229,6.7762,6.6068,6.4478,6.3984,6.368,6.3714,6.4478,6.3948,6.3985,6.5673,6.5105,6.4775,6.5675,6.6615,6.7564,6.8595,7.2505,7.4869,7.421,7.5198,7.5617,7.4963,7.4903,7.4903,7.4903,7.6626,7.7151,7.6082,7.7676,7.8831,7.9419,7.9622,7.9768,7.9708,7.8341,7.7073,7.5836,7.2732,7.1306,7.1155,6.882,6.8425,0.0,6.9567,6.9934,7.049,7.1085,7.0984,7.0482,7.0113,6.9337,6.8248,0.0,0.0,0.0,0.0,0.0,0.0,0.0,0.0,3.7823,3.9152,3.9331,3.9828,4.1134,4.0726,4.0666,4.1343,0.0,0.0,0.0,0.0,0.0,0.0,0.0,0.0,0.0,4.0141,4.1626,4.3972,4.4718,4.6274,4.851,4.9453,4.9158,4.7886,4.8709,4.8308,0.0,0.0,0.0,0.0,0.0,0.0,0.0,0.0,0.0,0.0,0.0,0.0,0.0,0.0,0.0,0.0,0.0,0.0,0.0,0.0,0.0,0.0,0.0,6.4198,6.7285,6.9052,6.9216,6.8912,6.867,6.6508,0.0,6.458,6.4072,6.3835,6.4681,6.4639,6.4598,6.4864,6.5825,6.6633,6.6897,6.8151,6.9364,7.01,7.2505,7.3821,7.3073,7.4749,7.5617,7.4963,7.4903,7.4903,7.4903,7.79,7.8909,7.7354,7.7704,7.8581,7.9983,7.9221,7.8826,7.8821,7.8738,7.7192,7.4327,7.2317,7.1388,7.1205,6.8513,6.8865,7.1284,7.0568,7.1028,7.2111,7.1537,7.0505,6.9504,7.0814,6.9642,6.7521,0.0,0.0,0.0,0.0,0.0,0.0,0.0,0.0,0.0,0.0,3.8631,3.896,3.978,4.0187,4.0666,0.0,0.0,0.0,0.0,0.0,0.0,0.0,0.0,0.0,0.0,4.1028,4.2517,4.4663,4.6252,4.789,4.9488,5.041,5.0673,5.0353,4.9988,4.9627,0.0,0.0,0.0,0.0,0.0,0.0,0.0,0.0,0.0,0.0,5.3518,5.3737,0.0,0.0,0.0,0.0,0.0,0.0,0.0,0.0,5.2306,5.3084,5.6017,0.0,6.0931,6.1374,6.322,6.4723,0.0,6.3869,6.3917,6.4478,6.4478,6.4918,6.6779,6.5061,6.4374,6.7548,6.575,6.4511,6.6113,6.8276,7.0512,7.2691,7.4839,7.5497,7.3821,7.5018,7.5617,7.4963,7.4903,7.4903,7.4903,7.6798,7.7708,7.7322,7.8592,7.9216,7.8965,7.7771,7.7126,7.7065,7.5449,7.4275,7.3498,7.1353,7.0677,7.1158,6.9468,6.9154,6.9847,7.0173,7.0136,7.0031,7.0927,7.1098,7.0837,7.1199,7.0216,6.8773,0.0,0.0,0.0,0.0,0.0,0.0,0.0,0.0,0.0,0.0,0.0,0.0,0.0,0.0,0.0,0.0,0.0,0.0,0.0,0.0,0.0,0.0,0.0,0.0,4.1048,4.2548,4.4429,4.6671,4.8023,4.9658,5.1495,5.2017,5.2046,5.1674,5.0947,0.0,0.0,0.0,0.0,0.0,5.3315,0.0,0.0,0.0,0.0,0.0,5.2939,5.2774,0.0,5.1493,5.1365,5.1561,0.0,0.0,0.0,0.0,5.2108,5.2823,5.4199,5.6495,5.8763,5.9977,6.1972,6.3706,6.387,6.37,6.3714,6.4444,6.4613,6.5087,6.6609,6.6002,6.5954,6.8208,6.7328,6.6942,6.8621,7.0035,7.1875,7.4522,7.5971,7.639,7.5347,7.5916,7.5916,7.4993,7.4903,7.4903,7.4903,7.6434,7.6963,7.6202,7.7772,7.8813,7.9135,7.779,7.6731,7.5917,7.4881,7.3597,7.2204,7.2152,7.2136,7.2151,7.1875,7.1713,7.172,7.1763,7.1351,7.073,7.1142,7.1289,7.1289,7.1289,7.0814,7.017,0.0,0.0,0.0,0.0,0.0,0.0,0.0,0.0,0.0,0.0,0.0,0.0,0.0,0.0,0.0,0.0,0.0,0.0,0.0,0.0,0.0,0.0,0.0,4.2488,4.2147,4.4179,4.6413,4.8778,4.9589,5.1227,5.3518,5.3518,5.3078,5.2266,5.1776,0.0,0.0,0.0,0.0,0.0,5.3518,0.0,0.0,0.0,0.0,0.0,0.0,0.0,0.0,5.0663,5.0371,5.0278,5.0637,0.0,0.0,0.0,0.0,0.0,5.4255,5.655,5.9136,6.1122,6.2687,6.402,6.4982,6.4241,6.3545,6.4275,6.4512,6.4884,6.5886,6.6922,6.7704,6.8053,6.9099,7.0395,7.1992,7.2323,7.3246,7.564,7.642,7.6719,7.6509,7.6509,7.6066,7.4993,7.4903,7.4903,7.4903,7.6434,7.67,7.5286,7.6864,7.8345,7.9773,7.8251,7.6733,7.5307,7.5611,7.4174,7.1313,7.369,7.4349,7.3711,7.4522,7.4756,7.4559,7.3781,7.3094,7.2326,7.1594,7.1289,7.1289,7.1289,7.1143,7.0984,0.0,0.0,0.0,0.0,0.0,0.0,0.0,0.0,0.0,0.0,0.0,0.0,0.0,0.0,0.0,0.0,0.0,0.0,0.0,0.0,0.0,0.0,4.2368,4.2452,4.3714,4.4887,4.6519,4.8726,5.0225,5.1864,5.3518,5.3518,5.3078,5.2334,5.2909,5.2773,5.2131,0.0,0.0,0.0,5.3518,0.0,0.0,0.0,0.0,0.0,0.0,0.0,0.0,4.9326,4.9609,5.0016,4.9045,0.0,0.0,0.0,0.0,0.0,5.6696,5.9186,6.1033,6.0114,6.1733,6.3445,6.2984,6.2719,6.2787,6.3511,6.4174,6.5222,6.7184,6.6856,6.6891,6.8616,6.853,6.9313,7.2334,7.3271,7.4181,7.5741,7.642,7.6395,7.5288,7.5168,7.5078,7.4933,7.4903,7.4903,7.4903,7.6434,7.7191,7.6931,7.8565,7.9528,7.9803,7.759,7.6118,7.5307,7.6148,7.5243,7.2892,7.4636,7.5394,7.5364,7.5477,7.5196,7.4559,7.3781,7.3094,7.2326,7.1594,7.1289,7.1289,7.1289,7.0551,6.9504,0.0,0.0,0.0,0.0,0.0,0.0,0.0,0.0,0.0,0.0,0.0,0.0,0.0,0.0,0.0,0.0,0.0,0.0,0.0,0.0,0.0,4.583,4.4853,4.4669,4.544,4.7104,4.8853,5.066,5.1865,5.3196,5.4684,5.4296,5.3687,5.2976,5.3348,5.3044,5.2334,0.0,0.0,0.0,0.0,0.0,0.0,0.0,0.0,0.0,0.0,0.0,0.0,0.0,4.9443,5.0476,4.9844,0.0,0.0,0.0,0.0,0.0,5.6067,5.8876,6.1468,6.1127,6.3168,6.5168,6.485,6.4174,6.3802,6.4546,6.4952,6.573,6.7557,6.8741,7.0266,7.2692,7.2183,7.2059,7.3793,7.3666,7.4001,7.5707,7.6155,7.6096,7.5497,7.5437,7.5288,7.4933,7.5695,7.6202,7.6202,7.774,7.8659,7.8659,7.9405,8.0227,8.1092,7.9637,7.8123,7.6608,7.6692,7.5932,7.4555,7.6124,7.6409,7.574,7.6586,7.5827,7.3984,7.3612,7.2834,7.1785,7.1424,7.1289,7.1289,7.1289,7.0882,7.0333,0.0,0.0,0.0,0.0,0.0,0.0,0.0,0.0,0.0,0.0,0.0,0.0,0.0,0.0,0.0,0.0,0.0,0.0,0.0,0.0,4.5922,4.7523,4.7439,4.7369,4.7434,4.9159,5.0766,5.2169,5.3109,5.4251,5.5528,5.4959,5.4375,5.3754,5.3754,5.3315,5.2638,5.3247,5.3518,0.0,0.0,0.0,0.0,0.0,0.0,0.0,0.0,0.0,0.0,0.0,0.0,0.0,0.0,0.0,0.0,5.3162,5.4208,5.5606,5.6122,5.8715,6.1467,6.2231,6.4241,6.6216,6.6893,6.6068,6.5392,6.6305,6.663,6.7104,6.8233,7.0454,7.2919,7.5521,7.5039,7.4649,7.553,7.4741,7.4629,7.6155,7.6215,7.6066,7.5916,7.5766,7.5437,7.4963,7.6033,7.6765,7.6765,7.8691,7.9803,7.9803,8.0528,8.1534,8.2774,8.2177,8.0687,7.8251,7.7945,7.7204,7.6181,7.7746,7.7629,7.6295,7.7497,7.641,7.3747,7.3544,7.2732,7.1526,7.1357,7.1289,7.1289,7.1289,7.1289,7.1289,0.0,0.0,0.0,0.0,0.0,0.0,0.0,0.0,0.0,0.0,0.0,0.0,0.0,0.0,0.0,0.0,0.0,0.0,0.0,0.0,4.6717,4.7539,4.9035,4.9853,4.9869,5.0017,5.0643,5.1732,5.3183,5.4288,5.5046,5.5056,5.4852,5.4499,5.4499,5.4093,5.3416,5.3484,5.3518,0.0,0.0,0.0,0.0,0.0,0.0,0.0,0.0,0.0,0.0,0.0,0.0,0.0,0.0,0.0,5.5015,5.5078,5.5844,5.713,5.9156,6.0497,6.1467,6.2231,6.3057,6.4458,6.7184,6.7218,6.7083,6.8538,6.9383,6.9913,7.0014,7.0675,7.1868,7.3944,7.4064,7.4786,7.7259,7.7513,7.7502,7.7652,7.7108,7.6509,7.5946,7.5318,7.4963,7.4903,7.5006,7.5044,7.5044,7.8091,7.9803,7.9803,8.2718,8.4339,8.4419,8.4352,8.287,7.994,8.0641,7.9826,7.78,7.934,7.9238,7.7853,7.7951,7.669,7.4492,7.3781,7.3037,7.2259,7.156,7.1289,7.1289,7.1289,7.1289,7.1289,0.0,0.0,0.0,0.0,0.0,0.0,0.0,0.0,0.0,0.0,0.0,0.0,0.0,0.0,0.0,0.0,0.0,0.0,0.0,0.0,4.7107,4.8416,4.9538,5.0031,4.9909,5.1138,5.2416,5.3743,5.4545,5.4995,5.5054,5.4631,5.4497,5.4583,5.4126,5.3754,5.3518,5.3518,5.3518,5.3518,0.0,0.0,0.0,0.0,0.0,0.0,0.0,0.0,0.0,0.0,5.1186,5.2384,5.2188,5.3698,5.5381,5.5,5.5451,5.6409,5.7712,5.9641,6.1467,6.2231,6.4005,6.6081,6.8166,6.8774,6.9451,7.1413,7.2428,7.3071,7.3544,7.451,7.5455,7.6042,7.6773,7.7216,7.7194,7.7562,7.7502,7.6724,7.6395,7.6006,7.5318,7.5053,7.4903,7.4903,7.5829,7.6864,7.79,8.0075,8.1766,8.2741,8.3981,8.4614,8.4614,8.3667,8.2686,8.1518,8.1843,8.1068,7.9366,7.9947,7.9397,7.8,7.8,7.669,7.4559,7.3781,7.3094,7.2326,7.1594,7.1289,7.1289,7.1289,7.1289,7.1289,0.0,0.0,0.0,0.0,0.0,0.0,0.0,0.0,0.0,0.0,0.0,0.0,0.0,0.0,0.0,0.0,0.0,0.0,4.4298,4.5781,4.7203,4.8582,4.9308,4.9792,5.0128,5.1271,5.2462,5.3676,5.4613,5.4909,5.4574,5.4202,5.4331,5.4905,5.3923,5.3619,5.3822,5.3585,5.3314,5.2973,5.2973,5.2348,0.0,0.0,0.0,0.0,0.0,0.0,0.0,0.0,5.2085,5.3149,5.3098,5.4278,5.5597,5.5108,5.5649,5.6494,5.7002,5.8829,6.0825,6.1806,6.3937,6.6453,6.918,7.0737,7.2293,7.4762,7.51,7.5202,7.5946,7.621,7.6479,7.6963,7.771,7.79,7.6924,7.7167,7.7113,7.6036,7.5916,7.5647,7.4993,7.4903,7.5112,7.5594,7.67,7.8028,7.971,8.1326,8.2684,8.3811,8.4339,8.4478,8.4242,8.3253,8.2509,8.2069,8.2069,8.1393,8.0209,8.0209,7.9397,7.8,7.8,7.669,7.4559,7.3781,7.2935,7.1988,7.1492,7.1289,7.1289,7.1289,7.1289,7.1289,0.0,0.0,0.0,0.0,0.0,0.0,0.0,0.0,0.0,0.0,0.0,0.0,0.0,0.0,0.0,0.0,0.0,0.0,4.4357,4.5898,4.7109,4.7838,4.8379,4.9334,5.0733,5.0117,5.0131,5.0791,5.2878,5.3731,5.3512,5.3824,5.4597,5.5631,5.4143,5.3923,5.4532,5.3822,5.2887,5.1921,5.1921,5.1303,0.0,0.0,0.0,0.0,0.0,0.0,0.0,0.0,5.3228,5.3754,5.5225,5.5699,5.5733,5.5699,5.6731,5.79,5.79,5.8457,5.9385,6.0926,6.2429,6.4931,7.0139,7.3037,7.5449,7.8492,7.7333,7.598,7.6792,7.4858,7.3833,7.5962,7.609,7.6125,7.6689,7.6779,7.6569,7.5976,7.5886,7.5617,7.4963,7.4903,7.559,7.716,7.729,7.8059,7.9712,8.1326,8.223,8.223,8.3784,8.4268,8.349,8.349,8.2746,8.1317,8.1317,8.0885,8.0209,8.0209,7.9397,7.8,7.8,7.669,7.4536,7.3815,7.2631,7.1289,7.1289,7.1289,7.1289,7.1323,7.1323,7.1289,0.0,0.0,0.0,0.0,0.0,0.0,0.0,0.0,0.0,0.0,0.0,0.0,0.0,0.0,0.0,0.0,0.0,0.0,4.5257,4.5172,4.5423,4.6107,4.6714,4.6895,4.6587,4.7774,4.9419,5.1491,5.2573,5.3112,5.3106,5.3691,5.4047,5.4143,5.4228,5.4093,5.3822,5.3585,5.3331,5.3041,5.3041,5.2365,0.0,0.0,0.0,0.0,0.0,0.0,0.0,0.0,0.0,0.0,5.4025,5.5581,5.6934,5.5378,5.6697,5.8457,5.7408,5.8829,6.0858,6.1839,6.5561,6.9801,7.2912,7.413,7.5888,8.0479,8.0073,7.8923,7.9194,7.7561,7.6209,7.6337,7.6092,7.5796,7.5497,7.5886,7.5946,7.5258,7.5198,7.5108,7.4933,7.4903,7.559,7.716,7.729,7.8534,8.1326,8.1939,8.2713,8.3838,8.4366,8.4268,8.349,8.2983,8.2238,8.1317,8.075,8.0412,8.0209,8.0209,7.9397,7.8,7.8,7.6995,7.527,7.4018,7.2631,7.1357,7.1887,7.209,7.2157,7.2665,7.2529,7.209,0.0,0.0,0.0,0.0,0.0,0.0,0.0,0.0,0.0,0.0,0.0,0.0,0.0,0.0,0.0,0.0,0.0,0.0,0.0,4.4683,4.4533,4.4886,4.5164,4.5076,4.4602,4.694,4.8921,5.0401,5.2039,5.256,5.2097,5.3573,5.4309,5.438,5.4837,5.4803,5.4346,5.4059,5.3516,5.287,5.287,5.2487,5.1975,0.0,0.0,0.0,0.0,0.0,0.0,0.0,0.0,0.0,5.3518,5.4905,5.6445,5.5683,5.6934,5.8626,5.893,6.0351,6.2212,6.4106,6.776,7.1853,7.554,7.7299,7.9126,8.2551,8.1866,8.0605,8.0572,7.8639,7.689,7.6417,7.5855,7.5347,7.4963,7.5228,7.5347,7.4963,7.4903,7.4903,7.4903,7.5489,7.6533,7.8186,7.8878,8.0406,8.3026,8.3138,8.3452,8.414,8.4167,8.3659,8.2644,8.2171,8.1596,8.0851,8.0412,8.0209,8.0209,8.0209,7.9397,7.7967,7.7333,7.6386,7.5202,7.4289,7.324,7.2225,7.2665,7.2665,7.2496,7.3229,7.2834,7.1988,0.0,0.0,0.0,0.0,0.0,0.0,0.0,0.0,0.0,0.0,0.0,0.0,0.0,0.0,0.0,0.0,0.0,0.0,0.0,0.0,4.4122,4.3992,4.3877,4.4056,4.4539,4.7242,4.8561,4.8336,5.1284,5.2101,5.1008,5.3445,5.4972,5.5597,5.5665,5.5665,5.553,5.4735,5.3475,5.2029,5.1981,5.1963,5.2047,5.2047,0.0,0.0,0.0,0.0,0.0,0.0,0.0,0.0,5.3518,5.4093,5.504,5.6258,5.734,5.8813,6.1487,6.2434,6.3565,6.7184,6.962,7.2563,7.8213,8.1629,8.3761,8.4377,8.2949,8.1518,8.1231,7.8723,7.6622,7.6333,7.5504,7.4903,7.4903,7.4903,7.4903,7.4903,7.4903,7.4903,7.4903,7.6368,7.7996,7.9681,8.13,8.2881,8.4398,8.4512,8.4167,8.3422,8.3389,8.2712,8.1317,8.1317,8.0919,8.0209,8.0209,8.0209,8.0209,8.0141,7.9295,7.7831,7.6318,7.527,7.4603,7.4603,7.4153,7.35,7.3544,7.3138,7.2597,7.3331,7.2665,7.1492,0.0,0.0,0.0,0.0,0.0,0.0,0.0,0.0,0.0,0.0,0.0,0.0,0.0,0.0,0.0,0.0,0.0,0.0,0.0,0.0,4.2493,4.2971,4.3773,4.4888,4.6304,4.768,4.8446,4.8599,5.0328,5.1463,5.2017,5.3771,5.4668,5.4871,5.5428,5.5361,5.4735,5.3382,5.2927,5.3077,5.2472,5.2573,5.3161,5.3161,5.3314,0.0,0.0,0.0,0.0,0.0,0.0,0.0,5.3518,5.4803,5.6156,5.531,5.7679,6.0554,6.0588,6.2753,6.5751,6.8931,7.3916,7.8822,8.1866,8.349,8.4242,8.3828,8.3828,8.3511,8.2189,8.0369,7.8616,7.7268,7.5841,7.4903,7.4903,7.4903,7.4903,7.4903,7.4903,7.4903,7.4903,7.6368,7.7996,7.9681,8.13,8.2649,8.3681,8.3727,8.3389,8.2678,8.2644,8.2205,8.1317,8.1317,8.0919,8.0209,8.0209,8.0209,8.0175,7.96,7.8551,7.7063,7.6115,7.527,7.4603,7.4603,7.4153,7.3567,7.4153,7.3916,7.3341,7.4086,7.3443,7.2191,0.0,0.0,0.0,0.0,0.0,0.0,0.0,0.0,0.0,0.0,0.0,0.0,0.0,0.0,0.0,0.0,0.0,0.0,0.0,0.0,4.196,4.2516,4.4104,4.5273,4.5885,4.7558,4.8359,4.8182,4.9327,5.0542,5.181,5.2942,5.389,5.4617,5.5006,5.4769,5.3991,5.2807,5.2536,5.2875,5.2469,5.257,5.2942,5.2942,5.2942,5.2942,5.2942,0.0,0.0,0.0,0.0,0.0,0.0,0.0,5.5344,5.5987,5.7832,6.0114,6.2212,6.5019,6.847,7.3274,7.7604,8.119,8.3084,8.4065,8.4478,8.4133,8.4309,8.3865,8.1502,8.0378,7.9003,7.6566,7.5455,7.4903,7.4903,7.4903,7.4903,7.4903,7.4903,7.5214,7.5966,7.7547,7.903,8.0339,8.1901,8.2858,8.2964,8.2983,8.2644,8.19,8.1866,8.1528,8.0784,8.0412,8.0242,8.0209,7.9837,7.9498,7.9126,7.8754,7.7739,7.6284,7.5506,7.4965,7.4603,7.4603,7.4593,7.4593,7.4965,7.4695,7.4119,7.4864,7.3984,7.2496,0.0,0.0,0.0,0.0,0.0,0.0,0.0,0.0,0.0,0.0,0.0,0.0,0.0,0.0,0.0,0.0,0.0,0.0,0.0,0.0,0.0,4.279,4.4676,4.567,4.5658,4.759,4.8397,4.8051,4.8675,4.9898,5.1607,5.2097,5.3112,5.4566,5.4465,5.4059,5.345,5.2367,5.1995,5.2097,5.1961,5.1995,5.2131,0.0,0.0,5.23,5.23,5.2807,5.3518,5.3518,0.0,0.0,0.0,0.0,5.4194,5.6765,5.778,5.9099,6.3666,6.7252,7.121,7.7536,8.031,8.1866,8.3355,8.4167,8.4614,8.4614,8.4614,8.3613,8.0406,7.9802,7.8722,7.5422,7.4813,7.4783,7.4903,7.4813,7.4783,7.4903,7.4903,7.5557,7.7128,7.8689,8.0019,8.1002,8.2489,8.2983,8.2272,8.2205,8.1866,8.1148,8.1088,8.075,8.0006,7.9532,7.9532,8.0006,7.9397,7.872,7.8,7.7874,7.7029,7.5676,7.5067,7.4796,7.4796,7.4796,7.5168,7.5709,7.5709,7.5236,7.4671,7.5303,7.4255,7.2766,0.0,0.0,0.0,0.0,0.0,0.0,0.0,0.0,0.0,0.0,0.0,0.0,0.0,0.0,0.0,0.0,0.0,0.0,3.9781,0.0,0.0,4.4401,4.5256,4.6736,4.8999,4.8735,4.8962,4.9774,4.9242,5.0439,5.3179,0.0,5.3112,5.4583,5.3923,5.3585,5.3382,5.1285,5.0777,5.1302,5.0642,5.0777,5.1336,0.0,0.0,5.23,5.23,5.2807,5.3518,5.3518,5.3518,0.0,0.0,0.0,5.4668,5.5699,5.7356,5.9284,6.1332,6.6812,7.3105,7.7908,8.0716,8.2644,8.4106,8.4512,8.4614,8.4614,8.4614,8.3613,8.0406,7.9802,7.8722,7.5422,7.439,7.424,7.4843,7.439,7.424,7.4843,7.4903,7.5557,7.7128,7.8247,7.947,8.0969,8.1993,8.2238,8.1494,8.1452,8.1088,8.0378,8.0344,8.0006,7.9261,7.9769,7.9769,7.9261,7.9135,7.872,7.8,7.7333,7.6555,7.5676,7.5608,7.554,7.554,7.554,7.5608,7.5709,7.5709,7.5236,7.4603,7.4728,7.4153,7.3375,0.0,0.0,0.0,0.0,0.0,0.0,0.0,0.0,0.0,0.0,0.0,0.0,0.0,0.0,0.0,4.0775,4.0257,3.9978,3.9966,4.1371,4.28,4.4161,4.5859,4.7311,4.8494,4.8313,4.8612,4.9492,4.8732,5.0119,0.0,5.3551,5.4397,0.0,0.0,0.0,0.0,5.0879,5.027,5.0574,5.0252,5.0541,0.0,0.0,0.0,0.0,0.0,0.0,5.3518,5.3518,5.3518,5.3518,5.3518,0.0,0.0,0.0,5.695,5.9438,6.4343,6.8673,7.3071,7.8382,8.0445,8.1765,8.4072,8.4614,8.4614,8.4614,8.4614,8.3758,8.1036,7.9825,7.8463,7.6016,7.4339,7.3582,7.424,7.4091,7.4001,7.43,7.433,7.5319,7.7779,7.8103,7.8978,8.1063,8.1563,8.146,8.0716,8.0682,8.0344,7.9634,7.9972,7.987,7.9126,7.9431,7.9228,7.8483,7.8077,7.7268,7.6157,7.6206,7.5811,7.51,7.51,7.51,7.51,7.51,7.5337,7.5709,7.5709,7.5506,7.5236,7.5236,7.4762,7.4187,0.0,0.0,0.0,0.0,0.0,0.0,0.0,0.0,0.0,0.0,0.0,0.0,0.0,0.0,0.0,0.0,3.9791,3.9601,4.0127,4.1648,4.2927,4.3863,4.6083,4.744,4.7668,4.7802,4.8157,4.8698,4.836,5.0186,5.4076,5.4634,5.5987,0.0,5.5412,5.3788,0.0,0.0,0.0,0.0,0.0,0.0,0.0,0.0,0.0,0.0,0.0,0.0,5.3247,5.345,5.3518,5.3518,5.3518,5.3619,0.0,0.0,0.0,5.8727,6.5087,6.8301,7.121,7.6826,7.9092,8.0648,8.3396,8.4174,8.4309,8.4309,8.4309,8.3652,8.153,7.9845,7.8046,7.576,7.3842,7.2894,7.3552,7.3492,7.3432,7.3642,7.3642,7.4883,7.8066,7.7431,7.8053,8.106,8.0746,8.0358,8.0217,8.0209,7.9938,7.9397,7.9904,7.9769,7.8822,7.8653,7.8348,7.7976,7.7232,7.6313,7.5277,7.5579,7.5405,7.4897,7.4897,7.4897,7.4897,7.4897,7.5202,7.5709,7.5709,7.5709,7.5709,7.5709,7.5337,7.4965,0.0,0.0,0.0,0.0,0.0,0.0,0.0,0.0,0.0,0.0,0.0,0.0,0.0,4.1717,4.108,3.9613,3.9427,3.9421,3.9451,4.0921,4.2487,4.4093,4.5718,0.0,4.7863,4.789,4.7921,4.7954,4.8597,5.1217,5.5597,5.5631,5.7559,6.0926,5.7949,5.5818,5.4329,0.0,0.0,0.0,0.0,0.0,0.0,0.0,0.0,0.0,0.0,0.0,5.2469,5.3247,5.3518,5.3518,5.3518,5.3991,5.4583,0.0,0.0,0.0,5.9708,6.3226,6.7104,7.165,7.6014,7.9769,8.2002,8.305,8.3558,8.3558,8.3558,8.3092,8.1586,7.9903,7.7552,7.371,7.2451,7.2176,7.2864,7.2385,7.2235,7.2894,7.2954,7.4215,7.7457,7.5705,7.6312,8.0941,7.9322,7.8704,8.0099,8.0209,8.0175,8.0141,8.0175,7.9498,7.8068,7.7367,7.7333,7.7976,7.7232,7.6845,7.6763,7.6024,7.5676,7.5642,7.5642,7.5642,7.5642,7.5642,7.5676,7.5709,7.5709,7.5709,7.5709,7.5709,7.5676,7.5642,0.0,0.0,0.0,0.0,0.0,0.0,0.0,0.0,0.0,0.0,0.0,0.0,0.0,4.0261,4.0009,3.9457,3.9391,3.9631,4.0187,4.1185,4.2736,4.4951,4.6026,4.7216,4.8582,4.8157,4.8124,4.8597,4.8394,5.0356,5.4279,5.4769,5.6224,5.8355,5.7273,5.6258,5.5124,5.2385,0.0,0.0,0.0,0.0,0.0,0.0,5.027,5.1522,5.1573,5.2232,5.3112,5.3416,5.3518,0.0,0.0,5.3687,5.3838,5.3632,5.4734,5.6212,5.7139,5.9359,6.2475,6.6922,7.0882,7.4513,7.7599,8.027,8.2069,8.2069,8.2475,8.2181,8.0202,7.8522,7.6981,7.5522,7.303,7.1848,7.3487,7.2686,7.2362,7.3581,7.2864,7.3124,7.5244,7.5223,7.622,7.893,7.9291,7.9632,8.0183,7.9769,7.9498,7.9498,7.9025,7.8517,7.8034,7.7266,7.7029,7.7266,7.6487,7.5671,7.4814,7.5417,7.5209,7.4406,7.5282,7.5709,7.5709,7.5709,7.5709,7.5709,7.5709,7.5709,7.5709,7.5709,7.5709,7.5709,0.0,0.0,0.0,0.0,0.0,0.0,0.0,0.0,0.0,0.0,0.0,0.0,0.0,0.0,4.0307,4.0098,4.0347,4.0784,4.1372,4.2153,4.3424,4.5326,4.5832,4.6749,4.8145,4.744,4.7579,4.8631,4.8157,4.9679,5.3112,5.389,5.5141,5.6765,5.6021,5.5852,0.0,0.0,5.23,5.1504,5.0236,5.0033,5.0507,5.0777,5.1488,5.2334,5.2621,5.3061,5.3518,5.3518,5.3518,0.0,0.0,0.0,0.0,5.2804,5.3634,5.4728,5.4483,5.5974,5.8741,6.3562,6.6832,7.0201,7.518,7.79,7.9726,8.0716,8.1325,8.121,7.9655,7.7744,7.6312,7.6283,7.412,7.2984,7.4463,7.332,7.2748,7.3757,7.2525,7.217,7.3726,7.4451,7.5666,7.7746,7.8829,7.9556,7.9811,7.9397,7.8991,7.8754,7.801,7.7638,7.7638,7.6893,7.6487,7.6487,7.5946,7.5209,7.4331,7.5258,7.5051,7.3999,7.5181,7.5709,7.5709,7.5709,7.5709,7.5709,7.5709,7.5709,7.5709,7.5709,7.5709,7.5709,0.0,0.0,0.0,0.0,0.0,0.0,0.0,0.0,0.0,0.0,0.0,0.0,0.0,0.0,0.0,4.1493,4.2255,4.2802,4.2807,4.3548,4.4362,4.5154,4.5115,4.5524,4.6454,4.5811,4.6255,4.7845,4.7924,4.9377,5.2166,5.301,5.4549,5.6526,5.4448,5.4668,5.663,5.5868,5.5175,5.438,5.2097,5.1201,5.1472,5.3653,5.3585,5.2638,5.4853,5.4786,5.3619,5.3619,5.3619,0.0,0.0,0.0,0.0,0.0,0.0,5.1776,0.0,0.0,0.0,6.1411,6.3947,6.7099,7.4772,7.599,7.6352,7.9363,8.004,8.0073,8.0175,7.7713,7.5723,7.5666,7.5551,7.5461,7.5515,7.4167,7.3199,7.3322,7.1889,7.1505,7.3138,7.3322,7.4646,7.7665,7.7936,7.8285,7.9085,7.9067,7.872,7.7967,7.7266,7.6893,7.686,7.6082,7.5676,7.5709,7.5676,7.5676,7.5676,7.5676,7.5303,7.4627,7.5371,7.5676,7.5676,7.5676,7.5709,7.5709,7.5709,7.5709,7.5709,7.5709,7.5709,7.5709,0.0,0.0,0.0,0.0,0.0,0.0,0.0,0.0,0.0,0.0,0.0,0.0,0.0,0.0,4.2321,4.2141,4.236,4.257,4.2726,4.2352,4.3027,4.5048,4.4502,4.4812,4.625,4.6748,4.6881,4.6675,4.802,4.869,4.8733,5.0309,5.158,5.2571,5.3212,5.3518,5.345,5.2198,5.2469,5.3619,5.1319,5.1048,5.2029,5.208,5.257,5.3315,5.4499,5.5344,5.5886,5.5886,5.5886,5.5559,0.0,0.0,0.0,0.0,0.0,0.0,4.8828,0.0,0.0,0.0,0.0,0.0,6.6297,6.9244,7.1751,7.4728,7.6183,7.7468,7.9092,7.9159,7.8564,7.744,7.4059,7.215,7.3855,7.1835,7.1169,7.3857,7.1844,7.1022,7.3046,7.4258,7.5781,7.7746,7.8941,7.9431,7.9135,7.8585,7.7705,7.6386,7.669,7.6623,7.6048,7.5303,7.5168,7.5676,7.5168,7.4897,7.4931,7.5473,7.4999,7.3883,7.5134,7.5405,7.4965,7.5473,7.5709,7.5709,7.5709,7.5709,7.5709,7.5709,7.5709,7.5709,0.0,0.0,0.0,0.0,0.0,0.0,0.0,0.0,0.0,0.0,0.0,0.0,0.0,0.0,0.0,4.3589,4.3713,4.3831,4.3926,4.3234,4.3457,4.4908,4.41,4.4229,4.5597,4.5865,4.6042,4.6191,4.6995,4.719,4.6853,4.8365,0.0,0.0,0.0,5.186,5.2198,5.0726,5.1217,5.2942,5.2232,5.2672,5.3771,5.4279,5.4989,5.5868,5.663,5.7645,5.8524,5.7577,5.7036,5.6367,0.0,0.0,0.0,0.0,0.0,0.0,0.0,0.0,5.0035,5.3147,0.0,0.0,6.3999,6.6778,6.9248,7.3138,7.4627,7.5743,7.7401,7.7505,7.6893,7.5456,7.2561,7.1301,7.3625,7.164,7.0862,7.3307,7.1749,7.1106,7.2613,7.4786,7.6362,7.6945,7.8703,7.9295,7.8247,7.7164,7.6183,7.527,7.5405,7.5236,7.4796,7.4356,7.4356,7.4762,7.4356,7.4289,7.4603,7.5067,7.4593,7.3601,7.5067,7.51,7.4221,7.527,7.5709,7.5676,7.5371,7.5439,7.5709,7.5709,7.5709,7.5709,0.0,0.0,0.0,0.0,0.0,0.0,0.0,0.0,0.0,0.0,0.0,0.0,0.0,0.0,0.0,0.0,4.5523,4.5603,4.5449,4.4913,4.4624,4.4624,4.3771,4.3713,4.4605,4.4112,4.4492,4.5871,4.5443,4.5478,4.6067,4.7121,0.0,0.0,0.0,0.0,5.186,5.0793,5.1048,5.2334,5.3957,5.5108,5.6037,5.8201,5.9013,5.9115,5.9945,6.0689,6.0994,5.8964,5.764,5.6441,5.3911,5.3301,5.3025,0.0,5.0096,0.0,0.0,0.0,0.0,5.4086,5.4922,0.0,6.4392,6.6035,6.7339,7.2094,7.3228,7.3632,7.4508,7.3775,7.2483,7.0999,7.1,7.1945,7.3944,7.2401,7.1397,7.2199,7.1584,7.1401,7.2203,7.4936,7.6459,7.599,7.7774,7.828,7.6961,7.5439,7.4603,7.4603,7.3883,7.35,7.35,7.3432,7.3432,7.35,7.3432,7.3713,7.4333,7.4458,7.4086,7.3466,7.4931,7.4796,7.3601,7.4999,7.5642,7.5642,7.4999,7.5134,7.5709,7.5709,7.5709,7.5709,0.0,0.0,0.0,0.0,0.0,0.0,0.0,0.0,0.0,0.0,0.0,0.0,0.0,0.0,0.0,0.0,4.534,4.4921,4.3847,4.3666,4.3576,4.3576,4.3409,4.3389,4.3606,4.4235,4.4368,4.3858,4.5276,4.5655,4.5098,4.6814,0.0,0.0,0.0,4.9796,4.9729,5.1251,5.1691,5.1607,5.3721,5.5412,5.6765,5.8371,5.9013,5.9182,6.0588,6.1163,6.1231,6.0791,5.9141,5.6954,5.4972,5.2617,5.0466,4.9617,4.9101,4.8944,0.0,0.0,5.0569,5.281,5.4538,0.0,5.7633,5.955,6.1504,6.3367,6.4639,6.6005,6.7997,6.9501,6.9577,6.7,6.9323,7.157,7.1991,7.0614,7.0286,7.2147,7.1203,7.1158,7.3029,7.4887,7.6383,7.7472,7.7423,7.7198,7.6927,7.5439,7.4603,7.4603,7.3883,7.35,7.35,7.2902,7.2902,7.35,7.2902,7.2699,7.2834,7.3443,7.3308,7.2699,7.4187,7.4322,7.3567,7.4458,7.5168,7.5676,7.554,7.5574,7.5709,7.5709,7.5709,7.5709,0.0,0.0,0.0,0.0,0.0,0.0,0.0,0.0,0.0,0.0,0.0,0.0,0.0,0.0,0.0,0.0,0.0,0.0,0.0,4.3489,4.329,4.329,4.329,4.3439,4.3788,4.3972,4.4143,4.4296,4.4607,4.4917,4.5277,4.6369,0.0,0.0,0.0,5.0101,5.0186,5.1657,5.2334,5.252,5.4803,5.6596,5.8084,5.9554,6.0603,6.1347,6.2124,6.2226,6.1894,6.1253,6.0121,5.8432,5.5257,5.3787,5.2959,5.1271,5.0511,5.0301,5.0607,5.0697,5.1249,5.3489,5.4221,0.0,0.0,5.8119,5.9306,6.1252,6.1965,6.2696,6.4135,6.5237,6.5573,6.4452,6.7457,6.9802,6.939,6.9899,7.0817,7.2209,7.2096,7.2462,7.388,7.5396,7.6626,7.7386,7.6724,7.6149,7.5777,7.4056,7.3179,7.3487,7.212,7.1694,7.2394,7.2056,7.2056,7.2394,7.2022,7.2056,7.2428,7.2766,7.2732,7.2496,7.3984,7.4187,7.3601,7.4695,7.5371,7.5676,7.5303,7.5371,7.5709,7.5709,7.5946,7.6284,4.6447,0.0,0.0,0.0,0.0,0.0,0.0,0.0,0.0,4.7249,0.0,0.0,0.0,0.0,0.0,0.0,0.0,0.0,4.4296,4.3668,4.325,4.313,4.325,4.3519,4.3928,4.3519,4.3818,4.4915,4.4018,4.4345,4.5821,4.6411,4.718,4.8133,4.9781,5.0777,5.1269,5.2148,5.2976,5.3923,5.6122,5.7577,5.8573,6.0723,6.2178,6.3119,6.3269,6.2997,6.2376,6.113,6.0521,5.9625,5.5813,5.5385,5.5857,5.3615,5.2875,5.2755,5.2552,5.2731,5.3296,5.4805,5.4744,5.4884,0.0,0.0,0.0,5.9844,6.0009,5.9882,6.0375,6.067,6.0951,6.1165,6.4583,6.6912,6.6008,6.8694,7.1044,7.174,7.2613,7.3343,7.3825,7.5178,7.6217,7.6657,7.5676,7.4931,7.4603,7.2734,7.1894,7.2371,7.0583,7.017,7.1289,7.1289,7.1289,7.1289,7.1289,7.1616,7.2191,7.2191,7.2259,7.2462,7.368,7.3916,7.3601,7.4931,7.5473,7.5439,7.4999,7.5168,7.5709,7.5879,7.6352,7.6927,4.6369,4.7669,0.0,0.0,4.8347,0.0,0.0,0.0,4.7219,4.7309,4.7818,0.0,0.0,0.0,0.0,0.0,0.0,4.4296,4.4296,4.3668,4.304,4.2511,4.301,4.307,4.262,4.309,4.3349,4.3549,4.4278,4.5147,4.6177,4.7703,4.8912,4.9873,5.1371,5.1725,5.1302,5.2739,5.3788,5.4685,5.6867,5.7103,5.6511,6.0689,6.1975,6.1669,6.2493,6.2436,6.1857,6.0976,6.0052,5.9072,5.789,5.614,5.4665,5.5499,5.5324,5.5209,5.6859,5.8227,5.8535,5.5862,5.7306,5.8084,5.3216,0.0,5.5107,5.3621,0.0,5.4129,5.4219,0.0,0.0,5.4488,5.9201,6.2535,6.1263,6.5398,6.8813,6.9562,7.0796,7.158,7.1679,7.2433,7.3713,7.5676,7.3916,7.3308,7.4536,7.3135,7.2325,7.2394,7.1548,7.112,7.1289,7.1289,7.1289,7.1289,7.1289,7.1323,7.1424,7.1424,7.1785,7.2428,7.2563,7.2969,7.3567,7.439,7.4705,7.4796,7.5337,7.5642,7.5777,7.6487,7.6826,7.6995,4.6213,4.7748,0.0,0.0,4.7835,4.8404,4.6584,0.0,4.7878,4.7878,4.8139,4.8476,4.8933,4.8065,4.7459,0.0,4.6591,4.5723,4.4945,4.4616,0.0,4.4098,4.4317,4.4347,4.4098,4.3958,4.4559,4.5928,4.5141,4.621,4.886,4.8752,4.941,5.0777,5.1826,5.2401,5.2621,5.4143,5.4702,5.4837,5.7476,5.7645,5.6833,6.1332,6.2925,6.2713,6.2358,6.1877,6.1224,6.0125,5.9736,5.9431,5.7947,5.7264,5.7004,5.6765,5.6496,5.6466,5.7304,5.7954,5.8169,5.7131,5.6803,5.607,5.353,5.2935,5.2755,5.2306,0.0,0.0,0.0,0.0,0.0,0.0,5.7817,6.0169,5.9152,6.2309,6.5857,6.8983,6.9116,6.9313,7.0162,7.1556,7.2969,7.4322,7.3172,7.2665,7.3308,7.1959,7.1352,7.1763,7.0695,7.0482,7.1289,7.1289,7.1289,7.1289,7.1289,7.1289,7.1289,7.1289,7.1458,7.1785,7.2225,7.28,7.3567,7.4289,7.4864,7.5337,7.6082,7.6386,7.6386,7.6251,7.7029,7.8179,4.5677,0.0,0.0,0.0,4.7437,4.8296,4.68,4.7399,4.8087,4.8289,4.8319,4.8865,5.0338,4.9344,4.8798,4.9337,4.8267,4.716,4.6172,4.5783,4.5334,4.4796,4.5095,4.5056,4.4517,4.463,4.5422,4.6962,4.6228,4.7351,5.0208,4.9856,5.0343,5.1539,5.2706,5.3551,5.416,5.5331,5.5843,5.6078,5.8245,5.895,5.9031,6.187,6.2976,6.2909,6.199,6.1164,6.0331,5.9405,5.9435,5.9548,5.8112,5.8321,5.8919,5.7932,5.7902,5.8171,5.7962,5.846,5.8791,5.7828,5.6444,5.4956,5.3667,5.2671,5.2103,5.2396,5.2546,0.0,0.0,0.0,5.4007,5.479,0.0,5.7895,5.7401,5.9153,6.2107,6.6379,6.6787,6.7296,6.8763,7.0096,7.1339,7.2293,7.1626,7.1447,7.209,7.0958,7.0597,7.1267,7.0309,7.0263,7.1289,7.1289,7.1289,7.1289,7.1289,7.1289,7.1289,7.1289,7.1289,7.1323,7.209,7.28,7.3567,7.4289,7.5168,7.6082,7.6657,7.7164,7.7435,7.686,7.7671,7.9034,4.4488,4.6233,0.0,0.0,4.7437,4.845,4.7422,4.7309,4.7578,4.8229,4.8319,4.9015,5.0936,5.0032,5.0025,5.1917,4.9733,4.8259,4.8229,4.701,4.5403,4.3439,4.4616,4.4427,4.253,4.458,4.5417,4.4905,4.7353,4.8642,4.8825,5.1095,5.2199,0.0,5.4583,5.5597,5.5628,5.5942,5.7277,5.9185,5.9387,6.1122,6.3441,6.2167,6.1418,6.1085,6.1034,6.0224,5.9153,5.9093,5.9096,5.9129,5.9069,5.9069,5.9099,5.9069,5.9967,6.0835,6.0176,6.1903,6.2655,5.7544,5.719,5.6892,5.2315,5.2731,5.3922,5.3318,5.4695,5.5863,5.5209,5.5119,5.494,0.0,5.487,0.0,0.0,5.5815,5.7282,6.0142,6.3327,6.5828,6.7233,6.7264,6.7838,6.9409,6.8596,6.9011,7.1222,7.0624,7.0523,7.1289,7.1267,7.1267,7.1289,7.1289,7.1289,7.1289,7.1289,7.1289,7.1289,7.1289,7.1289,7.1323,7.209,7.28,7.3567,7.4289,7.5506,7.686,7.6893,7.7773,7.9034,7.9,7.9058,7.9194,0.0,0.0,0.0,4.5687,4.6747,4.783,4.7943,4.7967,4.8656,5.0631,5.1265,5.2291,5.4285,5.4496,5.4206,5.3577,5.2725,5.1468,4.968,4.9142,4.8394,4.7331,4.772,4.7524,4.6649,4.737,4.8101,4.8835,4.9241,5.0272,5.1883,5.2167,5.257,0.0,5.4097,5.4785,5.5307,5.6514,5.7163,5.7517,5.8978,6.0796,6.252,6.1539,6.1119,6.0918,6.0045,5.9473,5.9099,5.9099,5.9099,5.9099,5.9099,5.9099,5.9189,5.9638,6.0416,6.1164,6.1343,6.2427,6.2587,5.8994,5.7785,5.6592,5.3266,5.3384,5.4012,5.3348,5.4785,5.6013,5.5299,5.5564,5.5653,0.0,0.0,5.5414,0.0,5.3652,5.4633,5.7711,6.2306,6.484,6.3878,6.61,6.7813,6.8372,6.7646,6.7963,6.9755,7.006,7.0297,7.0567,7.1075,7.1289,7.1289,7.1289,7.1289,7.1289,7.1289,7.1289,7.1289,7.1289,7.156,7.2056,7.2293,7.3105,7.4255,7.4492,7.5506,7.6961,7.7435,7.8247,7.9058,7.8551,7.8991,7.987,4.5843,4.6561,4.695,4.5843,4.677,4.7728,4.7908,4.8716,5.0208,5.2616,5.3929,5.5565,5.8054,5.8414,5.7923,5.6418,5.565,5.4099,5.1432,5.1026,5.0451,4.9359,4.9883,4.9796,4.8831,5.0048,5.0627,5.0526,5.117,5.1879,5.2519,5.2285,5.2247,5.2429,5.3381,5.4326,5.53,5.6736,5.7433,5.7728,5.8926,6.0322,6.1562,6.0638,6.0481,6.0534,5.9482,5.9099,5.918,5.9629,5.965,5.951,5.9992,5.9985,5.9847,6.0027,6.0745,6.1463,6.1403,6.2032,6.2151,5.9727,5.8441,5.7184,5.4815,5.5119,5.5748,5.5089,5.6346,5.7539,5.7334,5.7064,5.6735,0.0,0.0,5.4935,0.0,5.3283,5.426,5.6542,6.027,6.2455,6.194,6.4385,6.5871,6.5679,6.5636,6.6305,6.7793,6.8842,6.962,7.0184,7.0939,7.1289,7.1289,7.1289,7.1289,7.1289,7.1289,7.1289,7.1289,7.1289,7.1718,7.2428,7.2665,7.3477,7.4603,7.4897,7.5912,7.7333,7.7807,7.8619,7.9431,7.8957,7.9363,8.0209,4.66,4.6869,4.716,4.651,4.7429,4.8079,4.7605,4.9674,5.2092,5.4286,5.6317,5.8743,6.1859,6.1693,6.1041,6.0241,5.8377,5.6176,5.3603,5.2803,5.1605,4.9779,5.1247,5.126,4.9315,5.2553,5.2932,5.0215,5.3091,5.329,5.0981,5.1553,5.1303,5.0493,5.2617,5.4344,5.5666,5.6667,5.8206,5.9894,5.9414,5.9891,6.082,5.9549,5.9572,6.0106,5.9447,5.9207,5.9392,6.0661,6.0735,6.0521,6.1708,6.1726,6.1177,6.0604,6.1269,6.1935,6.0676,6.122,6.1672,5.9727,5.9189,5.865,5.6761,5.7782,5.8979,5.8294,5.9303,6.0436,6.0948,5.9534,5.8237,5.8091,0.0,5.3965,5.3152,5.4492,5.5794,5.6508,5.7384,5.8897,6.132,6.2148,6.2255,6.1694,6.2755,6.4072,6.5561,6.7049,6.8538,7.0048,7.0872,7.1289,7.1289,7.1289,7.1289,7.1289,7.1289,7.1289,7.1289,7.1289,7.1718,7.2496,7.3195,7.395,7.4728,7.5439,7.6623,7.8,7.8044,7.8923,8.0209,8.0209,8.0209,8.0209,4.713,4.7578,4.7967,4.7818,4.7668,4.8273,5.041,5.1863,5.413,5.797,6.0738,6.2698,6.3485,6.4276,6.3868,6.1703,6.0174,5.8615,5.6946,5.578,5.5137,5.5099,5.5519,5.5834,5.599,5.6382,5.6312,5.582,5.4195,5.3349,5.3206,5.1577,5.0646,5.0486,5.223,5.4015,5.5794,5.7746,5.9402,6.0721,6.0573,6.0455,6.0244,5.9414,6.0106,6.1436,6.0756,6.051,6.0712,6.2045,6.2766,6.3136,6.3461,6.3836,6.4189,6.4535,6.4155,6.3636,6.3763,6.3358,6.26,6.1583,6.0565,5.9578,5.859,5.9129,5.9638,5.8979,6.1106,6.2476,6.0508,6.0571,6.0198,5.8013,5.6293,5.5172,5.494,5.4879,5.5661,5.7756,5.719,5.7521,5.9685,6.1451,6.2381,6.2199,6.1987,6.2753,6.4783,6.6271,6.7523,6.847,7.0331,7.1289,7.1289,7.1289,7.1289,7.1289,7.1289,7.1289,7.1289,7.1289,7.1988,7.3229,7.3432,7.4221,7.5473,7.6284,7.713,7.8068,7.8585,7.9397,8.0209,8.0209,8.0209,8.0209,4.7728,4.8909,4.9887,4.9896,5.1169,5.2387,5.2885,5.3953,5.6303,6.0759,6.3278,6.4969,6.5877,6.6877,6.6519,6.4087,6.2584,6.109,5.9491,5.8685,5.8301,5.8364,5.8864,5.9206,5.942,5.8716,5.7972,5.7185,5.4522,5.289,5.2163,5.0497,4.9487,4.9128,5.087,5.2891,5.5177,5.8814,6.0921,6.1821,6.1243,6.0803,0.0,5.9792,6.0377,6.1583,6.18,6.1874,6.2101,6.3756,6.4408,6.4688,6.557,6.5957,6.6152,6.6511,6.5634,6.4615,6.499,6.4125,6.3018,6.263,6.2419,6.2099,6.143,6.2032,6.2664,6.2293,6.348,6.416,6.2807,6.2224,6.0901,5.7678,5.6948,5.6564,5.5969,5.5972,5.6705,5.8505,5.823,5.8358,5.9532,5.9852,6.0216,6.0858,6.0825,6.1332,6.2584,6.529,6.7015,6.7421,6.9936,7.1289,7.1289,7.1616,7.1616,7.1289,7.1289,7.1289,7.1289,7.1289,7.209,7.35,7.35,7.4346,7.5743,7.6183,7.7029,7.8102,7.916,7.9837,8.0209,8.0209,8.0209,8.0209,4.8727,5.0773,5.2475,5.2445,5.6043,5.823,5.6262,5.7141,5.9542,6.3679,6.5511,6.7065,6.8839,6.943,6.8981,6.7059,6.5258,6.3506,6.1808,6.1418,6.1069,6.0664,6.1579,6.176,6.1047,6.0265,5.8753,5.6435,5.4381,5.2207,4.9935,4.9161,4.8335,4.7585,4.9673,5.2152,5.5064,6.0092,6.2518,6.2892,6.1901,6.142,6.1209,6.0597,6.0791,6.1529,6.26,6.3052,6.3421,6.5442,6.5855,6.5811,6.7776,6.8095,6.7705,6.7496,6.6496,6.5328,6.5138,6.4125,6.3137,6.3308,6.4237,6.501,6.4604,6.5474,6.6344,6.6344,6.6013,6.5759,6.5892,6.3717,6.0916,5.7797,5.7928,5.8045,5.7013,5.7547,5.8355,5.9182,5.9776,0.0,6.025,5.8524,5.7881,5.9047,5.9641,6.0047,6.025,6.4072,6.6406,6.6791,6.9531,7.1188,7.156,7.2022,7.2022,7.1594,7.1391,7.1289,7.1289,7.1391,7.2191,7.35,7.3578,7.4424,7.5709,7.5912,7.6893,7.8416,7.9701,8.0209,8.0209,8.0209,8.0209,8.0209,5.0967,5.3351,5.5193,5.5246,5.826,6.1586,6.4262,6.5581,6.7049,6.9328,7.1441,7.2624,7.238,7.1862,7.1166,7.0191,6.7499,6.5745,6.5386,6.3662,6.3054,6.4016,6.4241,6.4001,6.3265,6.1991,6.0084,5.7496,5.3964,5.1732,5.0848,4.9471,4.8718,4.8666,5.1633,5.5015,5.8757,6.254,6.3598,6.2823,6.3809,6.3591,6.2583,6.1924,6.2445,6.3447,6.3095,6.3366,6.4135,6.6171,6.7152,6.7856,6.9366,7.0186,7.0333,6.9193,6.7874,6.66,6.5409,6.4125,6.3365,6.4457,6.4923,6.5378,6.641,6.6844,6.7029,6.7029,6.7815,6.7797,6.5442,6.305,6.1234,6.0583,5.9578,5.9256,6.0252,5.9494,5.9336,6.0723,6.0419,6.0351,6.1028,6.0757,6.0351,5.9945,5.9471,5.9757,6.1028,6.2415,6.4275,6.6724,6.8571,7.0635,7.3071,7.2056,7.2056,7.3105,7.1887,7.1289,7.1323,7.1921,7.2665,7.3534,7.4153,7.4897,7.5811,7.7063,7.845,7.9837,8.0107,8.0209,8.0209,8.0209,8.0209,8.0209,5.4634,5.6531,5.8243,5.9577,6.307,6.6635,6.9368,7.1614,7.2642,7.1737,7.2274,7.2768,7.2828,7.28,7.2633,7.2274,6.9977,6.837,6.7993,6.5824,6.5108,6.6389,6.4816,6.423,6.4912,6.1569,5.9051,5.7433,5.3135,5.098,5.0919,4.9461,4.9094,4.9738,5.2558,5.5711,5.9078,6.2179,6.3565,6.3809,6.4983,6.5108,6.4436,6.3441,6.3706,6.4434,6.3433,6.3448,6.4271,6.5979,6.6777,6.7256,6.8328,6.8882,6.9024,6.8355,6.719,6.6127,6.618,6.5196,6.4457,6.5835,6.6699,6.7394,6.8074,6.8805,6.9322,6.9322,6.9831,6.9618,6.7424,6.5152,6.3565,6.3565,6.2313,6.1719,6.2854,6.2042,6.1467,6.1839,6.1535,6.1298,6.1298,6.1637,6.1061,5.9099,5.8998,5.8979,5.8964,6.1129,6.3396,6.5595,6.7489,6.9722,7.2326,7.2022,7.2022,7.236,7.2022,7.1684,7.1323,7.2462,7.3138,7.3567,7.4289,7.5033,7.5811,7.7333,7.8416,7.9126,7.9904,8.0209,8.0209,8.0209,8.0209,8.0209,5.8637,6.0425,6.2298,6.4581,6.8341,7.1596,7.3252,7.5959,7.6726,7.3696,7.2878,7.2813,7.3465,7.3843,7.4058,7.4058,7.2098,7.0643,7.007,6.7751,6.6723,6.7473,6.4876,6.3906,6.4928,6.0613,5.7649,5.6265,5.2716,5.0778,5.0348,4.9912,5.0258,5.1372,5.3503,5.5852,5.8389,6.1217,6.3159,6.4464,6.569,6.6243,6.6258,6.4793,6.4719,6.5123,6.3614,6.3399,6.3984,6.5104,6.5652,6.6026,6.6927,6.719,6.7138,6.6829,6.618,6.5701,6.6516,6.618,6.5888,6.7266,6.8429,6.9289,6.9585,7.0505,7.1289,7.1289,7.1176,7.0669,6.935,6.7489,6.6123,6.5967,6.4816,6.4241,6.4952,6.4444,6.37,6.2956,6.2854,6.2381,6.1163,6.1569,6.0742,5.7881,5.849,5.854,5.7543,6.0148,6.2584,6.4546,6.6576,6.891,7.1515,7.1954,7.2022,7.1785,7.2056,7.1853,7.1357,7.2834,7.35,7.3567,7.4458,7.5337,7.6284,7.7502,7.8179,7.8551,7.9735,8.0209,8.0209,8.0209,8.0209,8.0209,6.2488,6.5353,6.8206,7.0204,7.2696,7.499,7.659,7.8395,7.8904,7.7071,7.6778,7.6772,7.6833,7.6274,7.5877,7.5877,7.3414,7.1826,7.1756,6.924,6.7243,6.6217,6.5241,6.3685,6.1514,5.9831,5.7218,5.3573,5.3568,5.1994,4.9047,5.1475,5.3184,5.4257,5.5135,5.6453,5.8125,6.1144,6.2854,6.3781,6.5875,6.7116,6.7519,6.5562,6.5299,6.5765,6.3797,6.3134,6.3189,6.3361,6.4201,6.5424,6.6777,6.719,6.6932,6.5647,6.6101,6.6725,6.5625,6.6127,6.7317,6.8675,6.9121,6.9537,7.0814,7.1222,7.1289,7.1289,7.077,7.006,6.9248,6.8335,6.7489,6.6812,6.6,6.573,6.6508,6.5967,6.5222,6.4478,6.4377,6.3294,6.0486,6.0283,5.937,5.707,5.8201,5.9216,5.9776,5.9487,6.0941,6.4478,6.6102,6.8639,7.2259,7.1718,7.2056,7.3297,7.2022,7.1357,7.1357,7.2834,7.35,7.3601,7.4999,7.642,7.7797,7.7967,7.8788,8.0006,8.0141,8.0209,8.0209,8.0209,8.0209,8.0209,6.7848,6.9689,7.1634,7.4341,7.5649,7.705,7.9202,7.969,7.9727,7.9528,7.9103,7.8626,7.8148,7.7781,7.7378,7.6848,7.4703,7.3,7.2135,6.9149,6.6998,6.6034,6.378,6.2308,6.1743,5.9231,5.7076,5.5352,5.4391,5.3454,5.2609,5.2885,5.382,5.531,5.6494,5.7848,5.937,6.1975,6.3497,6.4343,6.6576,6.7658,6.7803,6.71,6.6507,6.6033,6.5695,6.5032,6.4429,6.5274,6.4813,6.4015,6.4568,6.5274,6.5835,6.5274,6.6101,6.7241,6.7496,6.7974,6.8724,7.0123,7.0482,7.0597,7.1176,7.1289,7.1289,7.1289,7.1075,7.077,7.0466,6.9451,6.8808,6.9395,6.8504,6.8166,6.9328,6.8064,6.6576,6.5392,6.326,6.1264,5.9607,5.9032,5.8964,5.9471,5.8795,5.8457,5.8761,5.849,6.025,6.4478,6.5189,6.7286,7.1041,7.1244,7.1616,7.2191,7.2022,7.1751,7.1357,7.2834,7.3713,7.4221,7.5236,7.6318,7.7367,7.7831,7.8619,7.96,8.004,8.0209,8.0209,8.0209,8.0209,8.0209,7.1603,7.3065,7.478,7.8056,7.8882,7.9748,8.1729,8.1562,8.1342,8.1672,8.1195,8.0277,7.8772,7.8369,7.7856,7.6945,7.5299,7.3718,7.2378,6.9399,6.726,6.6364,6.3637,6.1972,6.1588,5.9369,5.7672,5.6555,5.5879,5.5526,5.5466,5.4995,5.5709,5.7497,5.8468,5.9607,6.0892,6.2956,6.4241,6.5087,6.688,6.7478,6.7333,6.7222,6.6719,6.616,6.6477,6.6206,6.5861,6.6855,6.5888,6.432,6.432,6.495,6.5701,6.5701,6.6699,6.7974,6.8943,6.9481,7.0043,7.1052,7.1289,7.1289,7.1289,7.1289,7.1289,7.1289,7.1289,7.1289,7.1289,7.0444,7.0026,7.0838,7.0297,7.0026,7.0872,6.9417,6.7692,6.6203,6.3125,6.0452,5.8829,5.8389,5.8795,6.0182,5.9201,5.8644,5.8896,5.8457,6.008,6.414,6.4918,6.6846,7.0184,7.0939,7.1289,7.1289,7.1853,7.1819,7.1323,7.2597,7.368,7.4637,7.5168,7.6082,7.7266,7.7797,7.8551,7.9498,8.0006,8.0209,8.0209,8.0209,8.0209,8.0209,7.2784,7.5317,7.8133,8.1525,8.2794,8.3601,8.4425,8.4535,8.4278,8.3454,8.3344,8.2133,7.8956,7.7839,7.6925,7.5908,7.4885,7.3869,7.2845,7.0473,6.8484,6.7126,6.5659,6.3362,6.0216,6.0582,5.9268,5.5992,5.8313,5.8399,5.6412,5.8111,5.9873,6.1519,6.1351,6.167,6.2468,6.3971,6.5019,6.5751,6.6508,6.6497,6.594,6.5238,6.5475,6.6077,6.5402,6.6021,6.7164,6.719,6.7164,6.7138,6.7138,6.7138,6.7164,6.7164,6.8099,6.9193,6.9217,7.0216,7.1289,7.1289,7.1289,7.1289,7.1289,7.1289,7.1289,7.1289,7.1289,7.1289,7.1289,7.1289,7.1041,7.0331,7.0804,7.1041,7.0297,6.9553,6.8504,6.696,6.483,6.1989,5.8272,5.8558,5.8693,5.7983,5.9268,6.0419,6.1231,5.9791,6.0366,6.3409,6.5641,6.7895,7.0184,7.0939,7.1289,7.1289,7.1289,7.1289,7.1323,7.209,7.3206,7.4603,7.4603,7.5912,7.8,7.8,7.8855,8.0175,8.0209,8.0209,8.0209,8.0209,8.0209,8.0209,7.534,7.8747,8.1742,8.2834,8.4132,8.5123,8.538,8.4939,8.4242,8.3265,8.1741,7.9826,7.7469,7.7661,7.734,7.5912,7.4253,7.2922,7.209,7.02,6.8305,6.6443,6.4934,6.3268,6.1375,6.0563,6.0019,5.9812,6.0094,6.0411,6.072,6.244,6.3188,6.315,6.4085,6.4547,6.4701,6.5696,6.6237,6.639,6.5755,6.5679,6.5963,6.6302,6.629,6.6413,6.8543,6.942,6.963,6.9906,7.0452,7.0895,7.0219,6.9346,6.8577,6.8577,6.9537,7.062,7.062,7.0961,7.1289,7.1289,7.1289,7.1289,7.1289,7.1289,7.1289,7.1289,7.1289,7.1289,7.1289,7.1289,7.1222,7.1007,7.1142,7.1041,7.0297,6.8673,6.6981,6.5493,6.2854,6.052,5.8829,5.9336,5.9877,6.0182,6.1129,6.1569,6.1332,6.1786,6.2733,6.4208,6.6406,6.8402,7.0184,7.0939,7.1289,7.1289,7.1289,7.1289,7.1323,7.2056,7.2665,7.3172,7.4153,7.5608,7.7299,7.7773,7.8855,8.0209,8.0209,8.0209,8.0209,8.0209,8.0209,8.0209,7.6531,7.9738,8.249,8.3128,8.3937,8.4607,8.4933,8.4552,8.3858,8.2887,8.1251,7.9391,7.7272,7.6604,7.5832,7.4753,7.3517,7.2098,7.0481,6.9591,6.8069,6.5695,6.4895,6.3661,6.1863,6.1401,6.1349,6.1651,6.2611,6.3986,6.5793,6.6479,6.669,6.6457,6.6647,6.6485,6.6115,6.6076,6.6218,6.6355,6.5092,6.4669,6.4948,6.6241,6.6476,6.6556,6.9908,7.1262,7.1563,7.2231,7.2582,7.2673,7.2056,7.1019,6.9996,6.9996,7.0597,7.1289,7.1289,7.1289,7.1289,7.1289,7.1289,7.1289,7.1289,7.1289,7.1289,7.1289,7.1289,7.1289,7.1289,7.1289,7.1289,7.1289,7.1289,7.0973,6.9925,6.8064,6.625,6.4783,6.2956,6.14,6.0385,6.1434,6.2279,6.2516,6.3006,6.32,6.297,6.3565,6.4377,6.5392,6.759,6.9485,7.1007,7.1751,7.2124,7.2124,7.1853,7.1695,7.1718,7.1921,7.2293,7.2868,7.3781,7.5371,7.7333,7.7807,7.8855,8.0209,8.0209,8.0209,8.0209,8.0209,8.0209,8.0209,7.6521,7.8729,8.0962,8.2512,8.2576,8.2679,8.3479,8.3621,8.3295,8.2397,8.1556,8.0131,7.7772,7.4694,7.2734,7.2496,7.2443,7.1153,6.8258,6.8538,6.7658,6.5101,6.5292,6.438,6.203,6.2991,6.3045,6.2042,6.5656,6.8604,7.0839,7.0053,7.0075,7.0714,6.874,6.7413,6.6567,6.5304,6.5105,6.56,6.4369,6.3527,6.3237,6.5326,6.6172,6.6663,6.9664,7.164,7.2941,7.3827,7.3532,7.2776,7.2714,7.2056,7.1289,7.1289,7.1289,7.1289,7.1289,7.1289,7.1289,7.1289,7.1289,7.1289,7.1289,7.1289,7.1289,7.1289,7.1289,7.1289,7.1289,7.1289,7.1289,7.1289,7.1255,7.068,6.918,6.7726,6.6216,6.4715,6.4613,6.414,6.2773,6.4532,6.5472,6.4727,6.4795,6.5116,6.5607,6.5192,6.5546,6.6927,6.918,7.1041,7.2462,7.3161,7.35,7.35,7.28,7.2462,7.2462,7.1785,7.2191,7.35,7.3567,7.5226,7.7933,7.8,7.8855,8.0209,8.0209,8.0209,8.0209,8.0209,8.0209,8.0209,7.6189,7.8447,8.057,8.153,8.2108,8.2742,8.3479,8.3621,8.3017,8.1402,7.95,7.7376,7.4849,7.1851,6.983,6.9344,6.883,6.7989,6.6748,6.629,6.5944,6.5758,6.4255,6.3827,6.4749,6.3931,6.4167,6.559,6.8348,7.0005,7.0608,7.1109,7.0775,6.9679,6.8186,6.6714,6.526,6.3998,6.3555,6.3629,6.2821,6.268,6.3237,6.5345,6.6511,6.7321,7.0142,7.1858,7.2714,7.2206,7.2364,7.2686,7.1895,7.1501,7.1289,7.1289,7.1289,7.1289,7.1289,7.1289,7.1289,7.1289,7.1289,7.1289,7.1289,7.1289,7.1289,7.1289,7.1289,7.1289,7.1289,7.1289,7.1289,7.1289,7.0838,6.9722,6.7658,6.7028,6.6047,6.3984,6.4749,6.529,6.4972,6.5899,6.6241,6.5558,6.5606,6.5475,6.5036,6.6978,6.8235,6.855,7.0737,7.2326,7.3229,7.3432,7.35,7.35,7.3331,7.324,7.3229,7.3037,7.3172,7.3534,7.4086,7.5405,7.7198,7.7797,7.8855,8.0209,8.0209,8.0209,8.0209,8.0209,8.0209,8.0209,7.6041,7.7948,7.9648,8.0376,8.0764,8.1192,8.1933,8.1444,8.0618,7.9602,7.751,7.5286,7.327,7.0713,6.8737,6.7787,6.7381,6.6645,6.5327,6.5434,6.5116,6.4158,6.3825,6.4002,6.4753,6.4259,6.5087,6.732,6.9811,7.1218,7.1564,7.209,7.1305,6.9453,6.8267,6.6659,6.4814,6.3539,6.3022,6.2959,6.2306,6.2235,6.2904,6.5615,6.6869,6.7622,7.0827,7.2342,7.2776,7.2707,7.2749,7.2693,7.2163,7.1666,7.1289,7.1289,7.1289,7.1289,7.1289,7.1289,7.1289,7.1289,7.1289,7.1289,7.1289,7.1289,7.1289,7.1289,7.1289,7.1289,7.1289,7.1289,7.1188,7.0838,7.0161,6.891,6.6609,6.6305,6.573,6.4208,6.5595,6.6846,6.7218,6.7633,6.761,6.6907,6.6047,6.5903,6.6784,6.8076,6.8894,6.915,7.1928,7.3612,7.3984,7.4322,7.4515,7.4492,7.4153,7.3984,7.3984,7.3646,7.368,7.4052,7.4796,7.598,7.7468,7.8213,7.916,8.0209,8.0209,8.0209,8.0209,8.0209,8.0209,8.0141,7.5953,7.7175,7.836,7.9201,7.902,7.9017,7.9727,7.865,7.7669,7.755,7.56,7.3677,7.2372,7.0214,6.8359,6.7038,6.6802,6.5943,6.4058,6.4915,6.4578,6.2473,6.3854,6.4632,6.453,6.5139,6.6373,6.8233,7.0641,7.2064,7.2561,7.2483,7.1336,6.9323,6.8045,6.6419,6.452,6.325,6.2698,6.2653,6.2268,6.2091,6.2461,6.5901,6.7254,6.7827,7.133,7.2651,7.2866,7.3606,7.3272,7.2582,7.2582,7.1969,7.1289,7.1289,7.1289,7.1289,7.1289,7.1289,7.1289,7.1289,7.1289,7.1289,7.1289,7.1289,7.1289,7.1289,7.1289,7.1289,7.1289,7.1289,7.1075,7.0297,6.9485,6.8132,6.5831,6.5751,6.5595,6.485,6.6914,6.8741,6.9519,6.9649,6.9409,6.8798,6.6972,6.6901,6.9264,6.9094,6.9184,6.9687,7.2911,7.4637,7.4739,7.5506,7.5879,7.5879,7.5371,7.5134,7.51,7.4458,7.4525,7.5168,7.5777,7.686,7.8213,7.8855,7.9464,8.004,8.0175,8.0141,8.004,8.0175,8.0209,8.0073,7.5508,7.5983,7.6595,7.7997,7.7716,7.7479,7.8126,7.7522,7.6731,7.6059,7.4046,7.2349,7.1539,6.8999,6.7035,6.6252,6.5133,6.4134,6.3331,6.2898,6.3271,6.4563,6.4301,6.5395,6.8212,6.8958,6.9507,6.9823,7.1491,7.2021,7.1523,7.0937,6.9827,6.8239,6.5797,6.4214,6.3223,6.1953,6.138,6.144,6.1907,6.2091,6.2461,6.5901,6.7574,6.8434,7.0719,7.1919,7.2383,7.1915,7.1666,7.1546,7.1546,7.1412,7.1289,7.1289,7.1289,7.1289,7.1289,7.1289,7.1289,7.1289,7.1289,7.1289,7.1289,7.1289,7.1289,7.1289,7.1289,7.1289,7.1289,7.1289,7.1075,7.0297,6.9011,6.732,6.5087,6.5831,6.6373,6.5615,6.8639,7.1075,7.1819,7.1897,7.1855,7.1738,7.0329,6.9704,7.0179,7.1315,7.1983,7.2084,7.3716,7.4897,7.5506,7.6318,7.6724,7.6724,7.7232,7.7468,7.7468,7.7333,7.7333,7.7468,7.757,7.8111,7.8957,7.9034,7.9169,7.9329,7.9972,7.9837,7.9363,7.9972,8.0209,8.0073,7.598,7.6352,7.669,7.7831,7.7036,7.642,7.6723,7.5099,7.3709,7.3331,7.1657,7.028,6.958,6.8029,6.6879,6.658,6.4964,6.4357,6.5191,6.4303,6.4145,6.5057,6.5806,6.7118,6.9069,6.9823,7.0217,7.0217,7.1684,7.1825,7.069,7.0431,6.9114,6.6944,6.5335,6.4057,6.3016,6.2435,6.1972,6.1702,6.2361,6.2421,6.2461,6.5901,6.7663,6.8634,7.1045,7.1621,7.1218,7.086,7.0493,7.0193,7.0193,7.0699,7.1289,7.1289,7.1289,7.1289,7.1289,7.1289,7.1289,7.1289,7.1289,7.1289,7.1289,7.1289,7.1289,7.1289,7.1289,7.1289,7.1289,7.1289,7.1075,7.0297,6.891,6.7523,6.6508,6.6643,6.7151,6.8018,6.9992,7.1751,7.2868,7.2354,7.2078,7.248,7.1182,7.0947,7.2092,7.3197,7.4122,7.4895,7.5523,7.6014,7.6352,7.7096,7.7299,7.6893,7.7638,7.8,7.8,7.8,7.8,7.8034,7.8416,7.8788,7.9135,7.9532,7.9464,7.9169,7.9904,7.9769,7.9169,7.9938,8.0209,8.0073,7.6405,7.6893,7.7067,7.7647,7.6527,7.5418,7.5044,7.2759,7.0971,7.0767,6.9576,6.8711,6.8543,6.7789,6.7396,6.7755,6.6081,6.5652,6.7267,6.6551,6.6048,6.6048,6.7834,6.9069,6.9598,7.0161,7.0466,7.0466,7.1751,7.1647,7.0174,6.9952,6.8473,6.6047,6.5066,6.404,6.3108,6.3108,6.2808,6.2361,6.2898,6.2808,6.2673,6.5781,6.7729,6.9065,7.0951,7.1283,7.0733,7.0051,6.9534,6.9217,6.9217,7.017,7.1289,7.1289,7.1457,7.1644,7.1644,7.1644,7.171,7.1939,7.1808,7.1644,7.1644,7.1457,7.1357,7.1526,7.1582,7.1582,7.1582,7.1582,7.1278,7.0353,6.9045,6.8098,6.7929,6.7726,6.8233,7.0014,7.1447,7.2766,7.3883,7.3389,7.326,7.3816,7.2845,7.2945,7.4604,7.5244,7.6132,7.7376,7.7266,7.7063,7.6893,7.7807,7.7976,7.7435,7.8145,7.8483,7.8483,7.8483,7.8483,7.8517,7.9126,7.9363,7.9397,7.9972,7.9769,7.9169,7.9904,7.9769,7.9169,7.9938,8.0209,8.0073,7.6202,7.6893,7.6907,7.6875,7.572,7.4274,7.2794,7.127,7.003,6.9261,6.8529,6.8574,6.987,6.8844,6.8582,6.994,6.8712,6.7943,6.8112,6.8604,6.8894,6.8894,7.0299,7.1098,7.112,7.1188,7.1222,7.1222,7.2022,7.1647,7.0174,6.9025,6.762,6.5991,6.4092,6.3194,6.3108,6.3108,6.3078,6.3048,6.3078,6.3078,6.325,6.5352,6.7922,7.0236,6.9562,7.0675,7.2016,6.9272,6.8716,6.9217,6.9217,7.017,7.1289,7.1289,7.1982,7.2673,7.2673,7.2673,7.2921,7.3866,7.3372,7.2673,7.2673,7.1982,7.1492,7.2191,7.2326,7.2326,7.2326,7.2326,7.1853,7.0432,6.9519,6.8741,6.7996,6.9079,7.0014,7.0184,7.324,7.5405,7.554,7.6753,7.7549,7.7583,7.7509,7.7518,7.7684,7.7718,7.8139,7.8898,7.828,7.757,7.6893,7.8314,7.8991,7.8957,7.9701,8.004,8.004,8.004,8.004,8.004,8.0107,8.0107,8.0107,8.0175,7.9769,7.9169,7.9904,7.9769,7.9169,7.9938,8.0209,8.0073,7.4489,7.5239,7.5527,7.5516,7.3538,7.1607,7.0554,6.9148,6.8424,6.9029,6.8875,6.9312,7.0774,7.0086,6.9922,7.0917,6.9308,6.8808,7.0055,6.9526,6.9609,7.0482,7.103,7.1289,7.1289,7.1289,7.1289,7.1289,7.2056,7.1213,6.8948,6.8511,6.7058,6.4757,6.3607,6.3108,6.3108,6.3108,6.3108,6.3108,6.3108,6.3108,6.3252,6.4872,6.7306,6.9866,7.0422,7.1156,7.1754,7.0612,6.9755,6.9217,6.9217,7.017,7.1412,7.2034,7.2941,7.3975,7.5103,7.4588,7.3811,7.4196,7.4005,7.3571,7.2941,7.2498,7.2124,7.1785,7.1718,7.1718,7.1718,7.209,7.2225,7.165,7.1345,7.121,7.1345,7.1481,7.2056,7.3443,7.483,7.6082,7.7029,7.7638,7.8179,7.8653,7.8686,7.8686,7.8686,7.8686,7.8822,7.9092,7.9261,7.8991,7.828,7.9261,7.9566,7.9126,7.987,8.0209,8.0209,8.0209,8.0209,8.0209,8.0209,8.0209,8.0209,8.0209,7.9769,7.9169,7.9904,7.9769,7.9169,7.9938,8.0209,8.0175,7.3328,7.4071,7.4378,7.4332,7.1907,6.9702,6.8928,6.7789,6.7548,6.8998,6.9201,6.9944,7.1875,7.1443,7.1401,7.2313,7.0448,6.9758,7.0897,6.9485,6.9394,7.1222,7.1289,7.1289,7.1289,7.1289,7.1289,7.1289,7.1819,7.0966,6.882,6.8235,6.6785,6.4613,6.3579,6.3108,6.3108,6.3108,6.3108,6.3108,6.3108,6.3108,6.3252,6.4811,6.7058,6.9539,7.0427,7.1067,7.1466,7.1054,7.0373,6.975,7.0078,7.1129,7.2488,7.3682,7.4393,7.51,7.6586,7.6156,7.5353,7.589,7.5405,7.4588,7.3812,7.3217,7.2588,7.1829,7.165,7.1718,7.1954,7.2394,7.2732,7.2732,7.2732,7.2902,7.3432,7.3443,7.3984,7.5506,7.6318,7.7164,7.8247,7.8551,7.8889,7.9431,7.9464,7.9464,7.9464,7.9464,7.9464,7.9464,7.9938,7.9972,7.9464,7.9938,8.0073,7.9803,8.031,8.0547,8.0547,8.0547,8.0412,8.0209,8.0209,8.0209,8.0209,8.0209,7.9904,7.9498,8.0006,7.9904,7.9532,8.0006,8.0344,8.0513,7.3116,7.3668,7.3632,7.3518,7.1134,6.901,6.8085,6.7419,6.7548,6.9027,6.923,7.0336,7.3302,7.2874,7.2978,7.4452,7.2568,7.1013,7.0329,6.837,6.8437,7.1176,7.1267,7.1267,7.1267,7.1289,7.1289,7.1289,7.1289,7.092,7.0141,6.8154,6.6791,6.5991,6.3978,6.3108,6.3108,6.3108,6.3108,6.3108,6.3108,6.3108,6.334,6.5333,6.7467,6.9349,6.9191,7.0163,7.1334,7.0173,7.018,7.0912,7.1981,7.3252,7.4629,7.6247,7.6282,7.6021,7.6796,7.7165,7.7677,7.936,7.7781,7.5761,7.5548,7.4077,7.2726,7.244,7.2394,7.2631,7.3364,7.35,7.35,7.3534,7.3534,7.3534,7.3534,7.4796,7.5709,7.5743,7.7739,7.9101,7.9126,7.9769,8.0209,8.0209,8.0209,8.0209,8.0209,8.0209,8.0209,8.0209,8.0209,8.0209,8.0209,8.0209,8.0547,8.1317,8.1317,8.1317,8.1317,8.1317,8.0885,8.0209,8.0209,8.0209,8.0209,8.0209,8.0209,8.0209,8.0209,8.0209,8.0209,8.0209,8.0648,8.1215,7.0962,7.1713,7.172,7.0728,6.9004,6.7354,6.6102,6.6998,6.8374,6.986,7.1365,7.3018,7.4859,7.3982,7.3414,7.3857,7.1882,7.0079,6.8885,6.8632,6.873,6.9119,6.8673,6.8405,6.8405,6.937,6.9822,6.9822,7.0814,7.0675,6.9465,6.7921,6.6565,6.5338,6.3766,6.3108,6.3108,6.3108,6.3108,6.3108,6.3108,6.3108,6.3252,6.4811,6.6749,6.882,7.0468,7.2006,7.3245,7.3586,7.3493,7.3297,7.3612,7.4857,7.6302,7.6769,7.7724,7.8772,7.9576,7.8473,7.7207,7.7662,7.7151,7.6195,7.4703,7.3962,7.3188,7.1897,7.165,7.1853,7.2597,7.3138,7.3838,7.4864,7.5506,7.6048,7.6579,7.7053,7.7502,7.801,7.8686,7.9295,7.9837,8.0073,8.0209,8.0209,8.0209,8.0209,8.0209,8.0209,8.0209,8.0209,8.0209,8.0209,8.0209,8.0209,8.0547,8.1317,8.1317,8.1317,8.1317,8.1317,8.0885,8.0209,8.0209,8.0209,8.0209,8.0209,8.0209,8.0209,8.0209,8.0209,8.0242,8.0784,8.1088,8.1283,7.0051,7.0634,7.0582,6.9507,6.7844,6.6313,6.5172,6.6093,6.7662,6.9701,7.0845,7.2196,7.417,7.3155,7.2326,7.2333,7.0102,6.8201,6.701,6.7018,6.7049,6.6924,6.6546,6.6739,6.7586,6.8634,6.9217,6.9217,7.0597,7.0574,6.9193,6.7824,6.647,6.5029,6.3706,6.3108,6.3108,6.3108,6.3108,6.3108,6.3108,6.3422,6.404,6.5409,6.733,6.9491,7.1537,7.3023,7.4217,7.521,7.5514,7.5547,7.5888,7.6756,7.7685,7.8012,7.838,7.8804,7.9278,7.791,7.6247,7.5822,7.5813,7.5612,7.4579,7.3906,7.305,7.1625,7.1289,7.1616,7.2631,7.3206,7.4086,7.5879,7.6318,7.6792,7.7841,7.8,7.8247,7.9025,7.9363,7.9701,8.0175,8.0209,8.0209,8.0209,8.0209,8.0209,8.0209,8.0209,8.0209,8.0209,8.0209,8.0209,8.0209,8.0209,8.0547,8.1317,8.1317,8.1317,8.1317,8.1317,8.0885,8.0209,8.0209,8.0209,8.0209,8.0209,8.0209,8.0209,8.0209,8.0209,8.0276,8.1046,8.146,8.1697,7.0099,7.0294,6.9976,6.925,6.7373,6.5729,6.4931,6.4993,6.6074,6.8674,6.8599,6.9284,7.1858,7.092,7.0096,7.0096,6.7625,6.5775,6.5053,6.4485,6.4514,6.5232,6.5292,6.6237,6.8371,6.8868,6.9163,6.9316,7.0538,7.0515,6.9259,6.773,6.6338,6.5029,6.3706,6.3108,6.3108,6.3108,6.3108,6.3108,6.3222,6.3984,6.5274,6.6777,6.877,7.0914,7.2402,7.3591,7.4572,7.5597,7.6547,7.7436,7.8222,7.8552,7.872,7.9354,7.8383,7.7103,7.698,7.6189,7.5176,7.4309,7.4182,7.437,7.4843,7.3883,7.2599,7.1705,7.1424,7.1853,7.3331,7.3669,7.4424,7.6623,7.6454,7.6521,7.7976,7.8204,7.845,7.9126,7.9803,8.0209,8.0209,8.0209,8.0209,8.0209,8.0209,8.0209,8.0209,8.0209,8.0209,8.0209,8.0209,8.0209,8.0209,8.0209,8.0547,8.1317,8.1317,8.1317,8.1317,8.1317,8.0885,8.0209,8.0209,8.0209,8.0209,8.0209,8.0209,8.0209,8.0209,8.0209,8.031,8.1088,8.1765,8.2205,7.059,7.0205,6.9035,6.7869,6.6362,6.4897,6.37,6.4895,6.6155,6.6788,6.8197,6.9367,7.0,6.8744,6.787,6.787,6.6275,6.5199,6.5024,6.5383,6.6159,6.7448,6.7506,6.8264,6.991,6.8929,6.8975,7.0065,6.9802,6.9778,6.9984,6.6979,6.5409,6.5029,6.3706,6.3108,6.3108,6.3108,6.3108,6.3194,6.4265,6.4841,6.5382,6.7824,6.9566,7.099,7.3193,7.4628,7.5614,7.6628,7.7097,7.7326,7.7509,7.8075,7.8463,7.7797,7.7783,7.7756,7.6992,7.599,7.5262,7.562,7.4657,7.3705,7.3822,7.3583,7.3289,7.3072,7.2563,7.2597,7.4086,7.483,7.5777,7.7468,7.8111,7.8686,7.96,7.9701,7.9769,7.9938,8.0107,8.0209,8.0209,8.0209,8.0209,8.0209,8.0209,8.0209,8.0209,8.0209,8.0209,8.0209,8.0209,8.0209,8.0209,8.0209,8.0547,8.1317,8.1317,8.1317,8.1317,8.1317,8.0885,8.0209,8.0209,8.0209,8.0209,8.0209,8.0209,8.0209,8.0209,8.0209,8.0344,8.1697,8.19,8.1494,6.8927,6.8757,6.7799,6.6443,6.5598,6.4651,6.3308,6.4006,6.495,6.5582,6.6365,6.7073,6.7751,6.6548,6.5551,6.5277,6.4532,6.4366,6.4964,6.5673,6.6702,6.8091,6.8457,6.9151,7.0305,6.9534,6.9718,7.0881,7.0098,6.9583,6.9296,6.6442,6.4758,6.4125,6.3422,6.3108,6.3108,6.3108,6.3449,6.4125,6.4813,6.5888,6.726,6.9187,7.096,7.2664,7.439,7.5649,7.6595,7.7097,7.7289,7.7289,7.7289,7.7876,7.8322,7.6872,7.6643,7.6635,7.5231,7.46,7.4348,7.4383,7.4468,7.4458,7.4086,7.3747,7.35,7.35,7.3477,7.368,7.4434,7.5202,7.6183,7.7764,7.801,7.8551,8.0006,7.9904,7.9803,8.0175,8.0209,8.0209,8.0209,8.0209,8.0209,8.0209,8.0209,8.0209,8.0209,8.0209,8.0209,8.0209,8.0209,8.0209,8.0209,8.0209,8.0378,8.0784,8.0784,8.0784,8.0784,8.0784,8.0547,8.0209,8.0209,8.0209,8.0209,8.0209,8.0209,8.0209,8.0209,8.0209,8.0344,8.146,8.1629,8.1317,6.6906,6.6984,6.6496,6.5301,6.4923,6.4373,6.3279,6.3108,6.3478,6.4623,6.4215,6.4291,6.5481,6.455,6.3617,6.3138,6.3108,6.3588,6.4755,6.5725,6.6899,6.8242,6.9182,7.0027,7.0746,7.0737,7.0929,7.1301,7.0264,6.9141,6.7906,6.5748,6.4153,6.3108,6.3108,6.3108,6.3108,6.3108,6.3874,6.5111,6.5355,6.7055,6.9571,7.0648,7.252,7.4665,7.551,7.6465,7.7289,7.7289,7.7289,7.7289,7.7289,7.7803,7.7997,7.6089,7.5422,7.4929,7.3192,7.3123,7.3375,7.2902,7.4255,7.554,7.4931,7.4221,7.3713,7.3872,7.4255,7.4671,7.4965,7.5506,7.642,7.7942,7.7671,7.7976,7.9904,7.9667,7.9532,8.0141,8.0209,8.0209,8.0209,8.0209,8.0209,8.0209,8.0209,8.0209,8.0209,8.0209,8.0209,8.0209,8.0209,8.0209,8.0209,8.0209,8.0209,8.0209,8.0209,8.0209,8.0209,8.0209,8.0209,8.0209,8.0209,8.0209,8.0209,8.0209,8.0209,8.0183,7.9921,7.9811,7.9878,8.0485,8.0788,8.0941,6.6906,6.6233,6.5328,6.5111,6.4153,6.3308,6.3137,6.3108,6.3165,6.3365,6.3283,6.3285,6.3485,6.3343,6.3197,6.3108,6.3108,6.3407,6.4096,6.5963,6.7676,6.9057,7.0967,7.2308,7.3029,7.3052,7.2199,7.0452,6.8536,6.7222,6.6429,6.4375,6.3279,6.3108,6.3108,6.3108,6.3108,6.3108,6.3874,6.5192,6.6443,6.8356,7.0625,7.2009,7.3815,7.5614,7.5735,7.6465,7.7289,7.7289,7.7289,7.7289,7.7289,7.7399,7.7087,7.5066,7.4475,7.4151,7.2812,7.2971,7.3635,7.4187,7.4999,7.5676,7.5574,7.4999,7.4627,7.527,7.4965,7.5033,7.6352,7.6657,7.7232,7.872,7.8889,7.9126,8.0073,8.0107,8.0073,8.0175,8.0209,8.0209,8.0209,8.0209,8.0209,8.0209,8.0209,8.0209,8.0209,8.0209,8.0209,8.0209,8.0209,8.0209,8.0209,8.0209,8.0209,8.0209,8.0209,8.0209,8.0209,8.0209,8.0209,8.0209,8.0209,8.0209,8.0209,8.0209,8.0209,8.0074,7.8723,7.8211,7.8211,7.831,7.8767,7.942,6.4786,6.4401,6.3986,6.3986,6.3478,6.3108,6.3108,6.3108,6.3108,6.3108,6.3108,6.3394,6.4125,6.4237,6.4237,6.4237,6.3535,6.3693,6.5067,6.6453,6.7964,6.9726,7.1075,7.1928,7.2236,7.2259,7.1064,6.8586,6.8042,6.7277,6.6158,6.4063,6.3108,6.3108,6.3108,6.3108,6.3165,6.3902,6.5343,6.7238,6.8599,7.0569,7.2826,7.403,7.503,7.5855,7.6449,7.6904,7.7289,7.7289,7.7289,7.7289,7.7289,7.7289,7.7019,7.5562,7.512,7.4861,7.3586,7.3788,7.4364,7.4553,7.5168,7.5709,7.5709,7.5439,7.5303,7.5642,7.6115,7.6589,7.686,7.7232,7.7874,7.8923,7.8754,7.8889,8.004,8.0209,8.0209,8.0209,8.0209,8.0209,8.0209,8.0209,8.0209,8.0209,8.0209,8.0209,8.0209,8.0209,8.0209,8.0209,8.0209,8.0209,8.0209,8.0209,8.0209,8.0209,8.0209,8.0209,8.0209,8.0209,8.0209,8.0209,8.0209,8.0209,8.0209,8.0209,7.9972,7.944,7.7907,7.6823,7.6159,7.7013,7.7804,7.8554]}]]